[[{"header":{"parameterUnit":"m.s-1","parameterCategory":1,"la1":30.6,"la2":28.766,"lo1":-90.7593,"lo2":-88.6598,"dy":0.0162,"dx":0.0183,"nx":116,"ny":114,"refTime":"2024-07-05T18:00:00:Z","depth":0,"parameterNumber":2,"parameterNumberName":"U-component_of_WINDS"},"data":[0.0,0.0,0.0,0.0,0.0,0.0,0.0,0.0,0.0,0.0,0.0,0.0,0.0,0.0,0.0,0.0,0.0,0.0,0.0,0.0,0.0,0.0,0.0,0.0,0.0,0.0,0.0,0.0,0.0,0.0,0.0,0.0,0.0,0.0,0.0,0.0,0.0,0.0,0.0,0.0,0.0,0.0,0.0,0.0,0.0,0.0,0.0,0.0,0.0,0.0,0.0,0.0,0.0,0.0,0.0,0.0,0.0,0.0,0.0,0.0,0.0,0.0,0.0,0.0,0.0,0.0,0.0,0.0,0.0,0.0,0.0,0.0,0.0,0.0,0.0,0.0,0.0,0.0,0.0,0.0,0.0,0.0,0.0,0.0,0.0,0.0,0.0,0.0,0.0,0.0,0.0,0.0,0.0,0.0,0.0,0.0,0.0,0.0,0.0,0.0,0.0,0.0,0.0,0.0,0.0,0.0,0.0,0.0,0.0,0.0,0.0,0.0,0.0,0.0,0.0,0.0,0.0,0.0,0.0,0.0,0.0,0.0,0.0,0.0,0.0,0.0,0.0,0.0,0.0,0.0,0.0,0.0,0.0,0.0,0.0,0.0,0.0,0.0,0.0,0.0,0.0,0.0,0.0,0.0,0.0,0.0,0.0,0.0,0.0,0.0,0.0,0.0,0.0,0.0,0.0,0.0,0.0,0.0,0.0,0.0,0.0,0.0,0.0,0.0,0.0,0.0,0.0,0.0,0.0,0.0,0.0,0.0,0.0,0.0,0.0,0.0,0.0,0.0,0.0,0.0,0.0,0.0,0.0,0.0,0.0,0.0,0.0,0.0,0.0,0.0,0.0,0.0,0.0,0.0,0.0,0.0,0.0,0.0,0.0,0.0,0.0,0.0,0.0,0.0,0.0,0.0,0.0,0.0,0.0,0.0,0.0,0.0,0.0,0.0,0.0,0.0,0.0,0.0,0.0,0.0,0.0,0.0,0.0,0.0,0.0,0.0,0.0,0.0,0.0,0.0,0.0,0.0,0.0,0.0,0.0,0.0,0.0,0.0,0.0,0.0,0.0,0.0,0.0,0.0,0.0,0.0,0.0,0.0,0.0,0.0,0.0,0.0,0.0,0.0,0.0,0.0,0.0,0.0,0.0,0.0,0.0,0.0,0.0,0.0,0.0,0.0,0.0,0.0,0.0,0.0,0.0,0.0,0.0,0.0,0.0,0.0,0.0,0.0,0.0,0.0,0.0,0.0,0.0,0.0,0.0,0.0,0.0,0.0,0.0,0.0,0.0,0.0,0.0,0.0,0.0,0.0,0.0,0.0,0.0,0.0,0.0,0.0,0.0,0.0,0.0,0.0,0.0,0.0,0.0,0.0,0.0,0.0,0.0,0.0,0.0,0.0,0.0,0.0,0.0,0.0,0.0,0.0,0.0,0.0,0.0,0.0,0.0,0.0,0.0,0.0,0.0,0.0,0.0,0.0,0.0,0.0,0.0,0.0,0.0,0.0,0.0,0.0,0.0,0.0,0.0,0.0,0.0,0.0,0.0,0.0,0.0,0.0,0.0,0.0,0.0,0.0,0.0,0.0,0.0,0.0,0.0,0.0,0.0,0.0,0.0,0.0,0.0,0.0,0.0,0.0,0.0,0.0,0.0,0.0,0.0,0.0,0.0,0.0,0.0,0.0,0.0,0.0,0.0,0.0,0.0,0.0,0.0,0.0,0.0,0.0,0.0,0.0,0.0,0.0,0.0,0.0,0.0,0.0,0.0,0.0,0.0,0.0,0.0,0.0,0.0,0.0,0.0,0.0,0.0,0.0,0.0,0.0,0.0,0.0,0.0,0.0,0.0,0.0,0.0,0.0,0.0,0.0,0.0,0.0,0.0,0.0,0.0,0.0,0.0,0.0,0.0,0.0,0.0,0.0,0.0,0.0,0.0,0.0,0.0,0.0,0.0,0.0,0.0,0.0,0.0,0.0,0.0,0.0,0.0,0.0,0.0,0.0,0.0,0.0,0.0,0.0,0.0,0.0,0.0,0.0,0.0,0.0,0.0,0.0,0.0,0.0,0.0,0.0,0.0,0.0,0.0,0.0,0.0,0.0,0.0,0.0,0.0,0.0,0.0,0.0,0.0,0.0,0.0,0.0,0.0,0.0,0.0,0.0,0.0,0.0,0.0,0.0,0.0,0.0,0.0,0.0,0.0,0.0,0.0,0.0,0.0,0.0,0.0,0.0,0.0,0.0,0.0,0.0,0.0,0.0,0.0,0.0,0.0,0.0,0.0,0.0,0.0,0.0,0.0,0.0,0.0,0.0,0.0,0.0,0.0,0.0,0.0,0.0,0.0,0.0,0.0,0.0,0.0,0.0,0.0,0.0,0.0,0.0,0.0,0.0,0.0,0.0,0.0,0.0,0.0,0.0,0.0,0.0,0.0,0.0,0.0,0.0,0.0,0.0,0.0,0.0,0.0,0.0,0.0,0.0,0.0,0.0,0.0,0.0,0.0,0.0,0.0,0.0,0.0,0.0,0.0,0.0,0.0,0.0,0.0,0.0,0.0,0.0,0.0,0.0,0.0,0.0,0.0,0.0,0.0,0.0,0.0,0.0,0.0,0.0,0.0,0.0,0.0,0.0,0.0,0.0,0.0,0.0,0.0,0.0,0.0,0.0,0.0,0.0,0.0,0.0,0.0,0.0,0.0,0.0,0.0,0.0,0.0,0.0,0.0,0.0,0.0,0.0,0.0,0.0,0.0,0.0,0.0,0.0,0.0,0.0,0.0,0.0,0.0,0.0,0.0,0.0,0.0,0.0,0.0,0.0,0.0,0.0,0.0,0.0,0.0,0.0,0.0,0.0,0.0,0.0,0.0,0.0,0.0,0.0,0.0,0.0,0.0,0.0,0.0,0.0,0.0,0.0,0.0,0.0,0.0,0.0,0.0,0.0,0.0,0.0,0.0,0.0,0.0,0.0,0.0,0.0,0.0,0.0,0.0,0.0,0.0,0.0,0.0,0.0,0.0,0.0,0.0,0.0,0.0,0.0,0.0,0.0,0.0,0.0,0.0,0.0,0.0,0.0,0.0,0.0,0.0,0.0,0.0,0.0,0.0,0.0,0.0,0.0,0.0,0.0,0.0,0.0,0.0,0.0,0.0,0.0,0.0,0.0,0.0,0.0,0.0,0.0,0.0,0.0,0.0,0.0,0.0,0.0,0.0,0.0,0.0,0.0,0.0,0.0,0.0,0.0,0.0,0.0,0.0,0.0,0.0,0.0,0.0,0.0,0.0,0.0,0.0,0.0,0.0,0.0,0.0,0.0,0.0,0.0,0.0,0.0,0.0,0.0,0.0,0.0,0.0,0.0,0.0,0.0,0.0,0.0,0.0,0.0,0.0,0.0,0.0,0.0,0.0,0.0,0.0,0.0,0.0,0.0,0.0,0.0,0.0,0.0,0.0,0.0,0.0,0.0,0.0,0.0,0.0,0.0,0.0,0.0,0.0,0.0,0.0,0.0,0.0,0.0,0.0,0.0,0.0,0.0,0.0,0.0,0.0,0.0,0.0,0.0,0.0,0.0,0.0,0.0,0.0,0.0,0.0,0.0,0.0,0.0,0.0,0.0,0.0,0.0,0.0,0.0,0.0,0.0,0.0,0.0,0.0,0.0,0.0,0.0,0.0,0.0,0.0,0.0,0.0,0.0,0.0,0.0,0.0,0.0,0.0,0.0,0.0,0.0,0.0,0.0,0.0,0.0,0.0,0.0,0.0,0.0,0.0,0.0,0.0,0.0,0.0,0.0,0.0,0.0,0.0,0.0,0.0,0.0,0.0,0.0,0.0,0.0,0.0,0.0,0.0,0.0,0.0,0.0,0.0,0.0,0.0,0.0,0.0,0.0,0.0,0.0,0.0,0.0,0.0,0.0,0.0,0.0,0.0,0.0,0.0,0.0,0.0,0.0,0.0,0.0,0.0,0.0,0.0,0.0,0.0,0.0,0.0,0.0,0.0,0.0,0.0,0.0,0.0,0.0,0.0,0.0,0.0,0.0,0.0,0.0,0.0,0.0,0.0,0.0,0.0,0.0,0.0,0.0,0.0,0.0,0.0,0.0,0.0,0.0,0.0,0.0,0.0,0.0,0.0,0.0,0.0,0.0,0.0,0.0,0.0,0.0,0.0,0.0,0.0,0.0,0.0,0.0,0.0,0.0,0.0,0.0,0.0,0.0,0.0,0.0,0.0,0.0,0.0,0.0,0.0,0.0,0.0,0.0,0.0,0.0,0.0,0.0,0.0,0.0,0.0,0.0,0.0,0.0,0.0,0.0,0.0,0.0,0.0,0.0,0.0,0.0,0.0,0.0,0.0,0.0,0.0,0.0,0.0,0.0,0.0,0.0,0.0,0.0,0.0,0.0,0.0,0.0,0.0,0.0,0.0,0.0,0.0,0.0,0.0,0.0,0.0,0.0,0.0,0.0,0.0,0.0,0.0,0.0,0.0,0.0,0.0,0.0,0.0,0.0,0.0,0.0,0.0,0.0,0.0,0.0,0.0,0.0,0.0,0.0,0.0,0.0,0.0,0.0,0.0,0.0,0.0,0.0,0.0,0.0,0.0,0.0,0.0,0.0,0.0,0.0,0.0,0.0,0.0,0.0,0.0,0.0,0.0,0.0,0.0,0.0,0.0,0.0,0.0,0.0,0.0,0.0,0.0,0.0,0.0,0.0,0.0,0.0,0.0,0.0,0.0,0.0,0.0,0.0,0.0,0.0,0.0,0.0,0.0,0.0,0.0,0.0,0.0,0.0,0.0,0.0,0.0,0.0,0.0,0.0,0.0,0.0,0.0,0.0,0.0,0.0,0.0,0.0,0.0,0.0,0.0,0.0,0.0,0.0,0.0,0.0,0.0,0.0,0.0,0.0,0.0,0.0,0.0,0.0,0.0,0.0,0.0,0.0,0.0,0.0,0.0,0.0,0.0,0.0,0.0,0.0,0.0,0.0,0.0,0.0,0.0,0.0,0.0,0.0,0.0,0.0,0.0,0.0,0.0,0.0,0.0,0.0,0.0,0.0,0.0,0.0,0.0,0.0,0.0,0.0,0.0,0.0,0.0,0.0,0.0,0.0,0.0,0.0,0.0,0.0,0.0,0.0,0.0,0.0,0.0,0.0,0.0,0.0,0.0,0.0,0.0,0.0,0.0,0.0,0.0,0.0,0.0,0.0,0.0,0.0,0.0,0.0,0.0,0.0,0.0,0.0,0.0,0.0,0.0,0.0,0.0,0.0,0.0,0.0,0.0,0.0,0.0,0.0,0.0,0.0,0.0,0.0,0.0,0.0,0.0,0.0,0.0,0.0,0.0,0.0,0.0,0.0,0.0,0.0,0.0,0.0,0.0,0.0,0.0,0.0,0.0,0.0,0.0,0.0,0.0,0.0,0.0,0.0,0.0,0.0,0.0,0.0,0.0,0.0,0.0,0.0,0.0,0.0,0.0,0.0,0.0,0.0,0.0,0.0,0.0,0.0,0.0,0.0,0.0,0.0,0.0,0.0,0.0,0.0,0.0,0.0,0.0,0.0,0.0,0.0,0.0,0.0,0.0,0.0,0.0,0.0,0.0,0.0,0.0,0.0,0.0,0.0,0.0,0.0,0.0,0.0,0.0,0.0,0.0,0.0,0.0,0.0,0.0,0.0,0.0,0.0,0.0,0.0,0.0,0.0,0.0,0.0,0.0,0.0,0.0,0.0,0.0,0.0,0.0,0.0,0.0,0.0,0.0,0.0,0.0,0.0,0.0,0.0,0.0,0.0,0.0,0.0,0.0,0.0,0.0,0.0,0.0,0.0,0.0,0.0,0.0,0.0,0.0,0.0,0.0,0.0,0.0,0.0,0.0,0.0,0.0,0.0,0.0,0.0,0.0,0.0,0.0,0.0,0.0,0.0,0.0,0.0,0.0,0.0,0.0,0.0,0.0,0.0,0.0,0.0,0.0,0.0,0.0,0.0,0.0,0.0,0.0,0.0,0.0,0.0,0.0,0.0,0.0,0.0,0.0,0.0,0.0,0.0,0.0,0.0,0.0,0.0,0.0,0.0,0.0,0.0,0.0,0.0,0.0,0.0,0.0,0.0,0.2741,0.0,0.0,0.0,0.0,0.0,0.0,0.0,0.0,0.0,0.0,0.0,0.0,0.0,0.0,0.0,0.0,0.0,0.0,0.0,0.0,0.0,0.0,0.0,0.0,-0.2776,-0.2873,-0.2574,-0.2669,-0.2553,-0.2092,0.0,0.0,0.0,0.0,0.0,0.0208,0.0795,0.1096,0.1091,0.1094,0.125,0.1493,-0.0364,-0.2036,-0.3475,0.0,0.0,0.0,0.0,0.0,0.0,0.0,0.0,0.0,0.0,0.0,0.0,0.0,0.0,0.0,0.0,0.0,0.0,0.0,0.0,0.0,0.0,0.0,0.0,0.0,0.0,0.0,0.0,0.0,0.0,0.0,0.0,0.0,0.0,0.0,0.0,0.0,0.0,0.0,0.0,0.0,0.0,0.0,0.0,0.0,0.0,0.0,0.0,0.0,0.0,0.0,0.0,0.0,0.0,0.0,0.0,0.0,0.0,0.0,0.0,0.0,0.0,0.0,0.0,0.0,0.0,0.0,0.0,0.0,0.0,0.0,0.3389,0.0,0.0,0.0,0.0,0.0,0.0,0.0,0.0,0.0,0.0,0.0,0.0,0.0,0.0,0.0,0.0,0.0,0.0,0.0,0.0,0.0,-0.2089,-0.2576,-0.299,-0.3035,-0.2593,-0.2692,-0.2464,-0.1698,-0.134,0.0,0.0,0.0,-0.0084,0.0979,0.1219,0.1347,0.1384,0.1388,0.1584,0.1923,0.0214,-0.1612,-0.3407,-0.2801,0.0,0.0,0.0,0.0,0.0,0.0,0.0,0.0,0.0,0.0,0.0,0.0,0.0,0.0,0.0,0.0,0.0,0.0,0.0,0.0,0.0,0.0,0.0,0.0,0.0,0.0,0.0,0.0,0.0,0.0,0.0,0.0,0.0,0.0,0.0,0.0,0.0,0.0,0.0,0.0,0.0,0.0,0.0,0.0,0.0,0.0,0.0,0.0,0.0,0.0,0.0,0.0,0.0,0.0,0.0,0.0,0.0,0.0,0.0,0.0,0.0,0.0,0.0,0.858,0.8287,0.7302,0.7416,0.6949,0.6038,0.526,0.4498,0.3858,0.4239,0.0,0.0,0.0,0.0,0.0,0.0,0.0,0.0,0.0,0.0,0.0,0.0,0.0,0.0,0.0,0.0,0.0,0.0,0.0,-0.212,-0.2706,-0.2637,-0.2489,-0.2358,-0.2105,-0.1698,-0.106,-0.0285,0.0,0.0,0.0938,0.0904,0.141,0.145,0.1558,0.1734,0.1744,0.2018,0.255,0.039,-0.1498,-0.3159,-0.305,-0.3298,-0.3733,0.0,0.0,0.0,0.0,0.0,0.0,0.0,0.0,0.0,0.0,0.0,0.0,0.0,0.0,0.0,0.0,0.0,0.0,0.0,0.0,0.0,0.0,0.0,0.0,0.0,0.0,0.0,0.0,0.0,0.0,0.0,0.0,0.0,0.0,0.0,0.0,0.0,0.0,0.0,0.0,0.0,-0.5986,-0.5521,0.0,0.0,0.0,0.0,0.0,0.0,0.0,0.0,0.0,0.0,0.0,0.0,0.0,0.3614,0.4155,0.423,0.4529,0.5076,0.7633,0.8718,0.8607,0.9078,0.9236,0.9055,0.7545,0.0,0.4663,0.4024,0.0,0.0,0.0,0.0,0.0,0.0,0.0,0.0,0.0,0.0,0.0,0.0,0.0,0.0,0.0,0.0,0.0,0.0,0.0,0.0,0.0,-0.2206,-0.1984,-0.1661,-0.1391,-0.0993,-0.0437,-0.004,0.0815,0.2234,0.2063,0.1936,0.2004,0.145,0.1492,0.213,0.214,0.1687,0.0811,-0.0035,-0.1428,-0.3195,-0.3136,-0.3433,-0.3935,-0.3481,0.0,0.0,0.0,0.0,0.0,0.0,0.0,0.0,0.0,0.0,0.0,0.0,0.0,0.0,0.0,0.0,0.0,0.0,0.0,0.0,0.0,0.0,0.0,0.0,0.0,0.0,0.0,0.0,0.0,0.0,0.0,0.0,0.0,0.0,0.0,0.0,0.0,0.0,0.0,-0.6764,-0.9483,-0.6935,-0.4941,-0.3645,0.0,0.0,0.0,0.0,0.0,0.0,0.0,0.0,0.0,0.2658,0.2808,0.3395,0.4512,0.4519,0.4697,0.5034,0.6298,0.7914,0.9821,1.0113,1.0065,0.9798,0.8557,0.7648,0.6871,0.5453,0.4461,0.3887,0.0,0.0,0.0,0.0,0.4825,0.448,0.0,0.0,0.0,0.0,0.0,0.0,0.0,0.0,0.0,0.0,0.0,0.0,-0.1712,-0.167,-0.1429,-0.0869,-0.0585,-0.0109,0.0643,0.0645,0.1245,0.2694,0.2716,0.2645,0.2531,0.1806,0.1811,0.2615,0.2152,0.0916,-0.1011,-0.1281,-0.2349,-0.3938,-0.3759,-0.3738,-0.3863,-0.3481,-0.3115,0.0,0.0,0.0,0.0,0.0,0.0,0.0,0.0,0.0,0.0,0.0,0.0,0.0,0.0,0.0,0.0,0.0,0.0,0.0,0.0,0.0,0.0,0.0,0.0,0.0,0.0,0.0,0.0,0.0,0.0,0.0,0.0,0.0,0.0,0.0,0.0,0.0,0.0,-0.8159,-1.1946,-0.9095,-0.7472,-0.5976,0.0,0.0,0.0,0.0,0.0,0.0,-0.1331,-0.045,0.0623,0.1994,0.2739,0.3646,0.4745,0.4749,0.4955,0.54,0.6603,0.8524,1.1051,1.0916,1.0749,1.0404,0.9389,0.9009,0.8851,0.6978,0.5741,0.505,0.5335,0.5262,0.5158,0.6062,0.5981,0.5461,0.0,0.0,0.0,0.0,0.0,0.0,0.0,0.0,0.0,0.0,0.0,-0.1378,-0.1001,-0.0948,-0.0717,-0.0109,0.0309,0.1112,0.0,0.0,0.246,0.287,0.2772,0.2751,0.2864,0.2892,0.298,0.3151,0.1502,-0.0263,-0.214,-0.373,-0.4944,-0.5766,-0.5374,-0.4515,-0.3331,-0.2916,-0.274,-0.2679,0.0,0.0,0.0,0.0,0.0,0.0,0.0,0.0,0.0,0.0,0.0,0.0,0.0,0.0,0.0,0.0,0.0,0.0,0.0,0.0,0.0,0.0,0.0,0.0,0.0,0.0,0.0,0.0,0.0,0.0,0.0,0.0,0.0,0.0,0.0,0.0,0.0,0.0,0.0,-1.1627,-1.0687,0.0,0.0,0.0,0.0,-0.4414,-0.4049,-0.4109,-0.4632,-0.1675,0.0056,0.0119,0.2895,0.4706,0.538,0.538,0.54,0.5483,0.9839,1.2019,1.2186,1.182,1.1648,1.1574,1.0517,1.0024,0.9879,0.8135,0.7393,0.7308,0.7357,0.7341,0.7326,0.7415,0.7421,0.7239,0.0,0.0,0.0,-0.0145,-0.0646,-0.1017,-0.1024,-0.1001,-0.0921,-0.0807,-0.0523,-0.0303,-0.0209,0.015,0.0463,0.0692,0.1199,0.1783,0.2461,0.2368,0.2697,0.3632,0.3632,0.3615,0.368,0.3305,0.2754,0.1986,0.062,-0.0995,-0.2818,-0.4381,-0.5465,-0.608,-0.5924,-0.5594,-0.5066,-0.3813,-0.305,-0.2704,-0.2625,-0.2276,0.0,0.0,0.0,0.0,0.0,0.0,0.0,0.0,0.0,0.0,0.0,0.0,0.0,0.0,0.0,0.0,0.0,0.0,0.0,0.0,0.0,0.0,0.0,0.0,0.0,0.0,0.0,0.0,0.0,0.0,0.0,0.0,0.0,0.0,0.0,0.0,0.0,-1.1446,-1.1223,0.0,-0.8117,-0.7975,-0.7527,-0.6349,-0.5979,-0.5529,-0.4876,-0.3834,-0.2293,-0.0063,0.1054,0.1712,0.1945,0.4232,0.5609,0.6016,0.7638,0.9241,1.0586,1.0457,1.0792,1.1505,1.108,1.0936,1.091,1.0302,0.8924,0.7298,0.7947,0.7792,0.7175,0.7955,0.7817,0.7186,0.1399,0.0731,0.0,-0.0424,-0.0726,-0.0925,-0.1013,-0.1033,-0.0823,-0.0206,0.014,0.0457,0.0804,0.1386,0.174,0.1704,0.2103,0.2474,0.2768,0.2683,0.3011,0.3871,0.4094,0.4225,0.4298,0.3899,0.2808,0.1013,-0.051,-0.229,-0.4392,-0.5424,-0.6229,-0.6798,-0.6798,-0.6648,-0.6411,-0.5285,-0.4109,-0.3023,-0.3151,-0.2399,-0.1246,0.0,0.0,0.0,0.0,0.0,0.0,0.0,0.0,0.0,0.0,0.0,0.0,0.0,0.0,0.0,0.0,0.0,0.0,0.0,0.0,0.0,0.0,0.0,0.0,0.0,0.0,0.0,0.0,0.0,0.0,0.0,0.0,0.0,0.0,0.0,-1.2683,-1.1531,-1.2005,-1.1635,-0.9523,-0.9676,-0.9322,-0.7871,-0.7589,-0.6866,-0.543,-0.5275,-0.4171,-0.1983,-0.0653,-0.0,-0.0,0.241,0.453,0.6264,0.6303,0.7556,0.9902,1.0045,1.0698,1.1724,1.1724,1.1724,1.1724,1.1724,1.0395,0.8403,0.9223,0.9058,0.8533,0.9237,0.9089,0.8495,0.1296,0.0823,0.0133,-0.0718,-0.0867,-0.0874,-0.0873,-0.1088,-0.0848,0.0281,0.0442,0.0877,0.1995,0.2643,0.2982,0.2919,0.3012,0.3211,0.3483,0.3489,0.3499,0.3531,0.4104,0.4531,0.4737,0.4624,0.3175,0.0398,-0.1883,-0.4274,-0.6804,-0.6989,-0.741,-0.7908,-0.7908,-0.7663,-0.717,-0.717,-0.581,-0.3742,-0.4073,-0.2528,-0.0231,0.0,0.0,0.0,0.0,0.0,0.0,0.0,0.0,0.0,0.0,0.0,0.0,0.0,0.0,0.0,0.0,0.0,0.0,0.0,0.0,0.0,0.0,0.0,0.0,0.0,0.0,0.0,0.0,0.0,0.0,0.0,0.0,0.0,-1.2683,-1.2923,-1.2696,-1.2107,-1.3273,-1.3183,-1.0955,-1.1444,-1.1069,-0.8863,-0.8699,-0.8029,-0.6589,-0.5853,-0.5561,-0.5679,-0.212,-0.0145,-0.0,-0.0,0.2115,0.6197,0.6297,0.7672,1.0198,1.0588,1.1242,1.2224,1.2238,1.2311,1.2305,1.2325,1.1713,1.0885,1.1243,1.1381,1.1312,1.1312,1.1312,1.103,0.1575,0.0976,0.0324,0.0089,-0.0122,-0.0244,-0.0245,-0.0193,0.0144,0.094,0.1521,0.2017,0.2489,0.2944,0.3122,0.2917,0.3118,0.3361,0.3623,0.3277,0.3459,0.4323,0.4907,0.5346,0.5722,0.2938,0.0977,-0.0097,-0.332,-0.5417,-0.6537,-0.713,-0.7791,-0.8564,-0.8564,-0.8461,-0.8352,-0.8352,-0.7615,-0.6294,-0.4499,-0.3294,-0.247,0.0,0.0,0.0,0.0,0.0,0.0,0.0,0.0,0.0,0.0,0.0,0.0,0.0,0.0,0.0,0.0,0.0,0.0,0.0,0.0,0.0,0.0,0.0,0.0,0.0,0.0,0.0,0.0,0.0,0.0,0.0,0.0,-1.164,-1.2272,-1.2719,-1.2909,-1.2696,-1.3525,-1.3951,-1.3525,-1.3304,-1.2522,-1.1056,-1.0517,-0.9928,-0.9153,-0.7642,-0.6514,-0.5927,-0.4873,-0.2952,-0.0,-0.0,0.1324,0.3977,0.5544,0.7099,0.8479,0.8618,0.9588,1.1248,1.138,1.1815,1.2331,1.2779,1.254,1.1829,1.123,1.051,0.9849,0.9849,0.9406,0.8589,0.1354,0.098,0.057,0.0424,0.039,0.0413,0.0533,0.0854,0.126,0.1706,0.2254,0.2643,0.2768,0.3151,0.3344,0.3236,0.3383,0.352,0.3603,0.3214,0.3445,0.4524,0.4951,0.5362,0.5755,0.2469,-0.0189,-0.2051,-0.4926,-0.6426,-0.6498,-0.7546,-0.832,-0.8804,-0.8804,-0.8646,-0.8321,-0.8321,-0.7846,-0.6976,-0.5074,-0.4058,-0.355,-0.2092,-0.152,-0.1446,-0.0383,-0.0437,-0.0935,-0.0242,0.0,0.0,0.0,0.0,0.0,0.0,0.0,0.0,0.0,0.0,0.0,0.0,0.0,0.0,0.0,0.0,0.0,0.0,0.0,0.0,0.0,0.0,0.0,0.0,-1.0696,-1.1608,-1.2059,-1.2596,-1.3109,-1.3536,-1.4223,-1.4502,-1.4193,-1.3803,-1.3122,-1.2022,-1.1421,-1.0805,-1.0164,-0.8705,-0.7533,-0.666,-0.6311,-0.5025,-0.2668,-0.0851,0.0627,0.1821,0.5007,0.6788,0.7281,0.777,0.8862,1.0341,1.0494,1.079,1.1218,1.1611,1.1551,0.0,0.0,0.0,0.0,0.0,0.8793,0.7853,0.0899,0.0921,0.0851,0.0546,0.0759,0.1054,0.128,0.1808,0.2246,0.2444,0.274,0.294,0.3003,0.331,0.3553,0.3655,0.367,0.3593,0.3417,0.3286,0.3398,0.3898,0.391,0.4184,0.4785,0.2199,-0.0938,-0.4669,-0.6462,-0.7134,-0.675,-0.8156,-0.8804,-0.8804,-0.8699,-0.8315,-0.767,-0.7616,-0.7182,-0.6519,-0.5742,-0.4883,-0.4041,-0.3749,-0.229,-0.0401,-0.0403,-0.0427,-0.0354,-0.0107,0.0,0.0,0.0,0.0,0.0,0.0,0.0,0.0,0.0,0.0,0.0,0.0,0.0,0.0,0.0,0.0,0.0,0.0,0.0,0.0,0.0,0.0,0.0,0.0,-1.0141,-1.101,-1.1921,-1.2512,-1.3204,-1.416,-1.4782,-1.4706,-1.3638,-1.3506,-1.3172,-1.2362,-1.185,-1.1207,-1.0399,0.0,0.0,0.0,0.0,-0.6305,-0.6322,-0.2601,-0.0479,0.0081,0.4322,0.642,0.6658,0.7581,0.8574,0.9548,0.9572,0.9648,0.971,0.9759,0.9683,0.9639,1.0543,1.0679,1.0382,0.9636,0.8814,0.8004,0.0899,0.1076,0.1182,0.1068,0.123,0.1399,0.1448,0.1787,0.2244,0.2814,0.2989,0.3214,0.3652,0.3572,0.3501,0.3529,0.3448,0.3234,0.0,0.0,0.293,0.0939,-0.0246,-0.0045,0.1699,-0.0555,-0.3056,-0.5642,-0.6387,-0.6988,-0.7503,-0.8374,-0.8804,-0.8752,-0.8156,-0.783,-0.767,-0.7074,-0.675,-0.6583,-0.6436,-0.5795,-0.4966,-0.4189,-0.3501,-0.2901,-0.2904,-0.2926,-0.26,-0.0648,-0.0,-0.0,-0.0,0.0,0.0,0.0,0.0,0.0,0.0,0.0,0.0,0.0,0.0,0.0,0.0,0.0,0.0,0.0,0.0,0.0,0.0,0.0,0.0,-0.9899,-1.0411,-1.0767,-1.1678,-1.2078,-1.2311,-1.2258,-1.286,-1.3194,-1.3,-1.3501,-1.3576,-1.2981,-1.2855,-1.2516,-1.1899,-1.0176,-0.9155,-0.893,-0.7203,-0.6284,-0.6314,-0.5516,-0.3404,-0.0,0.0,0.0,0.6802,0.6954,0.7514,0.85,0.8735,0.9211,0.9735,1.0253,0.9785,0.8866,0.8837,0.8277,0.755,0.7342,0.7191,0.7026,0.0995,0.116,0.1269,0.134,0.1432,0.1625,0.1995,0.2311,0.2681,0.3187,0.3284,0.3359,0.3493,0.3267,0.309,0.3101,0.2938,0.0,0.0,0.2552,0.2189,0.1389,-0.1171,-0.2998,-0.3929,-0.4605,-0.5531,-0.6628,-0.6982,-0.7343,-0.7723,-0.848,-0.8804,-0.8752,-0.8049,-0.7509,-0.7128,-0.6362,-0.5878,-0.5555,-0.5555,-0.5283,-0.4927,-0.4943,-0.455,-0.4072,-0.4072,-0.3836,-0.3407,-0.2192,-0.1412,-0.0886,-0.0905,-0.0914,-0.1028,0.0,0.0,0.0,0.0,0.0,0.0,0.0,0.0,0.0,0.0,0.0,0.0,0.0,0.0,-0.4674,0.0,0.0,-0.6544,-0.8552,-0.9106,-0.9407,-0.9803,-1.0319,-1.0876,-1.1485,-1.2297,-1.2949,-1.3284,-1.3467,-1.3355,-1.3112,-1.2856,-1.2356,-1.1607,-1.0155,-0.9227,-0.885,-0.7301,-0.6433,-0.6299,-0.6287,-0.4141,-0.0,0.2471,0.4806,0.6963,0.6946,0.7182,0.7684,0.7786,0.8119,0.8381,0.8736,0.8491,0.788,0.771,0.7296,0.6824,0.6895,0.6919,0.6919,0.1221,0.1286,0.1319,0.1507,0.1571,0.1844,0.2559,0.2884,0.3193,0.3642,0.359,0.3445,0.3275,0.2869,0.2587,0.0,0.0,0.0,0.0,0.1426,0.0881,0.097,-0.1863,-0.4957,-0.8257,-0.7617,-0.7319,-0.7447,-0.7634,-0.7777,-0.7943,-0.8533,-0.8699,-0.854,-0.783,-0.7074,-0.6312,-0.5601,-0.5003,-0.4519,-0.4519,-0.4519,-0.457,-0.5328,-0.5164,-0.4512,-0.445,-0.4217,-0.3994,-0.3695,-0.2951,-0.2156,-0.216,-0.2167,-0.2226,-0.2647,-0.2897,0.0,0.0,0.0,0.0,0.0,0.0,0.0,0.0,0.0,-0.0444,-0.1992,-0.3343,-0.4644,-0.5947,-0.6216,-0.6502,-0.7059,-0.7588,-0.7909,-0.7867,-0.8476,-0.9382,-1.0562,-1.166,-1.2621,-1.3423,-1.3009,-1.2643,-1.2643,-1.2078,-1.1341,-1.0553,-0.9668,-0.8932,-0.8352,-0.7237,-0.6505,-0.6279,-0.5526,-0.3348,-0.0,0.2882,0.5292,0.7108,0.7094,0.6894,0.6425,0.645,0.6456,0.645,0.6907,0.7078,0.7058,0.7058,0.7075,0.6983,0.7099,0.7139,0.7139,0.1681,0.1583,0.1507,0.1649,0.1827,0.2179,0.2855,0.3077,0.347,0.4291,0.3862,0.3571,0.3791,0.2874,0.2215,0.2092,0.0,0.0,0.2653,0.0902,-0.1677,-0.5047,-0.5275,-0.5724,-0.6646,-0.6665,-0.7004,-0.7676,-0.767,-0.8049,-0.8699,-0.8752,-0.8427,-0.7777,-0.7074,-0.6312,-0.5597,-0.4893,-0.457,-0.4519,-0.4519,-0.4519,-0.4519,-0.4625,-0.457,-0.4484,-0.4161,-0.4709,-0.5362,-0.4055,-0.3527,-0.3396,-0.3382,-0.341,-0.3331,-0.3056,0.0,-0.304,-0.2881,-0.1963,-0.0911,-0.0345,-0.0086,-0.0,0.0,0.0,-0.048,-0.2271,-0.402,-0.5393,-0.5905,-0.577,-0.597,-0.7245,-0.7246,-0.7148,-0.7414,-0.7933,-0.8293,-0.8369,-0.9715,-1.1037,-1.2022,-1.1478,-1.1039,-1.1039,-1.0179,-0.9606,-0.9642,-0.8737,-0.8285,-0.8556,-0.7407,-0.6655,-0.6334,-0.2544,-0.0444,0.009,0.4572,0.6844,0.7131,0.7111,0.6002,0.4014,0.4016,0.4018,0.4196,0.6278,0.7091,0.7081,0.7081,0.7061,0.7119,0.7136,0.7139,0.7139,0.182,0.1666,0.1603,0.1941,0.2063,0.2374,0.3166,0.3346,0.3555,0.4086,0.3764,0.3418,0.3232,0.2454,0.1942,0.1895,0.2203,0.2394,0.2424,0.067,-0.1671,-0.457,-0.5481,-0.6227,-0.6805,-0.7512,-0.8049,-0.8321,-0.8321,-0.848,-0.8804,-0.8804,-0.8427,-0.767,-0.6912,-0.6199,-0.5433,-0.4787,-0.4519,-0.4519,-0.4519,-0.4519,-0.4519,-0.4519,-0.4519,-0.4488,-0.458,-0.4995,0.0,0.0,-0.4438,-0.4081,-0.4052,-0.3773,-0.3468,-0.364,-0.3567,0.0,-0.3497,0.0,0.0,0.0,-0.0,-0.0531,-0.2665,-0.3168,-0.3301,-0.3975,-0.4817,-0.5446,-0.5476,-0.5417,-0.5621,0.0,-0.6312,-0.6299,-0.6522,-0.6752,-0.7061,-0.7544,-0.8193,-0.9021,-1.0179,-1.0051,-0.9895,-0.9895,-0.9637,-0.9208,-0.8668,-0.8585,-0.8176,-0.7498,-0.7146,-0.6886,-0.6734,-0.2305,-0.0,-0.0,0.3409,0.5029,0.5109,0.648,0.5029,0.1701,0.4395,0.403,0.1608,0.2592,0.3755,0.5184,0.6542,0.7081,0.7071,0.7058,0.7139,0.7139,0.1964,0.1796,0.1754,0.2134,0.2173,0.2408,0.3188,0.3369,0.3533,0.3852,0.3667,0.3256,0.2626,0.2114,0.1806,0.1809,0.2,0.2163,0.2193,0.0675,-0.1179,-0.3406,-0.4772,-0.6002,-0.72,-0.7999,-0.8561,-0.8804,-0.8804,-0.8804,-0.8804,-0.8804,-0.8321,-0.7396,-0.6858,-0.6095,-0.5218,-0.468,-0.4519,-0.4519,-0.4519,-0.4519,-0.4515,-0.4419,-0.4429,-0.4546,-0.4711,-0.5128,0.0,0.0,-0.5214,-0.4619,-0.4451,-0.395,-0.3548,-0.4049,-0.3976,-0.3795,-0.3871,0.0,0.0,-0.1619,-0.1516,-0.2034,-0.4177,-0.5445,-0.6046,-0.5685,-0.6034,-0.6237,-0.5958,-0.5799,0.0,-0.6043,-0.5901,-0.5772,-0.5992,-0.5978,-0.6158,-0.6789,-0.6887,-0.7212,-0.8047,-0.8551,-0.8854,-0.8912,-0.8718,-0.8383,-0.7645,-0.8034,-0.7889,-0.6817,-0.7001,-0.7064,-0.7091,-0.3657,-0.1338,-0.0,0.3139,0.4578,0.4565,0.566,0.386,0.0179,0.3681,0.3229,-0.0,-0.0,0.1073,0.2946,0.5916,0.7094,0.7084,0.7068,0.7058,0.7139,0.2195,0.2073,0.2022,0.2174,0.2097,0.219,0.2743,0.3036,0.3376,0.3832,0.366,0.3177,0.2298,0.1978,0.1809,0.1798,0.1933,0.2064,0.2206,0.1008,-0.077,-0.3116,-0.3497,-0.4859,-0.7452,-0.7538,-0.7941,-0.8804,-0.8804,-0.8804,-0.8804,-0.8804,-0.8049,-0.6642,-0.6588,-0.5823,-0.4515,-0.4519,-0.4519,-0.4519,-0.4519,-0.4519,-0.4501,-0.4307,-0.4341,-0.4477,-0.4131,0.0,0.0,0.0,-0.5776,-0.5169,-0.459,-0.4132,0.0,-0.4116,-0.4171,0.0,0.0,0.0,-0.4539,-0.5097,-0.5224,-0.4807,-0.3183,-0.5459,-0.7756,-0.7195,-0.7952,-0.8533,-0.8021,-0.7237,-0.6717,-0.6839,-0.6257,-0.5847,-0.6003,-0.5895,-0.5803,-0.5871,-0.5751,-0.572,0.0,-0.6883,-0.7654,-0.7842,-0.7092,-0.6616,-0.6767,-0.6841,-0.6914,-0.7074,-0.7061,-0.7068,-0.7101,-0.692,-0.4567,0.0089,0.4777,0.6975,0.6949,0.4746,0.2322,-0.0,0.0179,0.009,-0.0,-0.0,-0.0,0.0537,0.5305,0.7115,0.7084,0.7084,0.7071,0.7139,0.245,0.2283,0.2173,0.2311,0.2222,0.2284,0.2725,0.3029,0.3311,0.3595,0.3564,0.0,0.0,0.0,0.0,0.0,0.1954,0.1699,0.0808,0.0708,-0.0352,-0.2775,-0.3825,-0.4901,-0.6134,-0.6847,-0.766,-0.8517,-0.8961,-0.9066,-0.8811,-0.9263,-0.8448,-0.6588,-0.6588,-0.5828,-0.4519,-0.4519,-0.4519,-0.4508,-0.4358,-0.4527,-0.4885,-0.4935,-0.4735,-0.4443,0.0,0.0,0.0,0.0,-0.5782,-0.5222,-0.4678,0.0,0.0,-0.391,0.0,0.0,0.0,0.0,-0.466,-0.525,-0.5398,-0.5459,-0.5582,-0.6546,-0.7395,-0.734,-0.7701,-0.7845,-0.7491,-0.7327,-0.7347,-0.7697,-0.7168,-0.6752,-0.712,-0.6492,-0.5952,-0.5952,-0.5748,0.0,0.0,0.0,0.0,-0.6795,-0.6565,-0.6486,-0.6649,-0.6873,-0.7031,-0.7094,-0.7088,-0.7091,-0.7101,-0.7118,-0.6305,-0.4672,0.1699,0.5576,0.7045,0.6284,0.5466,0.4491,0.1342,-0.0,-0.0,-0.0,-0.0,0.0179,0.1792,0.4306,0.7118,0.7101,0.7088,0.7071,0.2685,0.251,0.2374,0.246,0.2343,0.0,0.0,0.0,0.0,0.0,0.0,0.0,0.0,0.0,0.0,0.0,0.0,0.0771,-0.0566,-0.0,-0.0531,-0.2499,-0.3543,-0.451,-0.5394,-0.6263,-0.716,-0.8226,-0.8885,-0.9149,-0.9077,-0.932,-0.8545,-0.6965,-0.6758,-0.6029,-0.4983,-0.4983,-0.4983,-0.4971,-0.4696,-0.4923,-0.539,-0.5303,-0.5297,0.0,0.0,0.0,0.0,-0.5814,0.0,0.0,0.0,0.0,0.0,0.0,0.0,-0.4445,0.0,-0.3191,-0.4189,-0.5649,-0.6039,-0.6246,-0.7195,-0.7548,-0.7766,-0.7908,-0.8115,-0.8259,-0.8043,-0.7898,-0.7964,-0.8433,-0.7957,-0.7535,-0.7622,-0.6978,-0.6396,-0.603,-0.5795,-0.5792,0.0,0.0,0.0,-0.6264,-0.5875,-0.5945,-0.6649,-0.6127,-0.5816,-0.5824,-0.501,-0.4561,-0.4567,-0.4572,-0.4576,-0.4491,0.0981,0.4835,0.7121,0.7088,0.7091,0.6933,0.3307,0.152,0.1254,0.1254,0.1254,0.1165,0.0358,0.2865,0.7121,0.7118,0.6554,0.5994,0.2889,0.2746,0.2615,0.0,0.0,0.0,0.0,0.0,0.0,0.0,0.0,0.0,0.0,0.0,0.0,0.0,0.0,0.0,-0.1759,-0.1128,0.0,-0.2377,-0.282,-0.3704,-0.5222,-0.564,-0.6487,-0.7826,-0.8508,-0.9057,-0.9455,-0.8967,-0.835,-0.7621,-0.7115,-0.6496,-0.5871,-0.5828,-0.5828,-0.5808,-0.5455,-0.5535,-0.5873,-0.5484,0.0,0.0,0.0,0.0,0.0,0.0,0.0,0.0,0.0,0.0,0.0,0.0,0.0,-0.4562,-0.3661,-0.3143,-0.3492,-0.6388,-0.7109,-0.7227,-0.7892,-0.8406,-0.8784,-0.8804,-0.9275,-0.9633,0.0,0.0,-0.8562,-0.8995,-0.8607,-0.8048,-0.7432,-0.7425,-0.7146,0.0,0.0,0.0,0.0,0.0,0.0,-0.5967,0.0,-0.5186,-0.6632,-0.4882,-0.3653,-0.3392,-0.098,0.0357,0.0358,0.0357,0.0267,0.0179,0.2588,0.4919,0.7101,0.7074,0.7071,0.6996,0.5552,0.4472,0.3749,0.3753,0.3753,0.357,0.1251,0.304,0.6923,0.6943,0.5568,0.4107,0.0,0.0,0.0,0.0,0.0,0.0,0.0,0.0,0.0,0.0,0.0,0.0,0.0,0.0,0.0,0.0,0.0,0.0,0.0,0.0,0.0,0.0,0.0,-0.361,-0.4446,-0.4689,0.0,0.0,0.0,-0.8398,-0.899,-0.9362,-0.9031,-0.8135,-0.796,-0.7525,-0.6832,-0.6514,-0.6397,-0.6335,0.0,-0.5773,-0.6431,0.0,0.0,0.0,0.0,0.0,0.0,0.0,0.0,0.0,0.0,0.0,-0.4122,0.0,0.0,-0.4582,-0.464,-0.4678,-0.512,-0.6696,-0.6955,-0.7149,-0.831,-0.8719,-0.8818,-0.8813,-0.8915,-0.8998,-0.8941,0.0,0.0,-0.9982,-0.9756,0.0,-0.8539,-0.7983,0.0,0.0,0.0,-0.6198,-0.6433,-0.6548,0.0,0.0,-0.4246,-0.6192,-0.6919,-0.6477,-0.4574,-0.1072,0.3141,0.5315,0.5307,0.529,0.438,0.2677,0.5097,0.6542,0.7091,0.7272,0.7261,0.7098,0.6844,0.6542,0.6198,0.6201,0.6187,0.6189,0.5557,0.4924,0.4469,0.4474,0.5196,0.6281,0.0,0.0,0.0,0.0,0.0,0.0,0.0,0.0,0.0,0.0,0.0,0.0,0.0,0.0,0.0,0.0,0.0,0.0,0.0,0.0,0.0,0.0,0.0,-0.3548,-0.4282,-0.443,0.0,0.0,0.0,0.0,0.0,-0.822,-0.8043,-0.7503,-0.7396,-0.7214,-0.6959,-0.6756,0.0,0.0,0.0,0.0,0.0,0.0,0.0,0.0,0.0,0.0,0.0,0.0,0.0,-0.4283,-0.3727,-0.3365,-0.335,-0.4355,0.0,-0.4813,-0.5034,-0.5506,-0.6218,-0.7213,-0.7579,-0.787,-0.8938,-0.8999,-0.8745,-0.8468,-0.8424,0.0,0.0,0.0,0.0,0.0,0.0,0.0,-0.8679,-0.8123,-0.7463,0.0,-0.6468,0.0,-0.5173,-0.6329,-0.515,0.0,-0.2222,-0.4026,-0.5305,-0.6416,-0.5855,-0.3227,0.3504,0.7141,0.7115,0.7104,0.6459,0.5186,0.645,0.7121,0.7278,0.7343,0.7366,0.737,0.0,0.7386,0.7188,0.7269,0.7255,0.7265,0.7118,0.6308,0.516,0.5116,0.6005,0.6923,0.0,0.0,0.0,0.0,0.0,0.0,0.0,0.0,0.0,0.0,0.0,0.0,0.0,0.0,0.0,0.0,0.0,0.0,0.0,0.0,0.0,0.0,0.0,-0.3503,0.0,0.0,0.0,0.0,0.0,0.0,0.0,0.0,0.0,0.0,0.0,0.0,0.0,0.0,0.0,0.0,0.0,0.0,0.0,0.0,0.0,0.0,0.0,0.0,0.0,0.0,-0.4581,-0.4019,-0.2144,-0.1718,-0.2243,-0.3986,-0.4797,-0.5085,-0.5159,-0.583,-0.6789,-0.7767,-0.8296,-0.878,-0.946,-0.9172,-0.8571,-0.7888,0.0,0.0,-0.7018,0.0,-0.8265,-0.8587,0.0,-0.8766,-0.8274,-0.7959,-0.7447,-0.6642,-0.6644,-0.5852,-0.3806,-0.515,-0.4226,0.0625,0.0967,-0.0,-0.2084,-0.4084,-0.5397,-0.5668,0.2594,0.7115,0.7084,0.7091,0.7091,0.7081,0.7081,0.7161,0.74,0.74,0.7472,0.76,0.7641,0.0,0.7404,0.7421,0.7407,0.736,0.7244,0.7088,0.7077,0.7138,0.7098,0.6824,0.0,0.0,0.0,0.0,0.0,0.0,0.0,0.0,0.0,0.0,0.0,0.0,0.0,0.0,0.0,0.0,0.0,0.0,0.0,0.0,0.0,0.0,0.0,0.0,0.0,0.0,0.0,0.0,0.0,0.0,0.0,0.0,0.0,0.0,0.0,0.0,0.0,0.0,0.0,0.0,0.0,0.0,0.0,0.0,0.0,0.0,0.0,0.0,0.0,0.0,-0.3455,-0.2373,-0.0806,-0.0351,-0.0712,-0.2506,-0.403,-0.5108,-0.5291,-0.547,-0.6013,-0.7572,-0.7853,-0.8011,-0.9029,-0.8864,0.0,0.0,0.0,-0.678,-0.6613,-0.6868,0.0,-0.7606,0.0,0.0,0.0,0.0,-0.7283,0.0,0.0,0.0,0.0,0.0,0.0,0.0,0.0,0.491,0.2572,0.3844,0.3762,0.1783,0.5188,0.7091,0.7084,0.7068,0.7061,0.7058,0.7058,0.7227,0.738,0.7506,0.7577,0.7614,0.7855,0.0,0.757,0.7685,0.759,0.737,0.7346,0.7275,0.7091,0.7068,0.7071,0.6999,0.0,0.0,0.0,0.0,0.0,0.0,0.0,0.0,0.0,0.0,0.0,0.0,0.0,0.0,0.0,0.0,0.0,0.0,0.0,0.0,0.0,0.0,0.0,0.0,0.0,0.0,0.0,0.0,0.0,0.0,0.0,0.0,0.0,0.0,0.0,0.0,0.0,0.0,0.0,0.0,0.0,0.0,0.0,0.0,0.0,0.0,0.0,0.0,0.0,0.0,-0.333,-0.3004,-0.069,-0.0528,-0.1365,-0.2395,-0.3849,-0.5115,-0.5321,-0.5752,-0.64,-0.7702,-0.7954,-0.8173,-0.8809,0.0,0.0,0.0,0.0,-0.5617,-0.5257,0.0,0.0,0.0,0.0,0.0,0.0,0.0,0.0,0.0,0.0,0.0,0.0,0.0,0.0,0.0,0.0,0.6117,0.3749,0.5833,0.6563,0.5455,0.6539,0.7081,0.7068,0.7058,0.7139,0.7139,0.7139,0.7261,0.7492,0.7485,0.7563,0.7712,0.778,0.0,0.7604,0.7675,0.7617,0.7482,0.7404,0.7326,0.7251,0.717,0.7058,0.7068,0.0,0.0,0.0,0.0,0.0,0.0,0.0,0.0,0.0,0.0,0.0,0.0,0.0,0.0,0.0,0.0,0.0,0.0,0.0,0.0,0.0,0.0,0.0,0.0,0.0,0.0,0.0,0.0,0.0,0.0,0.0,0.0,0.0,0.0,0.0,0.0,0.0,0.0,0.0,0.0,0.0,0.0,0.0,0.0,0.0,0.0,0.0,0.0,0.0,0.0,-0.3407,-0.3817,-0.1566,-0.1482,-0.231,-0.2941,-0.4091,-0.5108,-0.5281,-0.5851,-0.6645,-0.7643,-0.8019,-0.8213,-0.8472,-0.7576,0.0,0.0,0.0,-0.4526,-0.4019,0.0,0.0,0.0,0.0,0.0,0.0,0.0,0.0,0.0,0.0,0.0,0.0,0.0,0.0,0.0,0.0,0.0,0.4994,0.6266,0.7177,0.7517,0.7255,0.7071,0.7139,0.7139,0.7139,0.7139,0.7139,0.7285,0.7546,0.7424,0.7516,0.776,0.7648,0.0,0.0,0.7638,0.7611,0.7543,0.7458,0.738,0.7309,0.719,0.7058,0.7058,0.0,0.0,0.0,0.0,0.0,0.0,0.0,0.0,0.0,0.0,0.0,0.0,0.0,0.0,0.0,0.0,0.0,0.0,0.0,0.0,0.0,0.0,0.0,0.0,0.0,0.0,0.0,0.0,0.0,0.0,0.0,0.0,0.0,0.0,0.0,0.0,0.0,0.0,0.0,0.0,0.0,0.0,0.0,0.0,0.0,0.0,0.0,0.0,0.0,0.0,0.0,-0.3263,-0.3462,-0.2906,-0.2538,-0.4163,0.0,0.0,-0.5152,-0.5319,-0.5847,-0.7206,-0.7355,-0.7307,-0.7535,0.0,0.0,0.0,-0.4362,-0.4004,-0.3704,-0.3821,0.0,0.0,0.0,0.0,0.0,0.0,0.0,0.0,0.0,0.0,0.0,0.0,0.0,0.0,0.0,0.0,0.8924,0.7768,0.758,0.8719,0.7669,0.7143,0.7139,0.7139,0.7139,0.7139,0.7139,0.7227,0.7394,0.738,0.7461,0.7617,0.7604,0.0,0.0,0.7664,0.7557,0.7407,0.7443,0.7322,0.716,0.7081,0.7081,0.7084,0.0,0.0,0.0,0.0,0.0,0.0,0.0,0.0,0.0,0.0,0.0,0.0,0.0,0.0,0.0,0.0,0.0,0.0,0.0,0.0,0.0,0.0,0.0,0.0,0.0,0.0,0.0,0.0,0.0,0.0,0.0,0.0,0.0,0.0,0.0,0.0,0.0,0.0,0.0,0.0,0.0,0.0,0.0,0.0,0.0,0.0,0.0,0.0,0.0,0.0,0.0,0.0,-0.3326,-0.332,0.0,0.0,-0.4521,-0.4802,-0.5199,-0.5317,-0.5607,-0.6593,-0.6612,-0.6513,-0.6692,0.0,0.0,-0.4299,-0.3621,-0.3174,-0.3075,-0.3115,-0.3137,0.0,-0.2952,-0.2564,0.0,0.0,0.0,0.0,0.0,0.0,0.0,0.0,0.0,0.0,0.0,0.0,1.012,0.8894,0.8364,0.889,0.7753,0.7139,0.7139,0.7139,0.7139,0.7139,0.7139,0.7221,0.7366,0.7275,0.7316,0.7458,0.7363,0.0,0.0,0.7546,0.7506,0.74,0.7472,0.7366,0.7084,0.7091,0.6183,0.5006,0.0,0.0,0.0,0.0,0.0,0.0,0.0,0.0,0.0,0.0,0.0,0.0,0.0,0.0,0.0,0.0,0.0,0.0,0.0,0.0,0.0,0.0,0.0,0.0,0.0,0.0,0.0,0.0,0.0,0.0,0.0,0.0,0.0,0.0,0.0,0.0,0.0,0.0,0.0,0.0,0.0,0.0,0.0,0.0,0.0,0.0,0.0,0.0,0.0,0.0,0.0,0.0,0.0,0.0,0.0,0.0,-0.3893,-0.3925,-0.4543,-0.5016,-0.5454,-0.6055,-0.6065,-0.5944,0.0,0.0,-0.4497,-0.3724,-0.3098,-0.263,-0.232,-0.229,-0.2181,-0.1853,-0.1416,-0.0705,0.0507,0.0,0.0,0.0,0.0,0.0,0.0,0.0,0.0,0.0,0.0,0.0,0.0,0.9836,0.9405,0.9405,0.7925,0.7139,0.7139,0.7139,0.7139,0.7139,0.7139,0.7197,0.7299,0.719,0.72,0.7295,0.7193,0.0,0.0,0.7299,0.692,0.623,0.5624,0.566,0.6189,0.6834,0.5193,0.2318,0.0,0.0,0.0,0.0,0.0,0.0,0.0,0.0,0.0,0.0,0.0,0.0,0.0,0.0,0.0,0.0,0.0,0.0,0.0,0.0,0.0,0.0,0.0,0.0,0.0,0.0,0.0,0.0,0.0,0.0,0.0,0.0,0.0,0.0,0.0,0.0,0.0,0.0,0.0,0.0,0.0,0.0,0.0,0.0,0.0,0.0,0.0,0.0,0.0,0.0,0.0,0.0,0.0,0.0,0.0,0.0,-0.3111,-0.2349,-0.2874,-0.4051,-0.5204,-0.5715,-0.5776,-0.5635,0.0,-0.4799,-0.4375,-0.3224,-0.2833,-0.2423,-0.1473,-0.1306,-0.0953,0.0205,0.0377,0.0813,0.2016,0.0,0.0,0.0,0.0,0.0,0.0,0.0,0.0,0.0,0.0,0.0,0.0,1.0611,1.0611,1.0611,0.8356,0.7139,0.7139,0.7139,0.7139,0.7139,0.7139,0.7139,0.7143,0.7139,0.7139,0.0,0.0,0.0,0.0,0.7099,0.5769,0.34,0.1006,0.1546,0.3931,0.6212,0.4119,-0.0623,0.0,0.0,0.0,0.0,0.0,0.0,0.0,0.0,0.0,0.0,0.0,0.0,0.0,0.0,0.0,0.0,0.0,0.0,0.0,0.0,0.0,0.0,0.0,0.0,0.0,0.0,0.0,0.0,0.0,0.0,0.0,0.0,0.0,0.0,0.0,0.0,0.0,0.0,0.0,0.0,0.0,0.0,0.0,0.0,0.0,0.0,0.0,0.0,0.0,0.0,0.0,0.0,0.0,0.0,0.0,-0.2441,-0.2803,0.0,-0.3375,-0.3849,-0.428,-0.4419,-0.451,-0.4422,-0.3809,-0.3708,-0.3578,-0.2926,-0.2245,-0.1847,-0.2192,-0.1244,-0.0283,0.0082,0.1517,0.0,0.0,0.0,0.0,0.0,0.0,0.0,0.0,0.0,0.0,0.0,0.0,0.0,0.0,0.9836,0.984,1.0611,0.8356,0.7139,0.7139,0.7139,0.7139,0.7139,0.7139,0.7139,0.7139,0.7139,0.7139,0.0,0.0,0.0,0.0,0.7082,0.6622,0.5578,0.1536,0.0451,0.0806,-0.1701,-0.3585,-0.5027,0.0,0.0,0.0,0.0,0.0,0.0,0.0,0.0,0.0,0.0,0.0,0.0,0.0,0.0,0.0,0.0,0.0,0.0,0.0,0.0,0.0,0.0,0.0,0.0,0.0,0.0,0.0,0.3117,0.0,0.0,0.0,0.0,0.0,0.0,0.0,0.0,0.0,0.0,0.0,0.0,0.0,0.0,0.1027,0.0,0.0,0.0,0.0,0.0,0.0,0.0,0.0,0.0,0.0,0.0,0.0,0.0,-0.2468,-0.3199,0.0,-0.3562,-0.3697,-0.3737,-0.3785,-0.3724,-0.3232,-0.3198,-0.32,-0.2778,-0.2222,-0.1782,-0.1686,-0.0773,-0.0,-0.0,0.1918,0.0,0.0,0.0,0.0,0.0,0.0,0.0,0.0,0.0,0.0,0.0,0.0,0.0,0.0,0.9323,0.9235,0.9923,0.8097,0.7139,0.7139,0.7139,0.7139,0.7139,0.7139,0.7139,0.7139,0.7139,0.7058,0.0,0.0,0.0,0.0,0.5126,0.4408,0.4137,0.1168,-0.0,-0.0359,-0.3326,-0.5584,-0.7135,0.0,0.0,0.0,0.0,0.0,0.0,0.0,0.0,0.0,0.0,0.0,0.0,0.0,0.0,0.0,0.0,0.0,0.0,0.0,0.0,0.0,0.0,0.0,0.0,0.0,0.4239,0.4239,0.3882,0.4354,0.4259,0.3633,0.4001,0.0,0.0,0.0,0.0,0.0,0.0,0.0,0.0,0.0,0.1854,0.0,0.0,0.0,0.0,0.0,0.0,0.0,0.0,0.0,0.0,0.0,0.0,0.0,0.0,0.0,0.0,0.0,-0.3233,-0.3302,-0.346,-0.3517,-0.3453,-0.3158,-0.3187,0.0,-0.2791,-0.2706,-0.2135,-0.034,-0.0,0.007,0.0274,0.0,0.0,0.0,0.0,0.0,0.0,0.0,0.0,0.0,0.0,0.0,0.0,0.0,0.0,0.0,0.889,0.889,0.889,0.7753,0.7139,0.7139,0.7139,0.7139,0.7139,0.7139,0.7139,0.7139,0.7139,0.7064,0.0,0.0,0.0,0.0,0.1976,-0.0,-0.0,-0.0,-0.0,-0.0,-0.0,-0.3054,-0.7135,0.0,0.0,0.0,0.0,0.0,0.0,0.0,0.0,0.0,0.0,0.0,0.0,0.0,0.0,0.0,0.0,0.0,0.0,0.0,0.0,0.0,0.0,0.0,0.0,0.0,0.503,0.5127,0.4789,0.5214,0.5231,0.4872,0.481,0.463,0.4328,0.0,0.0,0.0,0.0,0.0,0.0,0.2481,0.2328,0.0,0.0,0.0,0.0,0.1794,0.1616,0.0,0.0,0.0,0.0,0.0,0.0,0.0,0.0,-0.2037,-0.2174,-0.2525,0.0,-0.283,-0.271,-0.2782,-0.2903,0.0,-0.2965,-0.3075,-0.2747,0.0,-0.2152,-0.0337,-0.0,0.0768,0.0,0.0,0.0,0.0,0.0,0.0,0.0,0.0,0.0,0.0,0.0,0.0,0.0,0.0,0.0,0.0,0.889,0.889,0.889,0.7753,0.7139,0.7139,0.7139,0.7139,0.7139,0.7139,0.7139,0.7139,0.7139,0.7064,0.0,0.0,0.0,0.677,0.1976,-0.0,-0.0,-0.0,-0.0,-0.0,-0.0,-0.3048,-0.7135,0.0,0.0,0.0,0.0,0.0,0.0,0.0,0.0,0.0,0.0,0.0,0.0,0.0,0.0,0.0,0.0,0.0,0.0,0.0,0.0,0.0,0.0,0.0,0.0,0.0,0.5444,0.5654,0.5459,0.6001,0.6075,0.5708,0.5477,0.5062,0.0,0.0,0.0,0.0,0.0,0.0,0.0,0.2934,0.0,0.0,0.0,0.0,0.0,0.1794,0.1616,0.0,0.0964,0.0022,-0.1072,0.0,0.0,0.0,0.0,-0.1913,-0.193,-0.2089,-0.2342,-0.2556,-0.2553,-0.2621,-0.2646,-0.236,0.0,0.0,0.0,0.0,-0.1175,-0.0187,0.0,0.0,0.0,0.0,0.0,0.0,0.0,0.0,0.0,0.0,0.0,0.0,0.0,0.0,0.0,0.0,0.0,0.0,0.8101,0.8101,0.8101,0.7401,0.7139,0.7139,0.7139,0.7139,0.7139,0.7139,0.7139,0.7139,0.7139,0.7068,0.0,0.0,0.0,0.3687,0.1078,-0.0,-0.0,-0.0,-0.0,-0.0,-0.0,-0.1614,-0.3866,0.0,0.0,0.0,0.0,0.0,0.0,0.0,0.0,0.0,0.0,0.0,0.0,0.0,0.0,0.0,0.0,0.0,0.0,0.0,0.0,0.0,0.0,0.0,0.0,0.5203,0.5686,0.5948,0.602,0.6684,0.6784,0.0,0.0,0.5448,0.0,0.0,0.0,0.0,0.0,0.0,0.0,0.0,0.0,0.0,0.0,0.0,0.0,0.0,0.0,0.0,0.1391,0.0849,-0.0178,-0.1208,0.0,0.0,0.0,0.0,0.0,-0.1766,-0.2047,-0.2332,-0.2519,-0.241,-0.2214,-0.1971,0.0,0.0,0.0,0.0,0.0,0.0,0.0,0.0,0.0,0.0,0.0,0.0,0.0,0.0,0.0,0.0,0.0,0.0,0.0,0.0,0.0,0.0,0.0,0.0,0.7129,0.7139,0.7139,0.7139,0.7139,0.7139,0.7139,0.7139,0.7139,0.7139,0.7139,0.7139,0.7139,0.7071,0.7009,0.0,0.0,-0.0,-0.0,-0.0,-0.0,-0.0,-0.0,-0.0,-0.0,-0.0,-0.0,0.0,0.0,0.0,0.0,0.0,0.0,0.0,0.0,0.0,0.0,0.0,0.0,0.0,0.0,0.0,0.0,0.0,0.0,0.0,0.0,0.0,0.0,0.0,0.0,0.0,0.0,0.0,0.0,0.0,0.0,0.6899,0.7198,0.6012,0.3629,0.0,0.0,0.0,0.0,0.0,0.0,0.0,0.0,0.0,0.0,0.0,0.0,0.0,0.0,0.0,0.0426,0.0157,-0.0022,-0.0222,0.0,0.0,0.0,0.0,0.0,-0.167,-0.1841,-0.1898,-0.192,-0.1162,-0.0773,-0.2241,0.0,0.0,0.0,0.0,0.0,0.0,0.0,0.0,0.0,0.0,0.0,0.0,0.0,0.0,0.0,0.0,0.0,0.0,0.0,0.0,0.0,0.0,0.0,0.0,0.7075,0.7139,0.7139,0.7139,0.7139,0.7139,0.7139,0.7139,0.7139,0.7139,0.7139,0.7139,0.7139,0.7071,0.7009,0.0,0.2236,-0.0,-0.0,-0.0,-0.0,-0.0,-0.0,-0.0,-0.0,-0.0,-0.0,0.0,0.0,0.0,0.0,0.0,0.0,0.0,0.0,0.0,0.0,0.0,0.0,0.0,0.0,0.0,0.0,0.0,0.0,0.0,0.0,0.0,0.0,0.0,0.0,0.0,0.0,0.0,0.0,0.0,0.7439,0.7696,0.7232,0.5605,0.3043,0.0,0.0,0.0,0.0,0.0,0.3431,0.0,0.0,0.0,0.0,0.0,0.0,0.0,0.0,0.0,0.0,-0.0,-0.0,-0.0,0.0,0.0,0.0,0.0,0.0,-0.1647,-0.18,-0.126,0.1041,0.0798,-0.0178,-0.0855,0.0,0.0,0.0,0.0,0.0,0.0,0.0,0.0,0.0,0.0,0.0,0.0,0.0,0.0,0.0,0.0,0.0,0.0,0.0,0.0,0.0,0.0,0.0,0.6807,0.6946,0.7024,0.7024,0.7099,0.7139,0.7139,0.7139,0.7139,0.7139,0.7139,0.7139,0.7139,0.7139,0.7071,0.7009,0.0,0.2236,-0.0,-0.0,-0.0,-0.0,-0.0,-0.0,-0.0,-0.0,-0.0,-0.0,0.0,0.0,0.0,0.0,0.0,0.0,0.0,0.0,0.0,0.0,0.0,0.0,0.0,0.0,0.0,0.0,0.0,0.0,0.0,0.0,0.0,0.0,0.0,0.0,0.0,0.0,0.6372,0.6292,0.7047,0.7843,0.863,0.6713,0.4608,0.2459,0.0,0.0,0.0,0.0,0.3135,0.3163,0.0,0.0,0.0,0.0,0.0,0.0,0.0,0.0,0.0,0.0,0.0,0.0,0.0,0.0,0.0,-0.0,-0.0337,-0.0799,-0.1256,-0.1061,0.0096,0.3616,0.2648,0.0948,0.128,0.0,0.0,0.0,0.0,0.0,0.0,0.0,0.0,0.0,0.0,0.0,0.0,0.0,0.0,0.0,0.0,0.0,0.0,0.0,0.0,0.0,0.0,0.0,0.6647,0.6793,0.6875,0.6875,0.698,0.7037,0.7037,0.7075,0.7105,0.7139,0.7139,0.7139,0.7139,0.7139,0.7068,0.7005,0.4648,0.2235,-0.0,-0.0,-0.0,-0.0,-0.0,-0.0,-0.0,-0.0,-0.0,-0.0,0.0,0.0,0.0,0.0,0.0,0.0,0.0,0.0,0.0,0.0,0.0,0.0,0.0,0.0,0.0,0.0,0.0,0.0,0.0,0.0,0.0,0.0,0.0,0.0,0.0,0.6641,0.6979,0.6851,0.8073,0.9063,0.9691,0.5625,0.3045,0.1869,0.0,0.0,0.0,0.0,0.2529,0.3426,0.2919,0.0,0.0,0.0,0.0,0.0,0.0,0.0,0.0,0.0,0.0,0.0,0.0,0.0,-0.0,-0.0,-0.0022,-0.0071,-0.0115,0.1081,0.273,0.4154,0.3908,0.0,0.4068,0.4601,0.0,0.2794,0.0,0.0,0.0,0.0,0.0,0.0,0.0,0.0,0.0,0.0,0.0,0.0,0.0,0.0,0.0,0.0,0.0,0.0,0.0,0.0,0.6488,0.6634,0.6715,0.6715,0.6725,0.6732,0.6732,0.6871,0.701,0.7139,0.7139,0.7139,0.7139,0.7139,0.7064,0.6996,0.4645,0.2232,-0.0,-0.0,-0.0,-0.0,-0.0,-0.0,-0.0,-0.0,-0.0,-0.0,0.0,0.0,0.0,0.0,0.0,0.0,0.0,0.0,0.0,0.0,0.0,0.0,0.0,0.0,0.0,0.0,0.0,0.0,0.0,0.0,0.0,0.0,0.0,0.5005,0.5638,0.639,0.6988,0.7388,0.679,0.6296,0.588,0.4252,0.0,0.0,0.0,0.0,0.0,0.0,0.0,0.1337,0.1375,0.1383,0.0,0.0,0.0,0.0,0.0,0.0,0.0,0.0,0.1457,0.141,0.1185,0.0601,-0.0,-0.0,-0.0,-0.0,-0.0,0.1332,0.2891,0.3746,0.4049,0.0,0.0,0.4633,0.4973,0.4472,0.0,0.0,0.0,0.0,0.0,0.0,0.0,0.0,0.0,0.0,0.0,0.0,0.0,0.0,0.0,0.0,0.0,0.0,0.0,0.0,0.0,0.6478,0.6559,0.6559,0.6651,0.6702,0.6702,0.6759,0.6814,0.6868,0.7051,0.7139,0.7139,0.7139,0.7064,0.7084,0.6183,0.3576,-0.0,-0.0,-0.0,-0.0,-0.0,-0.0,-0.0,-0.0,-0.0,-0.0,0.0,0.0,0.0,0.0,0.0,0.0,0.0,0.0,0.0,0.0,0.0,0.0,0.0,0.0,0.0,0.0,0.0,0.0,0.0,0.0,0.0,0.0,0.0,0.4703,0.524,0.5912,0.665,0.7441,0.5961,0.4732,0.3731,0.0,0.0,0.0,0.0,0.0,0.0,0.0,0.0,-0.0554,-0.0266,0.0067,0.0,0.0,0.0,0.0,0.0,0.0,0.0,0.0,0.1794,0.1798,0.1798,0.123,0.049,0.0112,-0.0,-0.0,-0.0,0.0909,0.2159,0.3555,0.0,0.0,0.4252,0.463,0.5016,0.0,0.0,0.0,0.0,0.0,0.0,0.0,0.0,0.0,0.0,0.0,0.0,0.0,0.0,0.0,0.0,0.0,0.0,0.0,0.0,0.0,0.0,0.6352,0.6407,0.6407,0.6508,0.6563,0.6563,0.6607,0.6627,0.663,0.6881,0.7027,0.7075,0.7119,0.7061,0.7074,0.7094,0.4835,0.1072,0.0359,-0.0,-0.0,-0.0,-0.0,-0.0,-0.0,-0.0,-0.0,0.0,0.0,0.0,0.0,0.0,0.0,0.0,0.0,0.0,0.0,0.0,0.0,0.0,0.0,0.0,0.0,0.0,0.0,0.0,0.2706,0.2717,0.2976,0.3573,0.4138,0.468,0.5211,0.5952,0.6878,0.5955,0.5077,0.4255,0.2603,0.0,0.0,0.0,0.0,0.0,0.0,0.0,0.0,-0.1775,-0.1072,-0.0,0.0,0.0,0.0,0.0,0.0,0.0,0.0,0.1809,0.1798,0.1798,0.1801,0.1572,0.0359,-0.0,-0.0,0.0028,0.0032,0.0775,0.0,0.0,0.0,0.0,0.4977,0.5076,0.0,0.0,0.0,0.0,0.0,0.0,0.0,0.0,0.0,0.0,0.0,0.0,0.0,0.0,0.0,0.0,0.0,0.0,0.0,0.0,0.0,0.0,0.6338,0.6338,0.6338,0.6338,0.6338,0.6338,0.64,0.6471,0.6471,0.6624,0.678,0.6932,0.7075,0.7139,0.7143,0.7088,0.5735,0.3392,0.0986,-0.0,-0.0,-0.0,-0.0,-0.0,-0.0,-0.0,-0.0,0.0,0.0,0.0,0.0,0.0,0.0,0.0,0.0,0.0,0.0,0.0,0.0,0.0,0.0,0.0,0.0,0.0,0.0,0.0,0.0,0.2441,0.2716,0.3072,0.3533,0.4121,0.0,0.535,0.5638,0.5161,0.4665,0.0,0.0,0.0,0.2754,0.0,0.0,0.0,0.0,0.0,0.0,-0.0646,-0.0579,-0.0579,0.0,0.0,0.0,0.0,0.0,0.0,0.0,0.0,0.0,0.1798,0.1799,0.1571,0.0365,-0.0,0.0278,0.1564,0.2531,0.0,0.0,0.0,0.0,0.0,0.0,0.0,0.0,0.0,0.0,0.0,0.0,0.0,0.0,0.0,0.0,0.0,0.0,0.0,0.0,0.0,0.0,0.0,0.0,0.0,0.0,0.0,0.0,0.0,0.7326,0.7022,0.6338,0.6338,0.6338,0.6338,0.6302,0.6325,0.6325,0.6471,0.6675,0.6929,0.6973,0.7044,0.7143,0.7088,0.5735,0.3392,0.0986,-0.0,-0.0,-0.0,-0.0,-0.0,-0.0,-0.0,-0.0,0.0,0.0,0.0,0.0,0.0,0.0,0.0,0.0,0.0,0.0,0.0,0.3831,0.0,0.0,0.0,0.0,0.0,0.0,0.0,0.0,0.2348,0.2508,0.2873,0.3385,0.4055,0.4647,0.4777,0.0,0.0,0.0,0.0,0.0,0.3682,0.3321,0.0,0.219,0.0,0.0,0.0,0.0,0.0567,0.0196,-0.0495,0.0,0.0,0.0,0.0,0.0,0.0,0.0,0.0,0.0,0.1798,0.0,0.0938,0.0213,0.0995,0.2305,0.3181,0.0,0.0,0.0,0.0,0.0,0.0,0.0,0.0,0.0,0.0,0.0,0.0,0.0,0.0,0.0,0.0,0.0,0.0,0.0,0.0,0.0,0.0,0.0,0.0,0.0,0.0,0.0,0.0,0.0,0.0,0.8389,0.8089,0.748,0.748,0.7326,0.6872,0.6872,0.6718,0.6264,0.6346,0.6515,0.6749,0.681,0.6885,0.6883,0.6081,0.4328,0.203,0.0626,-0.0,-0.0,-0.0,-0.0,-0.0,-0.0,-0.0,-0.0,0.0,0.0,0.3612,0.3628,0.0,0.0,0.0,0.0,0.0,0.0,0.3868,0.3882,0.0,0.0,0.0,0.3444,0.0,0.0,0.0,0.0,0.2413,0.2413,0.2912,0.3539,0.4316,0.4489,0.4236,0.3494,0.3996,0.0,0.0,0.0,0.3783,0.422,0.0,0.2495,0.0,0.0,0.0,0.1876,0.1899,0.1241,0.0245,0.0128,0.0,0.0,0.0,0.0,0.0,0.0,0.0,0.0,0.1661,0.097,0.0138,0.0024,0.2414,0.5004,0.0,0.0,0.0,0.0,0.0,0.0,0.0,0.0,0.0,0.0,0.0,0.0,0.0,0.0,0.0,0.0,0.0,0.0,0.0,0.0,0.0,0.0,0.0,0.0,0.0,0.0,0.0,0.0,0.0,0.0,0.0,0.9437,0.9372,0.9296,0.9296,0.8846,0.7936,0.7931,0.7403,0.6412,0.6412,0.6485,0.6458,0.661,0.6688,0.6625,0.4709,0.2419,-0.0,-0.0,-0.0,-0.0,-0.0,-0.0,-0.0,-0.0,-0.0,-0.0,0.0,0.0,0.3651,0.3803,0.0,0.0,0.0,0.0,0.4044,0.3759,0.3921,0.3965,0.3751,0.3811,0.0,0.3581,0.3414,0.0,0.0,0.0,0.2559,0.2559,0.2821,0.3459,0.4521,0.4029,0.3681,0.3494,0.3612,0.0,0.0,0.0,0.0,0.3957,0.0,0.2852,0.0,0.0,0.0,0.4724,0.3856,0.3022,0.2157,0.111,0.1075,0.0,0.0,0.0,0.0,0.0,0.0,0.0,0.069,0.0865,0.122,0.0278,0.1552,0.3736,0.0,0.0,0.0,0.0,0.0,0.0,0.0,0.0,0.0,0.0,0.0,0.0,0.0,0.0,0.0,0.0,0.0,0.0,0.0,0.0,0.0,0.0,0.0,0.0,0.0,0.0,0.0,0.0,0.0,0.0,1.0199,1.0381,1.0115,0.9296,0.9296,0.9221,0.8998,0.8998,0.8466,0.0,0.748,0.7042,0.6312,0.6458,0.6597,0.6559,0.6179,0.3755,-0.0,-0.0,-0.0,-0.0,-0.0,-0.0,-0.0,-0.0,-0.0,-0.0,0.0,0.0,0.0,0.0,0.0,0.0,0.0,0.0,0.4082,0.3917,0.4015,0.3994,0.3723,0.3796,0.0,0.0,0.3394,0.3225,0.0,0.0,0.0,0.0,0.3501,0.3943,0.4451,0.3984,0.3631,0.3405,0.0,0.0,0.0,0.0,0.0,0.4246,0.0,0.3219,0.0,0.0,0.3508,0.4601,0.4141,0.3909,0.3706,0.2372,0.1829,0.1798,0.1798,0.0,0.0,0.0,0.0,0.0,0.0,0.0,0.1309,0.0965,0.1915,0.3695,0.0,0.0,0.0,0.0,0.0,0.0,0.0,0.0,0.0,0.0,0.0,0.0,0.0,0.0,0.0,0.0,0.0,0.0,0.0,0.0,0.0,0.0,0.0,0.0,0.0,0.0,0.0,0.0,0.0,1.144,1.0936,1.0997,1.0924,1.0539,1.0539,1.0376,1.004,1.004,0.9291,0.7783,0.7783,0.7249,0.6342,0.6335,0.642,0.6431,0.6518,0.4578,0.1427,0.0426,-0.0,-0.0,-0.0,-0.0,-0.0,-0.0,-0.0,-0.0,0.0,0.0,0.0,0.0,0.0,0.0,0.0,0.0,0.0,0.4131,0.4125,0.4029,0.3788,0.3781,0.3672,0.0,0.0,0.0,0.2953,0.0,0.0,0.0,0.4087,0.4323,0.4235,0.3917,0.3687,0.0,0.0,0.0,0.0,0.0,0.0,0.4588,0.0,0.0,0.0,0.2859,0.3027,0.3563,0.3763,0.4179,0.457,0.3368,0.2437,0.1794,0.1794,0.1791,0.1803,0.1876,0.0,0.0,0.0,0.0,0.1154,0.1658,0.2553,0.3954,0.0,0.0,0.0,0.0,0.0,0.0,0.0,0.0,0.0,0.0,0.0,0.0,0.0,0.0,0.0,0.0,0.0,0.0,0.0,0.0,0.0,0.0,0.0,0.0,0.0,0.0,0.0,0.0,0.0,1.1349,1.1349,1.1396,1.1543,1.1784,1.179,1.154,1.0875,1.0997,0.9974,0.7956,0.7689,0.7099,0.6338,0.6338,0.6338,0.6271,0.6334,0.5098,0.2918,0.0829,-0.0,-0.0,-0.0,-0.0,-0.0,-0.0,-0.0,0.0089,0.0,0.0,0.0,0.0,0.0,0.0,0.0,0.0,0.0,0.0,0.4221,0.4142,0.406,0.3906,0.3726,0.3573,0.3511,0.3353,0.0,0.0,0.0,0.0,0.3311,0.362,0.3939,0.3191,0.3295,0.0,0.0,0.0,0.0,0.0,0.0,0.4321,0.0,0.0,0.0,0.0,0.3055,0.3758,0.3612,0.3708,0.3864,0.3166,0.2454,0.1806,0.1806,0.1806,0.185,0.2209,0.2042,0.0,0.0,0.0,0.0,0.0,0.2373,0.0,0.0,0.0,0.0,0.0,0.0,0.0,0.0,0.0,0.0,0.0,0.0,0.0,0.0,0.0,0.0,0.0,0.0,0.0,0.0,0.0,0.0,0.0,0.0,0.0,0.0,0.0,0.0,0.0,1.0909,1.1049,1.1049,1.1289,1.1443,1.1483,1.1483,1.1434,1.1329,1.1585,1.0677,0.8621,0.7171,0.6416,0.6338,0.6338,0.6338,0.6264,0.6305,0.5102,0.2913,0.0896,-0.0,-0.0,-0.0,-0.0,-0.0,-0.0,-0.0,0.0612,0.0,0.0,0.0,0.0,0.0,0.0,0.0,0.0,0.0,0.0,0.0,0.4115,0.3894,0.3825,0.3732,0.356,0.352,0.0,0.0,0.0,0.0,0.0,0.0,0.2989,0.3166,0.2757,0.3139,0.0,0.0,0.0,0.0,0.502,0.4762,0.0,0.0,0.0,0.0,0.0,0.2567,0.2689,0.2945,0.31,0.3141,0.2754,0.2273,0.1812,0.1792,0.1894,0.2074,0.2394,0.2428,0.2293,0.2254,0.0,0.0,0.0,0.0,0.0,0.0,0.0,0.0,0.0,0.0,0.0,0.0,0.0,0.0,0.0,0.0,0.0,0.0,0.0,0.0,0.0,0.0,0.0,0.0,0.0,0.0,0.0,0.0,0.0,0.0,0.0,0.0,0.0,1.0681,1.0755,1.0755,1.0868,1.1015,1.1176,1.1182,1.1263,1.1423,1.1557,1.0685,0.8797,0.7497,0.6699,0.6338,0.6338,0.6338,0.6264,0.6278,0.5121,0.2936,0.0875,-0.0,-0.0,-0.0,-0.0,-0.0,-0.0,-0.0,0.0598,0.0,0.0,0.0,0.0,0.0,0.0,0.0,0.0,0.0,0.0,0.0,0.4069,0.3835,0.0,0.0,0.0,0.3482,0.0,0.0,0.0,0.0,0.0,0.0,0.0,0.2527,0.2562,0.0,0.0,0.0,0.0,0.6009,0.5595,0.5548,0.0,0.4266,0.0,0.0,0.0,0.0,0.1458,0.2027,0.234,0.2436,0.2134,0.2012,0.2012,0.1847,0.0,0.0,0.0,0.0,0.0,0.0,0.0,0.0,0.0,0.0,0.0,0.0,0.0,0.0,0.0,0.0,0.0,0.0,0.0,0.0,0.0,0.0,0.0,0.0,0.0,0.0,0.0,0.0,0.0,0.0,0.0,0.0,0.0,0.0,0.0,0.0,0.0,0.0,0.0,1.0624,1.0624,1.0624,1.0624,1.0661,1.0875,1.0882,1.0982,1.1202,1.0999,1.0327,0.9073,0.7847,0.7005,0.6579,0.6353,0.6224,0.6338,0.6274,0.5404,0.375,0.1641,0.0791,0.0805,0.0805,0.0814,0.0826,0.0826,0.0829,0.1333,0.0,0.0,0.0,0.0,0.0,0.0,0.0,0.0,0.0,0.0,0.0,0.4105,0.4075,0.3809,0.3605,0.3597,0.3419,0.0,0.0,0.0,0.0,0.0,0.0,0.0,0.0,0.0,0.0,0.0,0.0,0.0,0.6371,0.6286,0.6511,0.6928,0.4801,0.3019,0.1582,0.0,0.0,0.0412,0.0832,0.1345,0.1786,0.1192,0.168,0.2585,0.0,0.0,0.0,0.0,0.0,0.0,0.0,0.0,0.0,0.0,0.0,0.0,0.0,0.0,0.0,0.0,0.0,0.0,0.0,0.0,0.0,0.0,0.0,0.0,0.0,0.0,0.0,0.0,0.0,0.0,0.0,0.0,0.0,0.0,0.0,0.0,0.0,0.0,0.0,0.0,1.0624,1.0624,1.0624,1.0624,1.0631,1.0645,1.0645,1.0651,1.0665,0.9939,0.9649,0.9823,0.8004,0.7182,0.7208,0.6406,0.6122,0.6338,0.6274,0.6197,0.596,0.3828,0.2969,0.2973,0.2973,0.2976,0.2901,0.2901,0.2942,0.3324,0.0,0.0,0.0,0.0,0.0,0.0,0.0,0.0,0.0,0.0,0.0,0.0,0.0,0.3679,0.3506,0.3301,0.3213,0.0,0.0,0.0,0.0,0.0,0.0,0.0,0.0,0.0,0.0,0.0,0.0,0.4359,0.5618,0.5422,0.56,0.6019,0.4735,0.358,0.2503,0.1096,0.0,0.0,0.0423,0.0456,0.0628,0.0392,0.1064,0.2157,0.0,0.0,0.0,0.0,0.0,0.0,0.0,0.2606,0.2158,0.1869,0.0,0.0,0.0,0.0,0.0,0.0,0.0,0.0,0.0,0.0,0.0,0.0,0.0,0.0,0.0,0.0,0.0,0.0,0.0,0.0,0.0,0.0,0.0,0.0,0.0,0.0,0.0,0.0,0.0,0.0,0.0,1.0624,1.0624,1.0624,1.0624,1.0624,1.0624,1.0624,1.0624,1.0335,0.9987,0.9638,0.8953,0.8106,0.7169,0.6817,0.6478,0.6112,0.6115,0.6179,0.6278,0.5485,0.5171,0.5176,0.5176,0.5176,0.5176,0.5176,0.5126,0.5244,0.0,0.0,0.0,0.424,0.0,0.4238,0.4241,0.42,0.4137,0.4047,0.0,0.0,0.0,0.0,0.3365,0.2997,0.2922,0.2784,0.2518,0.0,0.0,0.0,0.0,0.0,0.0,0.0,0.0,0.0,0.0,0.0,0.0,0.4564,0.4875,0.5421,0.4493,0.3626,0.0,0.0,0.0,0.0694,0.0,0.0,0.0442,0.0,0.1467,0.0,0.0,0.0,0.0,0.0,0.0,0.0,0.0,0.2693,0.2022,0.185,0.1916,0.0,0.0,0.0,0.0,0.0,0.0,0.0,0.0,0.0,0.0,0.0,0.0,0.0,0.0,0.0,0.0,0.0,0.0,0.0,0.0,0.0,0.0,0.0,0.0,0.0,0.0,0.0,0.0,0.0,0.0,0.0,1.0329,1.0329,1.0314,1.0408,1.0571,1.0624,1.0624,1.0624,1.0328,0.9843,0.958,0.8907,0.7887,0.7333,0.6801,0.6316,0.6026,0.6074,0.6274,0.6274,0.6278,0.6285,0.6285,0.6285,0.6285,0.6285,0.6285,0.6285,0.4188,0.4256,0.4285,0.4285,0.4182,0.4134,0.4267,0.4073,0.3899,0.3902,0.0,0.0,0.0,0.0,0.0,0.2714,0.2568,0.2489,0.2479,0.199,0.0,0.0,0.0,0.0,0.0,0.0,0.0,0.0,0.0,0.0,0.0,0.0,0.4419,0.5271,0.4118,0.313,0.2303,0.0,0.1454,0.0519,0.0,0.1882,0.1421,0.0,0.0,0.0,0.5117,0.5161,0.0,0.0,0.0,0.0,0.0,0.2704,0.1813,0.1798,0.1816,0.0,0.0,0.0,0.0,0.0,0.0,0.0,0.0,0.0,0.0,0.0,0.0,0.0,0.0,0.0,0.0,0.0,0.0,0.0,0.0,0.0,0.0,0.0,0.0,0.0,0.0,0.0,0.0,0.0,0.9686,0.9686,0.9686,0.9686,0.9813,1.0094,1.0394,1.0611,1.0611,1.0618,1.0624,1.0561,0.9722,0.9397,0.9426,0.774,0.7034,0.707,0.6222,0.604,0.6247,0.6251,0.6254,0.6254,0.6335,0.6338,0.6338,0.6338,0.6338,0.6264,0.4136,0.406,0.4005,0.4005,0.3986,0.3949,0.3934,0.3913,0.3847,0.0,0.0,0.0,0.3413,0.3095,0.2731,0.2235,0.2246,0.2207,0.2002,0.1721,0.1491,0.1341,0.1389,0.0,0.0,0.0,0.0,0.0,0.0,0.0,0.0,0.0,0.0,0.0,0.3589,0.3298,0.2665,0.2665,0.0,0.0,0.3035,0.3139,0.0,0.0,0.0,0.0,0.0,0.5872,0.0,0.0,0.4946,0.3438,0.0,0.0,0.1926,0.1818,0.2111,0.2388,0.2061,0.0,0.0,0.0,0.0,0.0,0.0,0.0,0.0,0.0,0.0,0.0,0.0,0.0,0.0,0.0,0.0,0.0,0.0,0.0,0.0,0.0,0.0,0.0,0.0,0.0,0.0,0.0,0.9686,0.9686,0.9686,0.9686,0.9719,0.98,1.0087,1.0241,1.0241,1.0454,1.0624,1.0624,1.0371,0.9951,0.9309,0.8848,0.8046,0.6948,0.6672,0.6309,0.5939,0.6047,0.6095,0.6105,0.6217,0.6338,0.6264,0.6271,0.6274,0.6274,0.4012,0.3956,0.4025,0.4424,0.4479,0.4554,0.4734,0.4392,0.4104,0.0,0.0,0.0,0.3801,0.3627,0.3219,0.2413,0.2022,0.1814,0.1802,0.1507,0.1255,0.1084,0.1188,0.1296,0.0,0.0,0.0,0.0,0.0,0.0,0.0,0.0,0.0,0.1915,0.2461,0.2697,0.2728,0.2747,0.0,0.0,0.3574,0.0,0.0,0.51,0.5874,0.0,0.0,0.0,0.6287,0.6445,0.5364,0.0,0.0,0.2595,0.2217,0.226,0.2557,0.0,0.2379,0.0,0.0,0.0,0.0,0.0,0.0,0.0,0.0,0.0,0.0,0.0,0.0,0.0,0.0,0.0,0.0,0.0,0.0,0.0,0.0,0.0,0.0,0.0,0.0,1.1498,1.1121,1.021,1.017,1.0067,0.9743,0.9595,0.9613,0.9939,0.9955,1.0045,1.0335,1.0282,1.0254,1.0374,1.0374,1.0184,0.9786,0.9075,0.8234,0.7288,0.6558,0.6014,0.5637,0.5793,0.5884,0.5942,0.6115,0.6194,0.6173,0.627,0.5758,0.4851,0.0,0.3906,0.4182,0.5101,0.5255,0.5415,0.591,0.511,0.4502,0.0,0.4304,0.4172,0.4557,0.4576,0.4135,0.3059,0.1942,0.1419,0.1726,0.1345,0.1016,0.0813,0.0947,0.0962,0.0805,0.1032,0.0,0.0,0.0,0.0,0.0,0.0,0.0,0.0773,0.1136,0.1707,0.2377,0.2447,0.0,0.3192,0.3662,0.4532,0.0,0.0,0.6599,0.0,0.721,0.7384,0.7728,0.714,0.6015,0.0,0.0,0.357,0.2797,0.2903,0.3129,0.0,0.3029,0.3078,0.0,0.0,0.0,0.0,0.2901,0.2548,0.0,0.0,0.0,0.0,0.0,0.0,0.0,0.0,0.0,0.0,0.0,0.0,0.0,0.0,0.0,0.0,1.1864,1.1814,1.1516,1.0864,1.0813,1.0517,0.9969,0.9517,0.9562,1.0201,0.9862,0.9907,1.0521,0.9999,0.9813,1.0067,0.9946,1.0098,1.0312,0.8698,0.7941,0.7837,0.628,0.5502,0.5389,0.5388,0.5517,0.5783,0.5888,0.5832,0.5644,0.5663,0.4429,0.2478,0.3906,0.3906,0.4129,0.4853,0.4923,0.4993,0.5254,0.4958,0.4569,0.4126,0.4498,0.5056,0.5776,0.4918,0.4195,0.4026,0.2352,0.1325,0.1392,0.1265,0.0882,0.0207,0.0055,0.0055,0.0177,0.0231,0.0253,0.0,0.0,0.0,0.0,0.0,0.0,-0.01,0.0873,0.1191,0.1017,0.1507,0.0,0.3471,0.4066,0.0,0.6439,0.6207,0.6568,0.7162,0.7556,0.7502,0.7098,0.0,0.6446,0.6153,0.0,0.0,0.0,0.3361,0.0,0.4638,0.3662,0.4081,0.4465,0.2947,0.0,0.0,0.0,0.2234,0.0,0.0,0.0,0.0,0.0,0.0,0.0,0.0,0.0,0.0,0.0,0.0,0.0,0.0,0.0,0.0,1.1864,1.1814,1.1516,1.0864,1.0813,1.0762,1.061,1.0022,0.9754,0.9911,0.9487,0.9381,0.9486,0.9616,0.9713,0.9766,0.9166,0.8999,0.9118,0.8183,0.7614,0.7231,0.6902,0.625,0.5256,0.3845,0.4125,0.5527,0.5724,0.4971,0.3511,0.2045,0.1318,0.059,0.3862,0.4064,0.4441,0.5044,0.5257,0.541,0.561,0.5169,0.4731,0.4517,0.468,0.5029,0.5581,0.5278,0.474,0.3965,0.2972,0.2084,0.1351,0.114,0.0736,0.0033,-0.0229,-0.0384,-0.0454,-0.045,-0.0452,0.0,0.0,0.0,-0.0888,-0.0279,-0.0397,-0.1077,-0.0502,-0.016,0.0054,0.0,0.1736,0.2712,0.4057,0.0,0.6421,0.6539,0.6755,0.6967,0.6976,0.6699,0.6188,0.5857,0.5707,0.0,0.0,0.4562,0.4253,0.0,0.4104,0.4654,0.4183,0.4495,0.4736,0.3727,0.0,0.0,0.0,0.0,0.0,0.0,0.0,0.0,0.0,0.0,0.0,0.0,0.0,0.0,0.0,0.0,0.0,0.0,0.0,0.0,1.1986,1.2222,1.2039,1.1366,1.0965,1.0661,1.0312,0.9666,0.9465,0.9762,0.9259,0.8957,0.8931,0.8767,0.8627,0.8419,0.8011,0.8153,0.8607,0.7674,0.7332,0.745,0.5708,0.5104,0.5199,0.2476,0.0809,0.0205,0.215,0.2321,0.135,-0.0497,-0.172,-0.269,0.3726,0.4147,0.4641,0.5093,0.5502,0.5825,0.5976,0.5344,0.4913,0.5087,0.4867,0.4752,0.4924,0.5422,0.5146,0.3685,0.3216,0.2444,0.1136,0.0,0.0,-0.0384,-0.058,-0.0768,-0.0968,-0.0999,-0.0976,0.0,0.0,0.0,-0.0888,-0.0401,-0.0707,-0.1686,0.0,0.0,0.0,0.0,0.0,0.1208,0.0,0.4889,0.6145,0.6513,0.6658,0.6489,0.5685,0.539,0.5404,0.5037,0.0,0.4582,0.4875,0.4521,0.0,0.0,0.0,0.0,0.0,0.0,0.0,0.0,0.0,0.3,0.0,0.0,0.0,0.1891,0.0,0.0,0.0,0.0,0.0,0.0,0.0,0.0,0.0,0.0,0.0,0.0,0.0,0.0,0.0,1.2053,1.2042,1.1648,1.0805,1.0184,0.9784,0.8981,0.883,0.9377,0.8725,0.8408,0.8435,0.7931,0.7454,0.7028,0.6982,0.7417,0.8103,0.6566,0.6132,0.6392,0.3498,0.2849,0.3604,0.0663,-0.2466,-0.5065,-0.1805,-0.0745,-0.1244,-0.2699,-0.4152,-0.5399,0.3414,0.3834,0.4192,0.4313,0.4858,0.5281,0.5312,0.5179,0.5077,0.5098,0.5059,0.4874,0.0,0.0,0.0,0.0,0.0,0.0,0.0185,0.0,-0.0271,-0.188,-0.1755,-0.1524,-0.1261,-0.1377,-0.1258,-0.0896,0.0,0.0,-0.0899,-0.0832,-0.0968,-0.1287,-0.1639,0.0,0.0,0.0,-0.0812,0.0,0.0596,0.3264,0.0,0.565,0.5485,0.5247,0.3373,0.3839,0.5222,0.0,0.4536,0.4974,0.0,0.5341,0.529,0.0,0.0,0.0,0.0,0.0,0.0,0.0,0.4144,0.0,0.0,0.0,0.1862,0.0537,0.0,0.0,0.0,0.0,0.0,0.0,0.0,0.0,0.0,0.0,0.0,0.0,0.0,0.0,0.0,1.0003,1.0154,1.0839,0.9509,0.8959,0.9694,0.8443,0.777,0.787,0.7213,0.7085,0.7555,0.7453,0.7182,0.6648,0.6639,0.6717,0.6697,0.3946,0.2214,0.1231,0.0862,-0.0251,-0.1808,-0.2196,-0.3612,-0.5192,-0.3149,-0.3357,-0.48,-0.4998,-0.5209,-0.545,0.3158,0.3669,0.3979,0.3765,0.4514,0.5004,0.4565,0.4319,0.4175,0.4171,0.4183,0.0,0.0,0.0,0.0,0.0,0.0,-0.1183,0.0,0.0,-0.2185,-0.2922,-0.2839,-0.2413,-0.1608,-0.1638,-0.1415,-0.0904,-0.1138,0.0,0.0,-0.0973,-0.1136,-0.1549,-0.1728,0.0,-0.168,0.0,0.0,0.0,0.0,0.0,0.0,0.1901,0.254,0.2099,0.126,0.1536,0.2278,0.0,0.223,0.0,0.0,0.0,0.0,0.0,0.0,0.0,0.0,0.0,0.0,0.0,0.0,0.0,0.3064,0.0,0.1752,0.0,0.0,0.0,0.0,0.0,0.0,0.0,0.0,0.0,0.0,0.0,0.0,0.0,0.0,0.0,0.0,0.0,0.0,0.0,0.9624,0.9231,0.7967,0.7344,0.7045,0.7004,0.6756,0.6036,0.4798,0.4235,0.3517,0.2751,0.2762,0.279,0.2717,0.1474,0.0173,-0.1135,-0.2032,-0.2926,-0.377,-0.3893,-0.4408,-0.5117,-0.4378,-0.4626,-0.5382,-0.5372,-0.5369,-0.5376,0.2755,0.0,0.0,0.0,0.3964,0.4374,0.3531,0.3187,0.3101,0.3254,0.0,0.0,0.2577,0.2093,0.0,0.0,0.0,-0.2346,0.0,0.0,-0.3339,-0.3495,-0.3505,0.0,0.0,0.0,-0.1739,-0.1152,-0.1489,-0.1541,0.0,0.0,-0.1264,-0.172,0.0,-0.1901,-0.2057,0.0,0.0,-0.2657,-0.4276,-0.4976,-0.4737,-0.1901,-0.0861,-0.1021,-0.1195,-0.1082,-0.0872,-0.108,-0.0311,0.0,0.0518,0.0,0.0,0.0,0.0,0.0,0.1882,0.0,0.0,0.0,0.0,0.0,0.0,0.0,0.0,0.0,0.0,0.0,0.0,0.0,0.0,0.0,0.0,0.0,0.0,0.0,0.0,0.0,0.0,0.0,0.0,0.0,0.0,0.0,0.0,0.7269,0.5376,0.5056,0.49,0.4846,0.4837,0.3914,0.2148,0.1099,-0.0,-0.1217,-0.1217,-0.1219,-0.1222,-0.1222,-0.1804,-0.2894,-0.4007,-0.4503,-0.4572,-0.4689,-0.489,-0.5024,-0.5055,-0.5206,-0.5315,-0.5348,-0.5428,-0.5428,0.2185,0.2511,0.0,0.0,0.0,0.3169,0.2042,0.1865,0.2065,0.0,0.0,0.0,0.0,0.0,0.0,0.0,0.0,-0.1992,-0.0497,0.0,-0.2944,-0.3468,-0.3501,-0.348,0.0,0.0,-0.2314,-0.1765,-0.1978,-0.1804,0.0,0.0,0.0,0.0,-0.1706,-0.1955,-0.2225,-0.2523,-0.3316,-0.4317,-0.4118,-0.4187,-0.4478,0.0,-0.4446,-0.3592,-0.4288,0.0,0.0,-0.349,-0.2561,0.0,0.0,0.0,0.0,0.0,0.0,0.0,0.0,0.0,0.0,0.0855,0.0,0.0,0.0,0.0,0.3204,0.0,0.0,0.0,0.0,0.0,0.2874,0.2738,0.2724,0.0,0.0,0.0,0.0,0.0,0.0,0.0,0.0,0.0,0.0,0.0,0.0,0.0,0.1935,0.1069,0.0558,0.0421,0.0271,0.0166,0.0111,-0.0887,-0.2393,-0.4379,-0.4379,-0.4379,-0.4383,-0.4383,-0.4379,-0.4428,-0.4487,-0.4568,-0.4697,-0.4701,-0.4789,-0.4942,-0.5077,-0.5135,-0.5155,-0.5308,-0.5428,-0.5428,0.0,0.0,0.0,0.0,0.0,0.2846,0.0904,0.0604,0.0,0.0,0.0,0.0,0.0,0.0,-0.3709,0.0,0.0,-0.416,-0.3675,-0.3388,0.0,0.0,0.0,-0.3495,0.0,0.0,-0.2913,-0.2327,-0.2227,-0.205,0.0,0.0,0.0,0.0,0.0,-0.1191,0.0,0.0,0.0,0.0,0.0,-0.5307,-0.5508,0.0,0.0,-0.414,-0.4403,-0.4578,0.0,-0.4705,-0.4414,-0.4058,-0.4168,-0.37,-0.3202,-0.3645,-0.3285,-0.2799,0.0,0.0,-0.2371,-0.1189,0.0,0.0,0.0,0.0,0.0,0.0,0.0,0.0,0.0,0.0,0.3231,0.279,0.1542,0.0468,0.0,0.0,0.0,0.0,0.0,0.0,0.0,0.0,0.0,0.0,-0.1873,0.0,0.0,-0.2542,-0.2636,-0.2894,-0.2952,-0.2952,-0.295,-0.3289,-0.3852,-0.4473,-0.4473,-0.4473,-0.4473,-0.4473,-0.4473,-0.4522,-0.4522,-0.4553,-0.4594,-0.4594,-0.4629,-0.4772,-0.4819,-0.4958,-0.5148,-0.5304,-0.5428,-0.5428,0.0403,0.0,0.0,0.0,0.0,0.0,0.0,0.0,0.0,0.0,-0.2401,0.0,-0.3647,0.0,-0.546,0.0,-0.5964,-0.6809,-0.6176,-0.4905,0.0,-0.3509,-0.3909,0.0,0.0,0.0,-0.3052,-0.2703,-0.2363,-0.2135,0.0,0.0,0.0,0.0,0.0,0.0,0.0,0.0,-0.3375,0.0,0.0,-0.6157,0.0,0.0,-0.4913,-0.4778,0.0,-0.5298,-0.5303,-0.5303,-0.5415,-0.559,-0.5688,-0.549,-0.5315,-0.5747,-0.5418,-0.4939,-0.4907,-0.4895,0.0,-0.3028,-0.2217,0.0,-0.0421,0.0,0.0,0.0,0.0,0.0,0.0,0.0,0.2641,0.2061,0.0838,-0.0174,0.0,0.0,0.0,0.0,0.0,0.0,0.0,0.0,-0.1536,-0.2276,-0.3581,0.0,0.0,0.0,-0.4139,-0.4309,-0.4426,-0.448,-0.4473,-0.4473,-0.4525,-0.4519,-0.4519,-0.4519,-0.4519,-0.4519,-0.4519,-0.4519,-0.4519,-0.4519,-0.4519,-0.4519,-0.4577,-0.4616,-0.467,-0.4806,-0.4999,-0.5203,-0.5315,-0.5428,0.0,0.0,0.0,0.0,0.0763,0.0,0.0,0.0,-0.1934,0.0,-0.4939,-0.6979,-0.6979,-0.7105,-0.7147,-0.7147,-0.9093,0.0,-0.8059,-0.6387,0.0,0.0,-0.4844,-0.5432,-0.5427,0.0,0.0,0.0,0.0,0.0,0.0,0.0,0.0,0.0,-0.1798,0.0,-0.2216,-0.2761,-0.3559,-0.46,-0.6325,-0.6732,-0.6264,-0.6307,-0.5959,-0.5604,-0.6634,-0.6337,-0.5432,-0.5432,-0.5743,-0.6077,-0.6077,-0.6335,-0.6651,-0.6488,-0.6576,-0.66,-0.636,-0.6402,-0.6157,-0.472,-0.3997,0.0,0.0,0.0,-0.0308,0.0,0.0,0.0,0.0,0.0,0.0,0.0623,0.0494,-0.0086,0.0,0.0,0.0,0.0,0.0,0.0,0.0,0.0,-0.3017,-0.4289,-0.3769,0.0,0.0,0.0,-0.4149,-0.4048,-0.435,-0.4512,-0.4519,-0.4519,-0.4519,-0.4519,-0.4519,-0.4519,-0.4519,-0.4519,-0.4519,-0.4519,-0.4519,-0.4519,-0.4519,-0.4519,-0.4519,-0.4532,-0.4623,-0.4684,-0.4724,-0.502,-0.5226,-0.5428,-0.0916,-0.0112,0.0471,0.0,0.0202,-0.0403,0.0,0.0,0.0,0.0,-0.6441,-0.6979,-0.6979,-0.8488,-0.9469,-0.9469,-0.9952,0.0,0.0,0.0,0.0,-0.8509,-0.76,-0.7077,-0.707,-0.5034,0.0,-0.417,0.0,0.0,-0.2462,0.0,0.0,0.0,0.0,0.0,-0.1685,-0.1735,-0.2971,-0.5023,-0.6448,-0.7196,0.0,0.0,-0.7709,-0.775,-0.7203,-0.7091,-0.7231,-0.7231,-0.7333,-0.7392,-0.7392,-0.7413,-0.7385,-0.7376,-0.7376,-0.7323,-0.7246,-0.7656,-0.7877,-0.685,-0.5919,-0.5139,0.0,0.0,0.0,0.0,0.0,0.0,0.0,0.0,0.0,-0.0626,-0.1055,-0.178,0.0,0.0,0.0,0.0,0.0,0.0,0.0,-0.3462,-0.3912,-0.4351,-0.4625,0.0,0.0,0.0,-0.4496,-0.4498,-0.4349,-0.4355,-0.4515,-0.4519,-0.4519,-0.4519,-0.4519,-0.4519,-0.4519,-0.4519,-0.4519,-0.4519,-0.4519,-0.4519,-0.4519,-0.4519,-0.4519,-0.4522,-0.4563,-0.4589,-0.4724,-0.502,-0.5226,-0.5428,-0.1554,0.0,0.0,-0.1147,0.0,0.0,-0.1731,0.0,0.0,-0.678,-0.6979,0.0,-0.8325,-0.9549,-1.0649,-1.1505,-1.1579,0.0,-1.3142,0.0,0.0,-1.0284,-0.9365,-0.8648,-0.8278,-0.6679,0.0,-0.4602,0.0,0.0,-0.2294,0.0,0.0,0.0,0.0,-0.1514,0.0,-0.2716,-0.4161,-0.5825,-0.6935,0.0,0.0,-0.8341,-0.8667,-0.895,-0.8317,-0.817,-0.8216,-0.8119,-0.8164,-0.8228,-0.8131,-0.8366,-0.8613,-0.8613,-0.879,-0.9023,-0.9023,-0.9327,-0.9431,-0.8585,-0.7991,-0.7407,-0.6882,-0.656,-0.6096,0.0,-0.4904,-0.4443,0.0,0.0,0.0,0.0,0.0,0.0,0.0,0.0,0.0,0.0,0.0,0.0,-0.2897,-0.3483,-0.4034,-0.4382,-0.4709,0.0,0.0,0.0,0.0,-0.4291,-0.4238,-0.4317,-0.4515,-0.4519,-0.4519,-0.4519,-0.4519,-0.4519,-0.4519,-0.4519,-0.4519,-0.4519,-0.4519,-0.4519,-0.4519,-0.4519,-0.4519,-0.4519,-0.4519,-0.4555,-0.4711,-0.4877,-0.5074,-0.527,0.0,0.0,0.0,0.0,0.0,0.0,0.0,-0.4387,0.0,-0.668,0.0,-0.7927,-1.005,-1.0544,-1.1356,-1.3047,0.0,-1.3198,-1.3198,-1.3198,-1.2442,-1.0752,-1.0675,-1.0225,-0.9193,-0.8247,0.0,0.0,0.0,-0.291,-0.1953,0.0,0.0,0.0,0.0,0.0,0.0,-0.4651,-0.6066,-0.6724,-0.764,-0.8316,-0.8797,-0.8797,-0.9119,-0.9607,-0.9661,-0.935,-0.8832,-0.8598,-0.8731,-0.8907,-0.8721,-0.9264,-0.9909,-0.9909,-1.0415,-1.0914,-1.0914,-1.1015,-1.0906,-1.0148,-0.9987,-0.9733,-0.8761,-0.8072,-0.765,-0.7548,-0.6571,-0.5947,-0.655,0.0,0.0,0.0,0.0,0.0,0.0,0.0,0.0,0.0,0.0,0.0,0.0,-0.3436,-0.383,-0.4303,-0.4349,0.0,0.0,0.0,0.0,-0.377,-0.3979,-0.4267,-0.4433,-0.4508,-0.4519,-0.4519,-0.4519,-0.4519,-0.4519,-0.4519,-0.4519,-0.4519,-0.4519,-0.4519,-0.4519,-0.4519,-0.4519,-0.4519,-0.4519,-0.4545,-0.4663,-0.4684,-0.4853,-0.5098,0.0,0.0,0.0,0.0,0.0,-0.5735,-0.8415,-0.7602,-0.6446,-0.5685,-0.6747,-0.8261,-1.0089,-1.1715,-1.2826,-1.3163,-1.3198,0.0,0.0,0.0,0.0,-1.2712,-1.2685,-1.1884,-1.0196,-0.88,-0.7529,0.0,-0.4745,-0.3522,-0.2709,-0.2596,0.0,0.0,0.0,0.0,-0.4865,-0.5773,0.0,-0.7486,-0.823,-0.8878,-0.9359,-0.9359,-0.9677,-1.0205,-1.0553,-1.0298,-0.984,-0.9818,-0.9911,-1.0107,-1.0076,-1.0285,-1.0618,-1.0618,-1.1116,-1.1616,-1.1616,-1.2089,-1.2353,-1.1607,-1.1449,-1.1256,-1.0532,-1.0258,-0.9992,-0.9408,-0.8663,-0.7885,-0.7224,0.0,0.0,0.0,0.0,0.0,0.0,0.0,0.0,0.0,0.0,0.0,0.0,0.0,-0.4198,0.0,0.0,0.0,0.0,0.0,0.0,0.0,-0.3717,0.0,0.0,0.0,-0.4519,-0.4519,-0.4519,-0.4519,-0.4519,-0.4519,-0.4519,-0.4519,-0.4519,-0.4519,-0.4519,-0.4519,-0.4519,-0.4519,-0.4519,-0.4532,-0.4573,-0.4643,-0.4724,-0.4806,0.0,0.0,0.0,0.0,0.0,0.0,0.0,-0.9381,0.0,-0.7961,-0.9466,-1.0876,-1.1698,-1.265,-1.3198,-1.3198,-1.3198,-1.3198,-1.3198,-1.3198,-1.3198,-1.3198,-1.3194,0.0,-1.0944,-1.0222,-0.9013,-0.7269,-0.6253,-0.503,-0.3611,-0.3231,-0.2847,-0.2498,0.0,-0.4057,0.0,0.0,0.0,-0.8349,-0.8915,-0.9439,-0.9922,-0.9922,-1.0213,-1.0635,-1.084,-1.1224,-1.1543,-1.0883,-1.0738,-1.0798,-1.0647,-1.0922,-1.1316,-1.1316,-1.1832,-1.2344,-1.2344,-1.2618,-1.2822,-1.2452,-1.2344,-1.2295,-1.195,-1.1575,-1.1208,-1.0839,-1.0261,-0.9416,-0.829,-0.6972,0.0,0.0,0.0,0.0,0.0,0.0,0.0,0.0,0.0,0.0,0.0,0.0,0.0,0.0,0.0,0.0,0.0,0.0,-0.3496,0.0,0.0,0.0,-0.419,0.0,-0.4519,-0.4519,-0.4519,-0.4519,-0.4519,-0.4519,-0.4519,-0.4519,-0.4519,-0.4519,-0.4519,-0.4519,-0.4519,-0.4519,-0.4519,-0.4519,-0.4525,-0.4545,-0.4623,-0.4721,0.0,-0.5461,0.0,0.0,-0.8348,0.0,-1.0698,-1.0905,-1.0905,-1.0905,-1.2246,-1.3198,-1.3198,-1.3198,-1.3198,-1.3198,-1.3198,-1.3357,-1.3735,-1.3425,-1.3198,-1.3198,-1.3198,-1.2709,-1.1648,-1.1547,-1.0407,0.0,-0.765,-0.6457,-0.4639,-0.3968,-0.3619,-0.3536,0.0,0.0,0.0,0.0,-0.8333,-0.9618,-0.9887,-1.0312,-1.0801,-1.0801,-1.1075,-1.1418,-1.1561,-1.2339,-1.3176,-1.2256,-1.1959,-1.1874,-1.1559,-1.1805,-1.2209,-1.207,-1.2452,-1.2881,-1.2881,-1.2881,-1.2881,-1.2881,-1.2881,-1.2881,-1.2881,-1.2452,-1.203,-1.2049,-1.1334,-1.0312,-0.8942,-0.761,0.0,0.0,0.0,0.0,0.0,0.0,0.0,0.0,0.0,0.0,0.0,0.0,0.0,0.0,0.0,0.0,-0.3242,0.0,0.0,0.0,0.0,-0.4065,-0.4452,0.0,-0.457,-0.4736,-0.457,-0.4519,-0.4519,-0.4519,-0.4519,-0.4519,-0.4519,-0.4519,-0.4519,-0.4519,-0.4519,-0.4519,-0.468,-0.4736,-0.4732,-0.4897,-0.5039,-0.5117,0.0,0.0,0.0,0.0,0.0,0.0,-1.2906,-1.2943,-1.2943,-1.2943,-1.3094,-1.3198,-1.3198,-1.3198,-1.3198,-1.3198,-1.3198,-1.3868,-1.5448,-1.4084,-1.3198,-1.3198,-1.3198,-1.2953,-1.2413,-1.1995,-1.0993,0.0,0.0,-0.7066,-0.573,-0.4953,-0.4661,-0.487,-0.5688,0.0,0.0,-0.921,-1.0324,-1.156,-1.1568,-1.193,-1.2396,-1.2396,-1.2698,-1.323,-1.3647,-1.3902,-1.4048,-1.4293,-1.4345,-1.4264,-1.37,-1.3569,-1.3494,-1.2958,-1.2832,-1.2881,-1.2881,-1.2881,-1.2881,-1.2881,-1.2881,-1.2881,-1.2881,-1.2832,-1.2774,-1.2783,-1.1527,-0.9956,-0.8312,-0.7874,-0.75,0.0,0.0,0.0,0.0,0.0,0.0,0.0,0.0,0.0,0.0,0.0,0.0,0.0,0.0,0.0,0.0,0.0,0.0,-0.4099,-0.4144,-0.4566,-0.5376,-0.4774,-0.4787,-0.5378,-0.4787,-0.4519,-0.4519,-0.4519,-0.4519,-0.4519,-0.4519,-0.4519,-0.4519,-0.4519,-0.4519,-0.457,-0.5164,-0.5433,-0.5487,-0.615,-0.6436,-0.6405,0.0,0.0,0.0,0.0,0.0,0.0,0.0,-1.3198,-1.3674,-1.5001,-1.4012,-1.3198,-1.3198,-1.3198,-1.3198,-1.3198,-1.3198,-1.3934,-1.5697,-1.4181,-1.3198,-1.3198,-1.3198,-1.3129,-1.2908,-1.2734,-1.205,0.0,0.0,0.0,-0.7577,-0.7078,-0.7008,-0.7317,-0.7887,-0.8756,-0.985,-1.0699,-1.152,-1.2321,-1.2614,-1.289,-1.3071,-1.3071,-1.3376,-1.384,-1.4043,-1.4479,-1.5008,-1.5217,-1.5017,-1.4606,-1.4003,-1.3815,-1.3684,-1.3055,-1.2881,-1.2881,-1.2881,-1.2881,-1.2881,-1.2881,-1.2881,-1.2881,-1.2881,-1.2881,-1.2803,-1.2549,-1.1422,-1.0214,-0.9159,-0.838,-0.7722,-0.7238,0.0,0.0,0.0,0.0,0.0,0.0,0.0,0.0,0.0,0.0,0.0,0.0,0.0,-0.3478,-0.3462,-0.3625,0.0,-0.3961,0.0,-0.5061,-0.5504,-0.5686,-0.5878,-0.6145,-0.5878,-0.5773,-0.5773,-0.5773,-0.5773,-0.5773,-0.5773,-0.5773,-0.5773,-0.5773,-0.5773,-0.5769,-0.6041,-0.6145,-0.6199,-0.648,-0.6588,-0.6642,-1.4037,0.0,-1.4162,0.0,-1.4162,-1.3949,-1.3298,-1.3198,-1.3749,-1.5354,-1.4726,-1.3912,-1.3273,-1.3198,-1.3198,-1.3198,-1.3198,-1.3989,-1.5877,-1.4256,-1.3204,-1.321,-1.3183,0.0,-1.321,-1.3198,-1.2735,-1.1826,-1.1261,0.0,-0.9176,-0.8896,-0.8859,-0.9125,-0.9814,-1.0503,-1.1199,-1.2138,-1.2811,-1.3299,-1.3713,-1.3947,-1.4076,-1.4076,-1.4362,-1.4818,-1.4818,-1.5247,-1.5864,-1.5864,-1.5599,-1.5107,-1.4503,-1.4318,-1.4179,-1.3372,-1.3152,-1.3152,-1.2978,-1.2881,-1.2881,-1.2881,-1.2881,-1.2881,-1.2881,-1.2783,-1.2539,-1.1957,-1.1064,-1.0267,-0.9751,-0.8807,-0.7986,-0.7528,0.0,0.0,0.0,0.0,0.0,0.0,0.0,-0.4845,-0.5319,0.0,0.0,0.0,0.0,-0.3833,-0.3745,-0.393,0.0,0.0,0.0,0.0,-0.6094,-0.6406,-0.6696,-0.6912,-0.6696,-0.6588,-0.6588,-0.6588,-0.6588,-0.6588,-0.6588,-0.6588,-0.6588,-0.6588,-0.6588,-0.6642,-0.6858,-0.6912,-0.6966,-0.7182,-0.7235,-0.7343,-1.6015,-1.6471,-1.6471,-1.6471,-1.6471,-1.5702,-1.3523,-1.3198,-1.321,-1.3235,-1.5101,-1.5615,-1.3436,-1.3198,-1.3198,-1.3198,-1.3198,-1.4125,-1.6333,-1.4413,-1.3202,0.0,0.0,-1.3204,-1.321,-1.3198,-1.2922,-1.2404,0.0,0.0,-1.0367,-0.9968,-0.9793,-0.9861,-1.1251,-1.2175,-1.2745,-1.367,-1.4386,-1.4864,-1.4864,-1.5203,-1.568,-1.568,-1.5978,-1.6466,-1.6466,-1.6466,-1.6479,-1.6479,-1.6466,-1.638,-1.5776,-1.5588,-1.5365,-1.4133,-1.3779,-1.3637,-1.3055,-1.2881,-1.2881,-1.2881,-1.2881,-1.2881,-1.2881,-1.2549,-1.1976,-1.108,-1.0483,-0.9992,-0.9577,-0.9052,-0.8411,-0.756,0.0,0.0,0.0,0.0,0.0,0.0,-0.5166,-0.4927,-0.5282,0.0,0.0,0.0,0.0,-0.4794,-0.4794,0.0,0.0,-0.5657,-0.6133,0.0,-0.7468,-0.6917,-0.6966,-0.767,-0.6966,-0.6588,-0.6588,-0.6588,-0.6588,-0.6588,-0.6588,-0.6588,-0.6588,-0.6588,-0.6588,-0.6696,-0.7396,-0.767,-0.7777,-0.848,-0.8752,-0.8752,-1.6384,-1.6522,-1.6522,-1.6522,-1.6522,-1.6283,-1.5539,-1.6699,-1.7627,-1.7627,-1.8241,-1.8427,-1.7713,-1.6332,-1.5439,0.0,-1.4062,-1.4137,0.0,-1.5819,-1.5447,-1.5452,-1.3994,-1.3544,-1.435,-1.4088,-1.3827,-1.3569,0.0,0.0,-1.1753,-1.1628,-1.1976,-1.2734,-1.3214,-1.3717,-1.4225,-1.4906,-1.5296,-1.5467,-1.5844,-1.6095,-1.6258,-1.6258,-1.6358,-1.6522,-1.6522,-1.6522,-1.6522,-1.6522,-1.6522,-1.6466,-1.6281,-1.5644,-1.4835,-1.405,-1.3505,-1.3152,-1.2978,-1.2881,-1.2881,-1.2881,-1.2881,-1.2881,-1.2881,-1.2305,-1.1714,-1.1449,-1.0784,-1.0079,-0.9607,-0.9349,-0.8913,-0.7904,-0.7811,0.0,-0.6588,0.0,0.0,0.0,-0.5525,-0.5294,0.0,-0.5287,0.0,0.0,0.0,0.0,0.0,0.0,0.0,0.0,-0.6544,0.0,-0.7513,-0.7892,-0.8209,-0.8427,-0.8209,-0.8103,-0.8103,-0.8103,-0.8103,-0.8103,-0.8103,-0.8103,-0.8103,-0.8103,-0.8103,-0.8103,-0.8374,-0.8427,-0.848,-0.8699,-0.8804,-0.8804,-1.7706,-1.7706,-1.7706,-1.7706,-1.7706,-1.7706,-1.7706,-1.8855,-1.969,-1.969,-1.969,-1.969,-1.969,-1.8496,0.0,-1.6552,-1.5226,-1.5014,-1.6421,-1.6522,-1.6522,-1.6522,-1.5184,-1.4757,-1.5479,-1.5248,0.0,-1.4587,-1.4072,-1.3672,-1.3333,-1.3333,-1.3732,-1.4412,-1.4614,-1.489,-1.5255,-1.5768,-1.6007,-1.6032,-1.6384,-1.6522,-1.6522,-1.6522,-1.6522,-1.6522,-1.6522,-1.6522,-1.6522,-1.6522,-1.6522,-1.6522,-1.6522,-1.5656,-1.4606,-1.4236,-1.3873,-1.3478,-1.3017,-1.2881,-1.2881,-1.2881,-1.2881,-1.2842,-1.2676,-1.208,-1.1561,-1.136,-1.0795,-1.0215,-0.9867,-0.9809,-0.943,-0.8382,-0.8216,-0.7859,-0.6838,0.0,0.0,0.0,0.0,0.0,0.0,-0.6083,-0.5897,0.0,0.0,0.0,0.0,0.0,-0.5731,-0.5772,-0.6987,-0.7642,-0.7642,-0.8417,-0.8804,-0.8804,-0.8804,-0.8804,-0.8804,-0.8804,-0.8804,-0.8804,-0.8804,-0.8804,-0.8804,-0.9061,-0.9159,-0.9211,-0.9458,-0.9562,-0.9562,-0.9562,-0.9413,-0.9159,-1.969,-1.969,-1.969,-1.969,-1.969,-1.969,-1.969,-1.969,-1.969,-1.969,-1.969,-1.969,-1.969,-1.9566,-1.8727,-1.6879,0.0,0.0,-1.6522,-1.6522,-1.6522,-1.6522,-1.6522,-1.6485,-1.6506,-1.6493,-1.6179,-1.5466,-1.5081,-1.4916,-1.4928,-1.4928,-1.4941,-1.4991,-1.5467,-1.5718,-1.5781,-1.6308,-1.6522,-1.6522,-1.6522,-1.6522,-1.6522,-1.6522,-1.6522,-1.6522,-1.6522,-1.6522,-1.6522,-1.6522,-1.6522,-1.6522,-1.6522,-1.5744,-1.4789,-1.4698,-1.4652,-1.4387,-1.3296,-1.2968,-1.3017,-1.2968,-1.2929,-1.2773,-1.2363,-1.1904,-1.1489,-1.1035,-1.0596,-1.0283,-1.0283,-1.0283,-0.9939,-0.8882,-0.8772,-0.8317,-0.7003,-0.6893,0.0,0.0,0.0,0.0,-0.7148,-0.711,-0.7187,0.0,0.0,0.0,0.0,0.0,-0.6068,-0.66,-0.7475,-0.7895,-0.7915,-0.8524,-0.8804,-0.8804,-0.8804,-0.8804,-0.8804,-0.8804,-0.8804,-0.8804,-0.8804,-0.8804,-0.891,-0.9562,-0.9814,-0.9909,-1.0568,-1.0813,-1.0813,-1.0813,-1.0415,-0.9865,0.0,0.0,-1.969,-1.969,-1.969,-1.969,-1.969,-1.969,-1.969,-1.969,-1.969,-1.969,-1.969,-1.8263,-1.7706,-1.8855,-1.7463,-1.6522,-1.6522,-1.6522,-1.6522,-1.6522,-1.6522,-1.6489,-1.6494,-1.6494,-1.6424,-1.6253,-1.5336,-1.5043,-1.5261,-1.5261,-1.5348,-1.5505,-1.563,-1.5932,-1.6333,-1.6459,-1.6522,-1.6522,-1.6522,-1.6522,-1.6522,-1.6522,-1.6522,-1.6522,-1.6522,-1.6522,-1.6522,-1.6522,-1.6522,-1.6522,-1.6522,-1.6293,-1.5876,-1.4971,-1.4376,-1.3956,-1.3637,-1.392,-1.4154,-1.3695,-1.3238,-1.2852,-1.2754,-1.2165,-1.1577,-1.1469,-1.0851,-1.0283,-1.0283,-1.0283,-0.9962,-0.8941,-0.8774,-0.8349,-0.7053,-0.7209,0.0,0.0,-0.7374,-0.7636,-0.7636,-0.782,-0.7764,0.0,0.0,0.0,-0.6952,-0.6951,-0.6962,-0.6907,-0.753,-0.8036,-0.827,-0.8624,-0.8804,-0.8804,-0.8804,-0.8804,-0.8804,-0.8804,-0.8804,-0.8804,-0.8804,-0.9106,-0.9562,-0.971,-1.0115,-1.0568,-1.0762,-1.0813,-1.0813,-1.0813,-1.0712,-1.0568,-1.969,-1.969,-1.969,-1.969,-1.969,-1.969,-1.969,-1.969,-1.969,-1.969,-1.969,-1.969,-1.969,-1.865,-1.8027,-1.8224,-1.7146,-1.6522,-1.6522,-1.6522,-1.6522,-1.6522,-1.6522,-1.6522,-1.6522,-1.6522,-1.6519,-1.651,-1.5913,-1.5737,-1.5894,-1.5894,-1.598,-1.607,-1.607,-1.6233,-1.6522,-1.6522,-1.6522,-1.6522,-1.6522,-1.6522,-1.6522,-1.6522,-1.6522,-1.6522,-1.6522,-1.6522,-1.6522,-1.6522,-1.6522,-1.6522,-1.6522,-1.6293,-1.5964,-1.5276,-1.4869,-1.4538,-1.4283,-1.4468,-1.4571,-1.3956,-1.3552,-1.3238,-1.2968,-1.2353,-1.1797,-1.1421,-1.0964,-1.0508,-1.0312,-1.0283,-0.9962,-0.8941,-0.899,-0.8759,-0.7652,-0.7913,-0.8165,-0.7997,-0.8369,-0.8639,-0.8639,-0.8732,-0.8671,-0.8334,-0.8383,0.0,-0.7448,-0.7529,-0.7426,-0.7014,-0.757,-0.8009,-0.817,-0.8591,-0.8804,-0.8804,-0.8804,-0.8804,-0.8804,-0.8804,-0.8962,-0.9263,-0.9263,-0.9666,-1.0261,-1.0568,-1.0914,-1.1266,-1.1633,-1.1742,-1.1742,-1.1742,-1.1534,-1.1258,-1.969,-1.969,-1.969,-1.969,-1.969,-1.969,-1.969,-1.969,-1.969,-1.969,-1.969,-1.969,-1.969,-1.969,-1.8968,-1.7146,-1.668,-1.6522,-1.6522,-1.6522,-1.6522,-1.6522,-1.6522,-1.6522,-1.6522,-1.6522,-1.6522,-1.6522,-1.6522,-1.6522,-1.6522,-1.6522,-1.6522,-1.6522,-1.6522,-1.6522,-1.6522,-1.6522,-1.6522,-1.6522,-1.6522,-1.6522,-1.6522,-1.6522,-1.6522,-1.6522,-1.6522,-1.6522,-1.6522,-1.6522,-1.6522,-1.6522,-1.6522,-1.6139,-1.5732,-1.5732,-1.5732,-1.5588,-1.5017,-1.4744,-1.456,-1.405,-1.3779,-1.3552,-1.3017,-1.2549,-1.1989,-1.1299,-1.1035,-1.0781,-1.0361,-1.0283,-0.9962,-0.898,-0.9253,-0.9267,-0.8347,0.0,-0.9092,-0.9081,-0.9471,-0.969,-0.969,-0.9676,-0.9637,-0.9637,-0.9119,-0.8602,-0.8036,-0.8036,-0.7739,-0.7147,-0.7659,-0.7997,-0.8085,-0.8684,-0.891,-0.8804,-0.8804,-0.8804,-0.8804,-0.891,-0.9263,-0.9814,-0.9917,-1.0312,-1.1015,-1.1566,-1.1873,-1.203,-1.2666,-1.2881,-1.2881,-1.2881,-1.2501,-1.1913,-1.969,-1.969,-1.969,-1.969,-1.969,-1.969,-1.969,-1.969,-1.969,-1.969,-1.969,-1.969,-1.969,-1.969,-1.9566,-1.9244,-1.7544,-1.6522,-1.6522,-1.6522,-1.6522,-1.6522,-1.6522,-1.6522,-1.6522,-1.6522,-1.6522,-1.6522,-1.6522,-1.6522,-1.6522,-1.6522,-1.6522,-1.6522,-1.6522,-1.6522,-1.6522,-1.6522,-1.6522,-1.6522,-1.6522,-1.6522,-1.6522,-1.6522,-1.6522,-1.6522,-1.6522,-1.6522,-1.6522,-1.6522,-1.6522,-1.6522,-1.6522,-1.6423,-1.638,-1.638,-1.638,-1.6238,-1.5632,-1.5107,-1.4698,-1.456,-1.3789,-1.3017,-1.2929,-1.2549,-1.2054,-1.1641,-1.1201,-1.0781,-1.0361,-1.0283,-1.0011,-0.9104,-0.9328,-0.9318,-0.8477,0.0,-0.9507,-0.95,-0.9894,-1.0186,-1.0186,-1.0167,-1.0166,-1.0166,-0.9677,-0.9159,-0.8602,-0.8553,-0.8316,-0.7787,-0.8063,-0.847,-0.9016,-0.9431,-0.9361,-0.8804,-0.8804,-0.8804,-0.8804,-0.9361,-0.9718,-0.9814,-1.0415,-1.1015,-1.1665,-1.1765,-1.2187,-1.2725,-1.2881,-1.2881,-1.2881,-1.2881,-1.2832,-1.2715,-1.969,-1.969,-1.969,-1.969,-1.969,-1.969,-1.969,-1.969,-1.969,-1.969,-1.969,-1.969,-1.969,-1.969,-1.969,-1.969,-1.8779,-1.8224,-1.8224,-1.7146,-1.6522,-1.6522,-1.6522,-1.6522,-1.6522,-1.6522,-1.6522,-1.6522,-1.6522,-1.6522,-1.6522,-1.6522,-1.6522,-1.6522,-1.6522,-1.6522,-1.6522,-1.6522,-1.6522,-1.6522,-1.6522,-1.6522,-1.6522,-1.6522,-1.6522,-1.6522,-1.6522,-1.6522,-1.6522,-1.6522,-1.6522,-1.6522,-1.6522,-1.6522,-1.6522,-1.6522,-1.6522,-1.6423,-1.6151,-1.5876,-1.5611,-1.5287,-1.4789,-1.4089,-1.3128,-1.3264,-1.3299,-1.2519,-1.2246,-1.1858,-1.0848,-1.0681,-1.0464,-0.9856,-1.0098,-1.0245,-0.9898,-1.0381,-1.0695,-1.0392,-1.0555,-1.0572,-1.0322,-1.0283,-1.0283,-1.0283,-1.0079,-0.9677,-0.9159,-0.9119,-0.8878,-0.8357,-0.8606,-0.9072,-0.9712,-0.9917,-0.9988,-0.9865,-0.9865,-0.9865,-0.9865,-1.0218,-1.0517,-1.0914,-1.1216,-1.1724,-1.2393,-1.2393,-1.2608,-1.2881,-1.2881,-1.2881,-1.2881,-1.2881,-1.2881,-1.2881,-1.969,-1.969,-1.969,-1.969,-1.969,-1.969,-1.969,-1.969,-1.969,-1.969,-1.969,-1.969,-1.969,-1.969,-1.969,-1.969,-1.969,-1.969,-1.969,-1.7706,-1.6522,-1.6522,-1.6494,-1.6523,-1.6509,-1.6519,-1.6519,-1.6522,-1.6522,-1.6522,-1.6522,-1.6522,-1.6522,-1.6522,-1.6522,-1.6522,-1.6522,-1.6522,-1.6522,-1.6522,-1.6522,-1.6522,-1.6522,-1.6522,-1.6522,-1.6522,-1.6522,-1.6522,-1.6522,-1.6522,-1.6522,-1.6522,-1.6522,-1.6522,-1.6522,-1.6522,-1.6522,-1.6522,-1.6522,-1.638,-1.6194,-1.572,-1.5499,-1.5015,-1.3651,-1.3943,-1.4228,-1.324,-1.3025,-1.2622,-1.1394,-1.1189,-1.1033,-1.0631,0.0,-1.1157,-1.1102,-1.1489,-1.1579,-1.1057,-1.1019,-1.0829,-1.0361,-1.0283,-1.0283,-1.0283,-1.0166,-0.9922,-0.9518,-0.9518,-0.9359,-0.9079,-0.9232,-0.9609,-1.0123,-1.0345,-1.0523,-1.0647,-1.078,-1.0813,-1.0813,-1.0965,-1.1316,-1.1814,-1.1972,-1.2393,-1.2881,-1.2881,-1.2881,-1.2881,-1.2881,-1.2881,-1.2881,-1.2881,-1.2881,-1.2881,-1.969,-1.969,-1.969,-1.969,-1.969,-1.969,-1.969,-1.969,-1.969,-1.969,-1.969,-1.969,-1.969,-1.969,-1.969,-1.969,-1.969,-1.969,-1.969,-1.7706,-1.6522,-1.6522,-1.6518,-1.649,-1.6497,-1.6488,-1.6517,-1.6522,-1.6522,-1.6522,-1.6522,-1.6522,-1.6522,-1.6522,-1.6522,-1.6522,-1.6522,-1.6522,-1.6522,-1.6522,-1.6522,-1.6522,-1.6522,-1.6522,-1.6522,-1.6522,-1.6522,-1.6522,-1.6522,-1.6522,-1.6522,-1.6522,-1.6522,-1.6522,-1.6522,-1.6522,-1.6522,-1.6522,-1.6522,-1.6095,-1.5676,-1.5632,-1.5186,-1.4744,-1.4619,-1.4239,-1.3826,-1.329,-1.278,-1.2313,-1.1838,-1.1748,-1.1592,-1.1101,0.0,0.0,-1.1148,-1.1507,-1.1579,-1.1057,-1.1019,-1.0829,-1.0361,-1.0283,-1.0283,-1.0283,-0.9843,-0.9558,-0.9518,-0.9518,-0.9725,-1.0166,-1.0063,-0.9998,-0.9933,-1.073,-1.082,-1.0229,-1.0606,-1.0813,-1.0813,-1.1466,-1.1765,-1.1814,-1.251,-1.2832,-1.2881,-1.2881,-1.2881,-1.2881,-1.2881,-1.2881,-1.2881,-1.2881,-1.2881,-1.2881,-1.969,-1.969,-1.969,-1.969,-1.969,-1.969,-1.969,-1.969,-1.969,-1.969,-1.969,-1.969,-1.969,-1.969,-1.969,-1.969,-1.969,-1.969,-1.969,-1.893,-1.8496,-1.8496,-1.8475,-1.8483,-1.8482,-1.7183,-1.6734,-1.7196,-1.6705,-1.6522,-1.6522,-1.6522,-1.6522,-1.6522,-1.6522,-1.6522,-1.6522,-1.6522,-1.6522,-1.6522,-1.6522,-1.6522,-1.6522,-1.6522,-1.6522,-1.6522,-1.6522,-1.6522,-1.6522,-1.6522,-1.6522,-1.6522,-1.6522,-1.6522,-1.6522,-1.6522,-1.6522,-1.6522,-1.6522,-1.6324,-1.6151,-1.6151,-1.5964,-1.5832,-1.5832,-1.5644,-1.5181,-1.4113,-1.3906,-1.361,-1.2434,-1.2246,-1.2188,-1.199,0.0,-1.2248,-1.2373,-1.2307,-1.2066,-1.1542,-1.1207,-1.0829,-1.0361,-1.0283,-1.0283,-1.0283,-1.0118,-1.0,-1.0,-1.0,-1.0088,-1.0283,-1.0232,-1.0312,-1.0526,-1.0837,-1.1032,-1.1067,-1.148,-1.1673,-1.1682,-1.2231,-1.2501,-1.251,-1.2774,-1.2881,-1.2881,-1.2881,-1.2881,-1.2881,-1.2881,-1.2881,-1.2881,-1.2881,-1.2881,-1.2881,-1.969,-1.969,-1.969,-1.969,-1.969,-1.969,-1.969,-1.969,-1.969,-1.969,-1.969,-1.969,-1.969,-1.969,-1.969,-1.969,-1.969,-1.969,-1.969,-1.969,-1.969,-1.969,-1.969,-1.969,-1.969,-1.7949,-1.7195,-1.761,-1.6863,-1.6595,-1.6752,-1.6595,-1.6522,-1.6522,-1.6522,-1.6522,-1.6522,-1.6522,-1.6595,-1.6752,-1.6752,-1.6752,-1.6752,-1.6752,-1.6637,-1.6522,-1.6522,-1.6522,-1.6522,-1.6522,-1.6522,-1.6522,-1.6522,-1.6522,-1.6522,-1.6522,-1.6522,-1.6522,-1.6522,-1.6522,-1.6522,-1.6522,-1.6522,-1.6522,-1.6522,-1.6384,-1.5928,-1.472,-1.4575,-1.425,-1.2961,-1.272,-1.272,-1.272,-1.2615,-1.2615,-1.2943,-1.2579,-1.2102,-1.1594,-1.1212,-1.0819,-1.0351,-1.0283,-1.0283,-1.0283,-1.0283,-1.0283,-1.0283,-1.0283,-1.0283,-1.0283,-1.0283,-1.042,-1.0713,-1.084,-1.1055,-1.14,-1.1807,-1.2021,-1.2031,-1.2334,-1.2549,-1.2676,-1.2676,-1.2754,-1.2881,-1.2881,-1.2881,-1.2881,-1.2881,-1.2881,-1.2881,-1.2881,-1.2881,-1.2881,-1.9711,-1.9711,-1.9726,-1.969,-1.969,-1.969,-1.969,-1.969,-1.969,-1.969,-1.969,-1.969,-1.969,-1.969,-1.969,-1.969,-1.969,-1.969,-1.969,-1.969,-1.969,-1.969,-1.969,-1.969,-1.969,-1.8645,-1.794,-1.7626,-1.6879,-1.6795,-1.7312,-1.6752,-1.6522,-1.6522,-1.6522,-1.6522,-1.6522,-1.6522,-1.6837,-1.7312,-1.7312,-1.7312,-1.7312,-1.7312,-1.6951,-1.6522,-1.6522,-1.6522,-1.6522,-1.6522,-1.6522,-1.6522,-1.6522,-1.6522,-1.6522,-1.6522,-1.6522,-1.6522,-1.6522,-1.6522,-1.6522,-1.6522,-1.6522,-1.6522,-1.6522,-1.6095,-1.5542,-1.5029,-1.4475,-1.3921,-1.3298,-1.3198,-1.3198,-1.3198,-1.2803,-1.2508,-1.2508,-1.2102,-1.1605,-1.1084,-1.0999,-1.0805,-1.0351,-1.0283,-1.0283,-1.0322,-1.0322,-1.0283,-1.0283,-1.0283,-1.0283,-1.0283,-1.0283,-1.0283,-1.0283,-1.0703,-1.0908,-1.0908,-1.139,-1.1596,-1.1596,-1.1606,-1.1807,-1.218,-1.218,-1.248,-1.2871,-1.2881,-1.2881,-1.2881,-1.2881,-1.2881,-1.2881,-1.2881,-1.2881,-1.2881,-2.1524,-2.1524,-2.1134,-1.9909,-1.969,-1.969,-1.969,-1.969,-1.969,-1.969,-1.969,-1.969,-1.969,-1.969,-1.969,-1.969,-1.969,-1.969,-1.969,-1.969,-1.969,-1.969,-1.969,-1.969,-1.969,-1.9398,-1.891,-1.8302,-1.8066,-1.7747,-1.7312,-1.7146,-1.7076,-1.7076,-1.7076,-1.7271,-1.7626,-1.7626,-1.7706,-1.7827,-1.7463,-1.7312,-1.7271,-1.6879,-1.6637,-1.6522,-1.6522,-1.6522,-1.6522,-1.6522,-1.6522,-1.6552,-1.6951,-1.7076,-1.7076,-1.7076,-1.6795,-1.6595,-1.6951,-1.6795,-1.6522,-1.6522,-1.6522,-1.6522,-1.6522,-1.6396,-1.6007,-1.5104,-1.4777,-1.4374,-1.3373,-1.3198,-1.3198,-1.3198,-1.3082,-1.2873,-1.2544,-1.2401,-1.2113,-1.1608,-1.1212,-1.095,-1.0819,-1.0488,-1.0439,-1.0752,-1.0801,-1.0644,-1.0322,-1.0283,-1.0283,-1.0283,-1.0283,-1.0283,-1.0283,-1.041,-1.0469,-1.0478,-1.0898,-1.1103,-1.1113,-1.1459,-1.1675,-1.1777,-1.209,-1.2305,-1.2451,-1.2754,-1.2881,-1.2881,-1.2881,-1.2881,-1.2881,-1.2881,-1.2881,-1.2881,-2.231,-2.231,-2.1991,-2.0894,-2.0154,-1.969,-1.969,-1.969,-1.969,-1.969,-1.969,-1.969,-1.969,-1.969,-1.969,-1.969,-1.969,-1.969,-1.969,-1.969,-1.969,-1.969,-1.969,-1.969,-1.969,-1.9281,-1.9043,-1.9043,-1.8727,-1.8496,-1.8263,-1.7827,-1.7626,-1.7626,-1.7626,-1.7787,-1.8106,-1.8106,-1.8224,-1.838,-1.7827,-1.7626,-1.7544,-1.7034,-1.668,-1.6522,-1.6752,-1.6837,-1.6837,-1.7076,-1.7105,-1.7188,-1.7504,-1.7626,-1.7626,-1.7626,-1.7394,-1.7188,-1.7544,-1.7394,-1.7076,-1.6879,-1.668,-1.6522,-1.6522,-1.6522,-1.6208,-1.5103,-1.4916,-1.4538,-1.3398,-1.3198,-1.3198,-1.3198,-1.3047,-1.2838,-1.2544,-1.2353,-1.2135,-1.1815,-1.1502,-1.1312,-1.1323,-1.1067,-1.0992,-1.1287,-1.1309,-1.1113,-1.0582,-1.0764,-1.0812,-1.0572,-1.0764,-1.0802,-1.0572,-1.0572,-1.0467,-1.0283,-1.0537,-1.0654,-1.0674,-1.0979,-1.1185,-1.1361,-1.18,-1.2108,-1.2243,-1.2559,-1.2769,-1.2929,-1.2712,-1.2725,-1.2881,-1.2881,-1.2881,-1.2881,-2.231,-2.231,-2.231,-2.231,-2.0878,-1.969,-1.969,-1.969,-1.969,-1.969,-1.969,-1.969,-1.969,-1.969,-1.969,-1.969,-1.969,-1.969,-1.969,-1.969,-1.969,-1.969,-1.969,-1.9726,-1.9782,-1.8765,-1.8727,-1.969,-1.9043,-1.9006,-1.9603,-1.8679,-1.8198,-1.8185,-1.8185,-1.8224,-1.8263,-1.8263,-1.8496,-1.8855,-1.8341,-1.8106,-1.8027,-1.7504,-1.7034,-1.671,-1.7188,-1.7394,-1.7463,-1.7947,-1.8145,-1.8185,-1.8185,-1.8185,-1.8185,-1.8185,-1.8145,-1.8106,-1.8185,-1.8145,-1.7987,-1.7504,-1.6951,-1.6552,-1.6522,-1.6522,-1.622,-1.5205,-1.4941,-1.4551,-1.3461,-1.3235,-1.3198,-1.3198,-1.2838,-1.2544,-1.2508,-1.2182,-1.1912,-1.1859,-1.187,-1.1872,-1.1872,-1.1872,-1.1867,-1.1803,-1.1835,-1.1641,-1.1094,-1.1542,-1.159,-1.1094,-1.1553,-1.159,-1.1094,-1.1057,-1.0802,-1.0283,-1.0283,-1.0322,-1.0361,-1.0361,-1.0607,-1.1013,-1.153,-1.1994,-1.2331,-1.2373,-1.2592,-1.2934,-1.2468,-1.2572,-1.3006,-1.3006,-1.2987,-1.2968,-2.231,-2.231,-2.231,-2.231,-2.0878,-1.969,-1.969,-1.969,-1.969,-1.969,-1.969,-1.969,-1.969,-1.969,-1.969,-1.969,-1.969,-1.969,-1.969,-1.969,-1.969,-1.969,-1.969,-1.9925,-2.0395,-1.9717,-1.9479,-1.969,-1.953,-1.9332,-1.9095,-1.9275,-1.9132,-1.8727,-1.8727,-1.8968,-1.9369,-1.9369,-1.9169,-1.8855,-1.8341,-1.8106,-1.8027,-1.7504,-1.7504,-1.7787,-1.7867,-1.7947,-1.7947,-1.8066,-1.838,-1.8727,-1.8727,-1.8727,-1.8727,-1.8727,-1.8419,-1.8185,-1.8612,-1.8419,-1.8066,-1.7947,-1.7504,-1.7034,-1.6595,-1.6522,-1.6321,-1.5655,-1.5178,-1.4714,-1.4035,-1.3521,-1.3198,-1.3198,-1.3129,-1.2908,-1.2544,-1.2745,-1.2757,-1.2389,-1.2366,-1.2342,-1.2342,-1.2342,-1.2201,-1.1815,-1.2118,-1.2153,-1.1653,-1.1737,-1.1737,-1.1627,-1.1737,-1.1737,-1.1627,-1.1627,-1.118,-1.0283,-1.0283,-1.0505,-1.0829,-1.0829,-1.1109,-1.1643,-1.2053,-1.2311,-1.2392,-1.2724,-1.29,-1.2998,-1.2871,-1.3173,-1.3694,-1.3694,-1.3658,-1.3552,-2.231,-2.231,-2.2049,-2.1197,-2.0991,-2.0926,-2.0926,-2.0243,-1.969,-1.969,-1.969,-1.969,-1.969,-1.969,-1.969,-1.969,-1.969,-1.969,-1.969,-1.969,-1.969,-1.969,-1.969,-1.9945,-2.0447,-2.0139,-1.9909,-1.969,-1.969,-1.9566,-1.9295,-1.9568,-1.9553,-1.9281,-1.9281,-1.9442,-1.969,-1.969,-1.953,-1.9244,-1.8688,-1.8496,-1.8419,-1.7907,-1.7867,-1.8145,-1.838,-1.865,-1.8855,-1.8855,-1.9043,-1.9281,-1.9281,-1.9281,-1.9281,-1.9281,-1.908,-1.893,-1.9207,-1.908,-1.8817,-1.8535,-1.8263,-1.7787,-1.6752,-1.671,-1.6712,-1.6187,-1.5801,-1.5412,-1.4867,-1.4264,-1.3835,-1.3835,-1.3835,-1.3722,-1.3475,-1.3674,-1.3726,-1.3489,-1.3279,-1.3079,-1.2854,-1.2842,-1.2736,-1.2501,-1.269,-1.2634,-1.2165,-1.2354,-1.2365,-1.2138,-1.2365,-1.2354,-1.2138,-1.2138,-1.1774,-1.1029,-1.1029,-1.1142,-1.1394,-1.1394,-1.1542,-1.1822,-1.2267,-1.2456,-1.2467,-1.2682,-1.2855,-1.302,-1.278,-1.304,-1.3473,-1.3473,-1.362,-1.3842,-2.231,-2.2049,-2.1401,-1.9945,-2.0894,-2.1857,-2.1857,-2.0632,-1.969,-1.969,-1.969,-1.969,-1.969,-1.998,-2.0085,-1.9945,-1.9945,-1.9945,-1.9803,-1.9818,-1.9782,-1.969,-1.969,-1.9874,-2.028,-2.0212,-2.007,-1.9818,-1.9737,-1.9702,-1.969,-1.969,-1.969,-1.969,-1.969,-1.969,-1.969,-1.969,-1.9639,-1.953,-1.908,-1.8893,-1.8855,-1.8419,-1.8302,-1.8419,-1.8893,-1.9332,-1.969,-1.969,-1.969,-1.969,-1.969,-1.969,-1.969,-1.969,-1.969,-1.969,-1.969,-1.969,-1.9566,-1.9043,-1.8893,-1.8535,-1.7118,-1.7105,-1.7289,-1.6889,-1.6535,-1.6145,-1.5716,-1.5003,-1.4501,-1.4501,-1.4501,-1.4501,-1.4501,-1.4484,-1.4501,-1.4506,-1.4206,-1.3779,-1.3245,-1.3257,-1.3304,-1.3198,-1.3198,-1.3032,-1.2631,-1.2973,-1.3012,-1.2615,-1.3012,-1.3012,-1.2615,-1.2615,-1.2425,-1.2029,-1.2029,-1.1993,-1.192,-1.192,-1.1957,-1.2066,-1.2437,-1.2615,-1.2615,-1.2615,-1.283,-1.3089,-1.2674,-1.2816,-1.3177,-1.3186,-1.3488,-1.3946,-2.231,-2.1103,-1.998,-1.9747,-1.9874,-2.005,-2.005,-1.9854,-1.969,-1.969,-1.969,-1.969,-1.969,-2.1039,-2.1645,-2.0894,-2.1023,-2.091,-2.0246,-2.0212,-2.0054,-1.9726,-1.969,-1.9874,-2.028,-1.9965,-1.9929,-2.0212,-1.9859,-1.9682,-1.969,-1.969,-1.969,-1.969,-1.969,-1.969,-1.969,-1.969,-1.9442,-1.9006,-1.893,-1.8893,-1.8893,-1.8817,-1.908,-1.9479,-1.9566,-1.9639,-1.969,-1.969,-1.969,-1.969,-1.969,-1.969,-1.969,-1.969,-1.969,-1.969,-1.969,-1.969,-1.9566,-1.9043,-1.8893,-1.8727,-1.8027,-1.7947,-1.7959,-1.7917,-1.7046,-1.6269,-1.62,-1.5261,-1.4501,-1.4501,-1.4501,-1.4501,-1.4501,-1.4484,-1.4492,-1.4511,-1.4446,-1.4093,-1.3279,-1.3556,-1.3629,-1.3245,-1.3198,-1.3185,-1.3091,-1.3185,-1.3163,-1.3094,-1.3163,-1.3163,-1.3094,-1.3094,-1.3082,-1.3012,-1.3012,-1.2803,-1.2401,-1.2401,-1.2615,-1.3012,-1.3094,-1.3094,-1.3094,-1.3094,-1.3132,-1.3194,-1.3124,-1.3445,-1.3939,-1.3899,-1.3912,-1.3889,-2.231,-2.1691,-2.0829,-1.9889,-1.969,-1.969,-1.969,-1.969,-1.969,-1.969,-1.969,-1.969,-1.969,-2.126,-2.2152,-2.1751,-2.1538,-2.1213,-2.0715,-2.0682,-2.0599,-2.0431,-2.0447,-2.0499,-2.0682,-2.0499,-2.0398,-2.0314,-1.9878,-1.9697,-1.969,-1.969,-1.969,-1.969,-1.969,-1.969,-1.969,-1.969,-1.9566,-1.9369,-1.9369,-1.9369,-1.9369,-1.9369,-1.9479,-1.9726,-1.9929,-2.0035,-2.007,-2.0345,-2.0447,-2.0447,-2.0447,-2.0447,-2.0447,-2.0447,-2.0447,-2.0447,-2.0447,-2.0447,-2.0364,-2.0128,-2.0078,-2.0008,-1.9768,-1.9733,-1.9483,-1.8712,-1.8049,-1.7543,-1.7146,-1.6337,-1.5614,-1.5283,-1.5225,-1.5225,-1.5225,-1.5222,-1.5118,-1.4857,-1.4825,-1.461,-1.3994,-1.4111,-1.4158,-1.393,-1.3917,-1.3917,-1.3917,-1.3723,-1.3603,-1.3603,-1.333,-1.3198,-1.3198,-1.3198,-1.3198,-1.3198,-1.3198,-1.3094,-1.2908,-1.2908,-1.3012,-1.3198,-1.3198,-1.3198,-1.3198,-1.3198,-1.3198,-1.3198,-1.3198,-1.3348,-1.3588,-1.36,-1.3599,-1.3556]},{"header":{"parameterUnit":"m.s-1","parameterCategory":1,"la1":30.6,"la2":28.766,"lo1":-90.7593,"lo2":-88.6598,"dy":0.0162,"dx":0.0183,"nx":116,"ny":114,"refTime":"2024-07-05T18:00:00:Z","depth":0,"parameterNumber":3,"parameterNumberName":"V-component_of_WINDS"},"data":[0.0,0.0,0.0,0.0,0.0,0.0,0.0,0.0,0.0,0.0,0.0,0.0,0.0,0.0,0.0,0.0,0.0,0.0,0.0,0.0,0.0,0.0,0.0,0.0,0.0,0.0,0.0,0.0,0.0,0.0,0.0,0.0,0.0,0.0,0.0,0.0,0.0,0.0,0.0,0.0,0.0,0.0,0.0,0.0,0.0,0.0,0.0,0.0,0.0,0.0,0.0,0.0,0.0,0.0,0.0,0.0,0.0,0.0,0.0,0.0,0.0,0.0,0.0,0.0,0.0,0.0,0.0,0.0,0.0,0.0,0.0,0.0,0.0,0.0,0.0,0.0,0.0,0.0,0.0,0.0,0.0,0.0,0.0,0.0,0.0,0.0,0.0,0.0,0.0,0.0,0.0,0.0,0.0,0.0,0.0,0.0,0.0,0.0,0.0,0.0,0.0,0.0,0.0,0.0,0.0,0.0,0.0,0.0,0.0,0.0,0.0,0.0,0.0,0.0,0.0,0.0,0.0,0.0,0.0,0.0,0.0,0.0,0.0,0.0,0.0,0.0,0.0,0.0,0.0,0.0,0.0,0.0,0.0,0.0,0.0,0.0,0.0,0.0,0.0,0.0,0.0,0.0,0.0,0.0,0.0,0.0,0.0,0.0,0.0,0.0,0.0,0.0,0.0,0.0,0.0,0.0,0.0,0.0,0.0,0.0,0.0,0.0,0.0,0.0,0.0,0.0,0.0,0.0,0.0,0.0,0.0,0.0,0.0,0.0,0.0,0.0,0.0,0.0,0.0,0.0,0.0,0.0,0.0,0.0,0.0,0.0,0.0,0.0,0.0,0.0,0.0,0.0,0.0,0.0,0.0,0.0,0.0,0.0,0.0,0.0,0.0,0.0,0.0,0.0,0.0,0.0,0.0,0.0,0.0,0.0,0.0,0.0,0.0,0.0,0.0,0.0,0.0,0.0,0.0,0.0,0.0,0.0,0.0,0.0,0.0,0.0,0.0,0.0,0.0,0.0,0.0,0.0,0.0,0.0,0.0,0.0,0.0,0.0,0.0,0.0,0.0,0.0,0.0,0.0,0.0,0.0,0.0,0.0,0.0,0.0,0.0,0.0,0.0,0.0,0.0,0.0,0.0,0.0,0.0,0.0,0.0,0.0,0.0,0.0,0.0,0.0,0.0,0.0,0.0,0.0,0.0,0.0,0.0,0.0,0.0,0.0,0.0,0.0,0.0,0.0,0.0,0.0,0.0,0.0,0.0,0.0,0.0,0.0,0.0,0.0,0.0,0.0,0.0,0.0,0.0,0.0,0.0,0.0,0.0,0.0,0.0,0.0,0.0,0.0,0.0,0.0,0.0,0.0,0.0,0.0,0.0,0.0,0.0,0.0,0.0,0.0,0.0,0.0,0.0,0.0,0.0,0.0,0.0,0.0,0.0,0.0,0.0,0.0,0.0,0.0,0.0,0.0,0.0,0.0,0.0,0.0,0.0,0.0,0.0,0.0,0.0,0.0,0.0,0.0,0.0,0.0,0.0,0.0,0.0,0.0,0.0,0.0,0.0,0.0,0.0,0.0,0.0,0.0,0.0,0.0,0.0,0.0,0.0,0.0,0.0,0.0,0.0,0.0,0.0,0.0,0.0,0.0,0.0,0.0,0.0,0.0,0.0,0.0,0.0,0.0,0.0,0.0,0.0,0.0,0.0,0.0,0.0,0.0,0.0,0.0,0.0,0.0,0.0,0.0,0.0,0.0,0.0,0.0,0.0,0.0,0.0,0.0,0.0,0.0,0.0,0.0,0.0,0.0,0.0,0.0,0.0,0.0,0.0,0.0,0.0,0.0,0.0,0.0,0.0,0.0,0.0,0.0,0.0,0.0,0.0,0.0,0.0,0.0,0.0,0.0,0.0,0.0,0.0,0.0,0.0,0.0,0.0,0.0,0.0,0.0,0.0,0.0,0.0,0.0,0.0,0.0,0.0,0.0,0.0,0.0,0.0,0.0,0.0,0.0,0.0,0.0,0.0,0.0,0.0,0.0,0.0,0.0,0.0,0.0,0.0,0.0,0.0,0.0,0.0,0.0,0.0,0.0,0.0,0.0,0.0,0.0,0.0,0.0,0.0,0.0,0.0,0.0,0.0,0.0,0.0,0.0,0.0,0.0,0.0,0.0,0.0,0.0,0.0,0.0,0.0,0.0,0.0,0.0,0.0,0.0,0.0,0.0,0.0,0.0,0.0,0.0,0.0,0.0,0.0,0.0,0.0,0.0,0.0,0.0,0.0,0.0,0.0,0.0,0.0,0.0,0.0,0.0,0.0,0.0,0.0,0.0,0.0,0.0,0.0,0.0,0.0,0.0,0.0,0.0,0.0,0.0,0.0,0.0,0.0,0.0,0.0,0.0,0.0,0.0,0.0,0.0,0.0,0.0,0.0,0.0,0.0,0.0,0.0,0.0,0.0,0.0,0.0,0.0,0.0,0.0,0.0,0.0,0.0,0.0,0.0,0.0,0.0,0.0,0.0,0.0,0.0,0.0,0.0,0.0,0.0,0.0,0.0,0.0,0.0,0.0,0.0,0.0,0.0,0.0,0.0,0.0,0.0,0.0,0.0,0.0,0.0,0.0,0.0,0.0,0.0,0.0,0.0,0.0,0.0,0.0,0.0,0.0,0.0,0.0,0.0,0.0,0.0,0.0,0.0,0.0,0.0,0.0,0.0,0.0,0.0,0.0,0.0,0.0,0.0,0.0,0.0,0.0,0.0,0.0,0.0,0.0,0.0,0.0,0.0,0.0,0.0,0.0,0.0,0.0,0.0,0.0,0.0,0.0,0.0,0.0,0.0,0.0,0.0,0.0,0.0,0.0,0.0,0.0,0.0,0.0,0.0,0.0,0.0,0.0,0.0,0.0,0.0,0.0,0.0,0.0,0.0,0.0,0.0,0.0,0.0,0.0,0.0,0.0,0.0,0.0,0.0,0.0,0.0,0.0,0.0,0.0,0.0,0.0,0.0,0.0,0.0,0.0,0.0,0.0,0.0,0.0,0.0,0.0,0.0,0.0,0.0,0.0,0.0,0.0,0.0,0.0,0.0,0.0,0.0,0.0,0.0,0.0,0.0,0.0,0.0,0.0,0.0,0.0,0.0,0.0,0.0,0.0,0.0,0.0,0.0,0.0,0.0,0.0,0.0,0.0,0.0,0.0,0.0,0.0,0.0,0.0,0.0,0.0,0.0,0.0,0.0,0.0,0.0,0.0,0.0,0.0,0.0,0.0,0.0,0.0,0.0,0.0,0.0,0.0,0.0,0.0,0.0,0.0,0.0,0.0,0.0,0.0,0.0,0.0,0.0,0.0,0.0,0.0,0.0,0.0,0.0,0.0,0.0,0.0,0.0,0.0,0.0,0.0,0.0,0.0,0.0,0.0,0.0,0.0,0.0,0.0,0.0,0.0,0.0,0.0,0.0,0.0,0.0,0.0,0.0,0.0,0.0,0.0,0.0,0.0,0.0,0.0,0.0,0.0,0.0,0.0,0.0,0.0,0.0,0.0,0.0,0.0,0.0,0.0,0.0,0.0,0.0,0.0,0.0,0.0,0.0,0.0,0.0,0.0,0.0,0.0,0.0,0.0,0.0,0.0,0.0,0.0,0.0,0.0,0.0,0.0,0.0,0.0,0.0,0.0,0.0,0.0,0.0,0.0,0.0,0.0,0.0,0.0,0.0,0.0,0.0,0.0,0.0,0.0,0.0,0.0,0.0,0.0,0.0,0.0,0.0,0.0,0.0,0.0,0.0,0.0,0.0,0.0,0.0,0.0,0.0,0.0,0.0,0.0,0.0,0.0,0.0,0.0,0.0,0.0,0.0,0.0,0.0,0.0,0.0,0.0,0.0,0.0,0.0,0.0,0.0,0.0,0.0,0.0,0.0,0.0,0.0,0.0,0.0,0.0,0.0,0.0,0.0,0.0,0.0,0.0,0.0,0.0,0.0,0.0,0.0,0.0,0.0,0.0,0.0,0.0,0.0,0.0,0.0,0.0,0.0,0.0,0.0,0.0,0.0,0.0,0.0,0.0,0.0,0.0,0.0,0.0,0.0,0.0,0.0,0.0,0.0,0.0,0.0,0.0,0.0,0.0,0.0,0.0,0.0,0.0,0.0,0.0,0.0,0.0,0.0,0.0,0.0,0.0,0.0,0.0,0.0,0.0,0.0,0.0,0.0,0.0,0.0,0.0,0.0,0.0,0.0,0.0,0.0,0.0,0.0,0.0,0.0,0.0,0.0,0.0,0.0,0.0,0.0,0.0,0.0,0.0,0.0,0.0,0.0,0.0,0.0,0.0,0.0,0.0,0.0,0.0,0.0,0.0,0.0,0.0,0.0,0.0,0.0,0.0,0.0,0.0,0.0,0.0,0.0,0.0,0.0,0.0,0.0,0.0,0.0,0.0,0.0,0.0,0.0,0.0,0.0,0.0,0.0,0.0,0.0,0.0,0.0,0.0,0.0,0.0,0.0,0.0,0.0,0.0,0.0,0.0,0.0,0.0,0.0,0.0,0.0,0.0,0.0,0.0,0.0,0.0,0.0,0.0,0.0,0.0,0.0,0.0,0.0,0.0,0.0,0.0,0.0,0.0,0.0,0.0,0.0,0.0,0.0,0.0,0.0,0.0,0.0,0.0,0.0,0.0,0.0,0.0,0.0,0.0,0.0,0.0,0.0,0.0,0.0,0.0,0.0,0.0,0.0,0.0,0.0,0.0,0.0,0.0,0.0,0.0,0.0,0.0,0.0,0.0,0.0,0.0,0.0,0.0,0.0,0.0,0.0,0.0,0.0,0.0,0.0,0.0,0.0,0.0,0.0,0.0,0.0,0.0,0.0,0.0,0.0,0.0,0.0,0.0,0.0,0.0,0.0,0.0,0.0,0.0,0.0,0.0,0.0,0.0,0.0,0.0,0.0,0.0,0.0,0.0,0.0,0.0,0.0,0.0,0.0,0.0,0.0,0.0,0.0,0.0,0.0,0.0,0.0,0.0,0.0,0.0,0.0,0.0,0.0,0.0,0.0,0.0,0.0,0.0,0.0,0.0,0.0,0.0,0.0,0.0,0.0,0.0,0.0,0.0,0.0,0.0,0.0,0.0,0.0,0.0,0.0,0.0,0.0,0.0,0.0,0.0,0.0,0.0,0.0,0.0,0.0,0.0,0.0,0.0,0.0,0.0,0.0,0.0,0.0,0.0,0.0,0.0,0.0,0.0,0.0,0.0,0.0,0.0,0.0,0.0,0.0,0.0,0.0,0.0,0.0,0.0,0.0,0.0,0.0,0.0,0.0,0.0,0.0,0.0,0.0,0.0,0.0,0.0,0.0,0.0,0.0,0.0,0.0,0.0,0.0,0.0,0.0,0.0,0.0,0.0,0.0,0.0,0.0,0.0,0.0,0.0,0.0,0.0,0.0,0.0,0.0,0.0,0.0,0.0,0.0,0.0,0.0,0.0,0.0,0.0,0.0,0.0,0.0,0.0,0.0,0.0,0.0,0.0,0.0,0.0,0.0,0.0,0.0,0.0,0.0,0.0,0.0,0.0,0.0,0.0,0.0,0.0,0.0,0.0,0.0,0.0,0.0,0.0,0.0,0.0,0.0,0.0,0.0,0.0,0.0,0.0,0.0,0.0,0.0,0.0,0.0,0.0,0.0,0.0,0.0,0.0,0.0,0.0,0.0,0.0,0.0,0.0,0.0,0.0,0.0,0.0,0.0,0.0,0.0,0.0,0.0,0.0,0.0,0.0,0.0,0.0,0.0,0.0,0.0,0.0,0.0,0.0,0.0,0.0,0.0,0.0,0.0,0.0,0.0,0.0,0.0,0.0,0.0,0.0,0.0,0.0,0.0,0.0,0.0,0.0,0.0,0.0,0.0,0.0,0.0,0.0,0.0,0.0,0.0,0.0,0.0,0.0,0.0,0.0,0.0,0.0,0.0,0.0,0.0,0.0,0.0,0.0,0.0,0.0,0.0,0.0,0.0,0.0,0.0,0.0,0.0,0.0,0.0,0.0,0.0,0.0,0.0,0.0,0.0,0.0,0.0,0.0,0.0,0.0,0.0,0.0,0.0,0.0,0.0,0.0,-1.4787,0.0,0.0,0.0,0.0,0.0,0.0,0.0,0.0,0.0,0.0,0.0,0.0,0.0,0.0,0.0,0.0,0.0,0.0,0.0,0.0,0.0,0.0,0.0,0.0,-0.4712,-0.4927,-0.5024,-0.5413,-0.5769,-0.6034,0.0,0.0,0.0,0.0,0.0,-0.6344,-0.6357,-0.655,-0.6986,-0.7005,-0.7672,-0.8919,-0.927,-0.8731,-0.7495,0.0,0.0,0.0,0.0,0.0,0.0,0.0,0.0,0.0,0.0,0.0,0.0,0.0,0.0,0.0,0.0,0.0,0.0,0.0,0.0,0.0,0.0,0.0,0.0,0.0,0.0,0.0,0.0,0.0,0.0,0.0,0.0,0.0,0.0,0.0,0.0,0.0,0.0,0.0,0.0,0.0,0.0,0.0,0.0,0.0,0.0,0.0,0.0,0.0,0.0,0.0,0.0,0.0,0.0,0.0,0.0,0.0,0.0,0.0,0.0,0.0,0.0,0.0,0.0,0.0,0.0,0.0,0.0,0.0,0.0,0.0,-1.6471,0.0,0.0,0.0,0.0,0.0,0.0,0.0,0.0,0.0,0.0,0.0,0.0,0.0,0.0,0.0,0.0,0.0,0.0,0.0,0.0,0.0,-0.4693,-0.4646,-0.5152,-0.5619,-0.5964,-0.6664,-0.7208,-0.7506,-0.7598,0.0,0.0,0.0,-0.7695,-0.7692,-0.7697,-0.7735,-0.7848,-0.8184,-0.922,-1.0906,-1.2283,-1.1469,-0.8818,-0.8434,0.0,0.0,0.0,0.0,0.0,0.0,0.0,0.0,0.0,0.0,0.0,0.0,0.0,0.0,0.0,0.0,0.0,0.0,0.0,0.0,0.0,0.0,0.0,0.0,0.0,0.0,0.0,0.0,0.0,0.0,0.0,0.0,0.0,0.0,0.0,0.0,0.0,0.0,0.0,0.0,0.0,0.0,0.0,0.0,0.0,0.0,0.0,0.0,0.0,0.0,0.0,0.0,0.0,0.0,0.0,0.0,0.0,0.0,0.0,0.0,0.0,0.0,0.0,-2.2062,-2.0771,-2.0765,-2.0101,-2.0618,-2.1958,-2.071,-2.0289,-2.0321,-1.8545,0.0,0.0,0.0,0.0,0.0,0.0,0.0,0.0,0.0,0.0,0.0,0.0,0.0,0.0,0.0,0.0,0.0,0.0,0.0,-0.4935,-0.5547,-0.5753,-0.6199,-0.7099,-0.7341,-0.7506,-0.7661,-0.769,0.0,0.0,-0.7638,-0.7642,-0.7704,-0.7637,-0.8014,-0.8816,-1.0283,-1.19,-1.3591,-1.3744,-1.3963,-1.4104,-1.2464,-1.2098,-1.2603,0.0,0.0,0.0,0.0,0.0,0.0,0.0,0.0,0.0,0.0,0.0,0.0,0.0,0.0,0.0,0.0,0.0,0.0,0.0,0.0,0.0,0.0,0.0,0.0,0.0,0.0,0.0,0.0,0.0,0.0,0.0,0.0,0.0,0.0,0.0,0.0,0.0,0.0,0.0,0.0,0.0,-0.8277,-1.0115,0.0,0.0,0.0,0.0,0.0,0.0,0.0,0.0,0.0,0.0,0.0,0.0,0.0,-1.9035,-2.3265,-2.462,-2.6015,-2.7385,-2.5768,-2.5318,-2.5912,-2.5814,-2.5902,-2.6111,-2.6099,0.0,-2.1032,-2.0229,0.0,0.0,0.0,0.0,0.0,0.0,0.0,0.0,0.0,0.0,0.0,0.0,0.0,0.0,0.0,0.0,0.0,0.0,0.0,0.0,0.0,-0.6738,-0.7536,-0.8073,-0.854,-0.889,-0.9091,-0.9101,-0.9085,-0.9045,-0.9025,-0.9013,-0.9038,-0.9025,-0.9691,-1.1086,-1.2791,-1.4256,-1.5467,-1.5918,-1.6324,-1.6629,-1.5765,-1.4722,-1.3501,-1.1944,0.0,0.0,0.0,0.0,0.0,0.0,0.0,0.0,0.0,0.0,0.0,0.0,0.0,0.0,0.0,0.0,0.0,0.0,0.0,0.0,0.0,0.0,0.0,0.0,0.0,0.0,0.0,0.0,0.0,0.0,0.0,0.0,0.0,0.0,0.0,0.0,0.0,0.0,0.0,-0.799,-0.9158,-1.033,-1.0841,-1.1302,0.0,0.0,0.0,0.0,0.0,0.0,0.0,0.0,0.0,-1.8916,-1.9072,-2.1135,-2.5264,-2.5303,-2.664,-2.9297,-2.7831,-2.7151,-2.7166,-2.6871,-2.6743,-2.6738,-2.6935,-2.6028,-2.4362,-2.3857,-2.2949,-2.1765,0.0,0.0,0.0,0.0,-2.0695,-2.0633,0.0,0.0,0.0,0.0,0.0,0.0,0.0,0.0,0.0,0.0,0.0,0.0,-0.6618,-0.7772,-0.8652,-0.9021,-0.9572,-0.998,-1.0155,-1.0175,-1.0139,-1.0055,-1.005,-1.0048,-1.0058,-1.051,-1.1598,-1.33,-1.4845,-1.6126,-1.7138,-1.7766,-1.8149,-1.8332,-1.827,-1.7036,-1.4938,-1.3705,-1.2851,0.0,0.0,0.0,0.0,0.0,0.0,0.0,0.0,0.0,0.0,0.0,0.0,0.0,0.0,0.0,0.0,0.0,0.0,0.0,0.0,0.0,0.0,0.0,0.0,0.0,0.0,0.0,0.0,0.0,0.0,0.0,0.0,0.0,0.0,0.0,0.0,0.0,0.0,-0.947,-1.0431,-1.1082,-1.2622,-1.3502,0.0,0.0,0.0,0.0,0.0,0.0,-2.0308,-2.062,-2.1964,-2.4646,-2.3139,-2.3686,-2.6572,-2.6591,-2.8102,-3.1018,-2.9785,-2.9008,-2.8603,-2.8069,-2.782,-2.7826,-2.8061,-2.8144,-2.8071,-2.6983,-2.5895,-2.4823,-2.4064,-2.302,-2.2121,-2.3871,-2.4214,-2.4136,0.0,0.0,0.0,0.0,0.0,0.0,0.0,0.0,0.0,0.0,0.0,-0.6775,-0.8299,-0.8659,-0.9112,-0.996,-1.0112,-1.0154,0.0,0.0,-1.0055,-0.9926,-0.9913,-0.9919,-0.9907,-1.1598,-1.3303,-1.4985,-1.5965,-1.7244,-1.8785,-1.8754,-1.9117,-1.9782,-1.971,-1.9363,-1.865,-1.6125,-1.5541,-1.6008,0.0,0.0,0.0,0.0,0.0,0.0,0.0,0.0,0.0,0.0,0.0,0.0,0.0,0.0,0.0,0.0,0.0,0.0,0.0,0.0,0.0,0.0,0.0,0.0,0.0,0.0,0.0,0.0,0.0,0.0,0.0,0.0,0.0,0.0,0.0,0.0,0.0,0.0,0.0,-1.3674,-1.5334,0.0,0.0,0.0,0.0,-1.8564,-2.0124,-2.1903,-2.3831,-2.4728,-2.5801,-2.7187,-2.7544,-2.8501,-3.0129,-3.0129,-3.1018,-3.2767,-3.2182,-3.1934,-3.1954,-3.1404,-3.1155,-3.1162,-3.1432,-3.1551,-3.1331,-2.8368,-2.7116,-2.7038,-2.6984,-2.6927,-2.6871,-2.6968,-2.6987,-2.7016,0.0,0.0,0.0,-0.5096,-0.5076,-0.5055,-0.5034,-0.5535,-0.5984,-0.6237,-0.7247,-0.8158,-0.8728,-0.9804,-1.0595,-1.0916,-1.095,-1.0949,-1.0877,-1.0358,-1.0156,-1.04,-1.04,-1.0962,-1.213,-1.3508,-1.5043,-1.6777,-1.7763,-1.8978,-2.0372,-2.0394,-2.0757,-2.1379,-2.1362,-2.1249,-2.0899,-1.7939,-1.6657,-1.638,-1.3994,-1.2906,0.0,0.0,0.0,0.0,0.0,0.0,0.0,0.0,0.0,0.0,0.0,0.0,0.0,0.0,0.0,0.0,0.0,0.0,0.0,0.0,0.0,0.0,0.0,0.0,0.0,0.0,0.0,0.0,0.0,0.0,0.0,0.0,0.0,0.0,0.0,0.0,0.0,-1.5826,-1.7118,0.0,-1.7915,-1.9253,-2.0539,-2.1606,-2.3328,-2.4941,-2.631,-2.6857,-2.76,-2.8711,-2.8418,-2.9032,-3.07,-3.2696,-3.3974,-3.4558,-3.3415,-3.2765,-3.2581,-3.1945,-3.1565,-3.1396,-3.1507,-3.1537,-3.1463,-3.035,-2.9887,-2.9823,-2.9657,-2.9334,-2.9049,-2.9432,-2.9691,-2.9931,-0.5003,-0.5045,0.0,-0.51,-0.5085,-0.5053,-0.5036,-0.5787,-0.6471,-0.6735,-0.8007,-0.911,-0.9674,-1.0711,-1.147,-1.1752,-1.1489,-1.1275,-1.1206,-1.0664,-1.0332,-1.0355,-1.0876,-1.2013,-1.384,-1.5211,-1.6778,-1.8547,-1.9466,-2.0497,-2.1589,-2.1555,-2.1722,-2.2062,-2.2062,-2.2088,-2.1995,-1.9896,-1.8534,-1.7594,-1.5842,-1.4728,-1.389,0.0,0.0,0.0,0.0,0.0,0.0,0.0,0.0,0.0,0.0,0.0,0.0,0.0,0.0,0.0,0.0,0.0,0.0,0.0,0.0,0.0,0.0,0.0,0.0,0.0,0.0,0.0,0.0,0.0,0.0,0.0,0.0,0.0,0.0,0.0,-1.6831,-1.7756,-1.9306,-2.0255,-2.0191,-2.1732,-2.3218,-2.4407,-2.5618,-2.679,-2.7934,-2.8461,-2.9215,-3.0248,-2.9934,-3.0488,-3.2031,-3.4467,-3.5611,-3.5526,-3.4428,-3.3734,-3.3428,-3.2854,-3.2442,-3.221,-3.221,-3.221,-3.221,-3.221,-3.2232,-3.2203,-3.1388,-3.0826,-3.0509,-3.0935,-3.1183,-3.1431,-0.5011,-0.5051,-0.5096,-0.5106,-0.5043,-0.5022,-0.5082,-0.5797,-0.6665,-0.7573,-0.8426,-0.955,-1.1171,-1.1337,-1.1636,-1.2395,-1.1648,-1.1108,-1.1046,-1.0982,-1.061,-0.9835,-1.1351,-1.3065,-1.491,-1.6675,-1.8479,-2.0289,-2.099,-2.1732,-2.2428,-2.2166,-2.1988,-2.1876,-2.1876,-2.1943,-2.2067,-2.2067,-2.1312,-1.9945,-1.8182,-1.6665,-1.5096,0.0,0.0,0.0,0.0,0.0,0.0,0.0,0.0,0.0,0.0,0.0,0.0,0.0,0.0,0.0,0.0,0.0,0.0,0.0,0.0,0.0,0.0,0.0,0.0,0.0,0.0,0.0,0.0,0.0,0.0,0.0,0.0,0.0,-1.6016,-1.7625,-1.9,-1.9565,-2.1874,-2.342,-2.336,-2.4683,-2.5919,-2.6877,-2.6972,-2.7545,-2.8827,-2.9762,-3.0751,-3.1802,-3.2352,-3.3164,-3.4297,-3.543,-3.5856,-3.5597,-3.5262,-3.4969,-3.4705,-3.4363,-3.4093,-3.3815,-3.3852,-3.3825,-3.3807,-3.3862,-3.4016,-3.4003,-3.2195,-3.1483,-3.1507,-3.1507,-3.1507,-3.1586,-0.5074,-0.5083,-0.5107,-0.5097,-0.5077,-0.5072,-0.5092,-0.6325,-0.7323,-0.752,-0.8855,-0.9914,-1.0269,-1.1383,-1.1963,-1.1592,-1.1843,-1.2019,-1.1943,-1.0803,-1.0726,-1.204,-1.3761,-1.5862,-1.8286,-1.9092,-2.0348,-2.2168,-2.2214,-2.2562,-2.3178,-2.2961,-2.3117,-2.3529,-2.3529,-2.3566,-2.3584,-2.3584,-2.3093,-2.213,-2.0088,-1.9172,-1.8764,0.0,0.0,0.0,0.0,0.0,0.0,0.0,0.0,0.0,0.0,0.0,0.0,0.0,0.0,0.0,0.0,0.0,0.0,0.0,0.0,0.0,0.0,0.0,0.0,0.0,0.0,0.0,0.0,0.0,0.0,0.0,0.0,-1.9278,-1.8718,-1.9965,-2.1273,-2.2214,-2.3427,-2.4286,-2.4526,-2.5421,-2.6551,-2.7888,-2.87,-2.9672,-3.0899,-3.1528,-3.202,-3.2372,-3.31,-3.3738,-3.4297,-3.5234,-3.5678,-3.5599,-3.5507,-3.5289,-3.4983,-3.4889,-3.4574,-3.4111,-3.4767,-3.4559,-3.388,-3.511,-3.4926,-3.3873,-3.3562,-3.3589,-3.3789,-3.3789,-3.3915,-3.4131,-0.5097,-0.5102,-0.5105,-0.51,-0.5102,-0.5101,-0.507,-0.6487,-0.7532,-0.7464,-0.8959,-1.013,-1.042,-1.1267,-1.176,-1.1669,-1.2094,-1.2177,-1.1786,-1.1208,-1.1914,-1.424,-1.5703,-1.7538,-1.9907,-2.0477,-2.164,-2.3446,-2.3174,-2.3371,-2.404,-2.3752,-2.3823,-2.419,-2.419,-2.4247,-2.4339,-2.4339,-2.4148,-2.3742,-2.2201,-2.1376,-2.0932,-1.9497,-1.8296,-1.7401,-1.7535,-1.6674,-1.5284,-1.3885,0.0,0.0,0.0,0.0,0.0,0.0,0.0,0.0,0.0,0.0,0.0,0.0,0.0,0.0,0.0,0.0,0.0,0.0,0.0,0.0,0.0,0.0,0.0,0.0,-2.0767,-2.2538,-2.2211,-2.2607,-2.317,-2.3803,-2.4512,-2.5118,-2.5473,-2.6658,-2.7823,-2.8845,-2.9947,-3.0941,-3.1753,-3.2487,-3.2959,-3.3106,-3.4049,-3.4657,-3.4878,-3.5439,-3.5912,-3.6263,-3.6198,-3.6185,-3.6189,-3.6167,-3.5875,-3.5477,-3.6002,-3.5853,-3.5311,-3.6273,-3.6087,0.0,0.0,0.0,0.0,0.0,-3.5932,-3.6169,-0.5097,-0.5093,-0.5086,-0.5088,-0.508,-0.5067,-0.4995,-0.641,-0.7462,-0.7359,-0.8823,-1.0169,-1.0923,-1.0997,-1.1269,-1.1954,-1.2194,-1.2034,-1.1352,-1.2263,-1.3887,-1.6238,-1.7278,-1.8678,-2.0524,-2.1371,-2.2617,-2.4302,-2.3908,-2.4083,-2.476,-2.4375,-2.419,-2.419,-2.4228,-2.4321,-2.4512,-2.4528,-2.4639,-2.4762,-2.4151,-2.3223,-2.2074,-2.0996,-2.0497,-2.0406,-2.0523,-1.9585,-1.8024,-1.6347,0.0,0.0,0.0,0.0,0.0,0.0,0.0,0.0,0.0,0.0,0.0,0.0,0.0,0.0,0.0,0.0,0.0,0.0,0.0,0.0,0.0,0.0,0.0,0.0,-2.3746,-2.5626,-2.5711,-2.5232,-2.4833,-2.4774,-2.5475,-2.6126,-2.6479,-2.8159,-2.9412,-2.9846,-3.087,-3.1648,-3.2005,0.0,0.0,0.0,0.0,-3.5757,-3.5853,-3.6059,-3.6559,-3.7324,-3.7211,-3.7362,-3.7757,-3.7682,-3.7509,-3.7253,-3.7348,-3.7308,-3.7211,-3.74,-3.744,-3.727,-3.6171,-3.5764,-3.5912,-3.6927,-3.7433,-3.7655,-0.5097,-0.5063,-0.5019,-0.5024,-0.5027,-0.5003,-0.4928,-0.6335,-0.734,-0.7099,-0.868,-0.9819,-0.9832,-1.0523,-1.0774,-1.0249,-1.1547,-1.2619,0.0,0.0,-1.6003,-1.7201,-1.8807,-2.0488,-2.2201,-2.3138,-2.4025,-2.4936,-2.4695,-2.4572,-2.4543,-2.4321,-2.419,-2.4209,-2.4375,-2.4461,-2.4512,-2.467,-2.476,-2.4785,-2.4662,-2.4138,-2.3365,-2.2603,-2.1494,-2.0321,-2.0341,-2.018,-1.9751,-1.8543,-1.7812,-1.7305,-1.6641,0.0,0.0,0.0,0.0,0.0,0.0,0.0,0.0,0.0,0.0,0.0,0.0,0.0,0.0,0.0,0.0,0.0,0.0,0.0,0.0,-2.2765,-2.5769,-2.7687,-2.6698,-2.697,-2.7014,-2.6437,-2.7579,-2.8457,-2.8525,-2.9455,-3.0493,-3.1534,-3.1818,-3.2393,-3.3372,-3.408,-3.4469,-3.4528,-3.5806,-3.6573,-3.6747,-3.7467,-3.7953,-3.8164,0.0,0.0,-3.8089,-3.7982,-3.7775,-3.7566,-3.8214,-3.8001,-3.7305,-3.8603,-3.8885,-3.8404,-3.7528,-3.7336,-3.7529,-3.777,-3.7878,-3.7909,-0.5059,-0.5024,-0.4998,-0.4959,-0.4953,-0.5037,-0.5301,-0.6392,-0.7317,-0.7601,-0.8843,-0.9688,-0.9661,-1.0131,-1.0268,-0.9835,-1.1062,0.0,0.0,-1.5672,-1.691,-1.815,-1.9848,-2.1333,-2.2571,-2.3419,-2.42,-2.4955,-2.4757,-2.4591,-2.4495,-2.4284,-2.419,-2.4209,-2.441,-2.4561,-2.4654,-2.4823,-2.4962,-2.5056,-2.5056,-2.4855,-2.449,-2.4028,-2.3409,-2.2803,-2.2803,-2.1754,-2.0361,-2.043,-1.9578,-1.8436,-1.8024,-1.6733,-1.518,0.0,0.0,0.0,0.0,0.0,0.0,0.0,0.0,0.0,0.0,0.0,0.0,0.0,0.0,-2.087,0.0,0.0,-2.4856,-2.5746,-2.7414,-2.8528,-2.827,-2.8938,-2.9088,-2.8073,-2.8622,-2.9255,-2.9661,-3.0606,-3.1462,-3.205,-3.2637,-3.3268,-3.3949,-3.4839,-3.5359,-3.5495,-3.6703,-3.7439,-3.7641,-3.8078,-3.8587,-3.9141,-3.9004,-3.914,-3.9488,-3.9392,-3.9231,-3.9076,-3.9593,-3.9466,-3.9012,-3.9815,-3.9947,-3.9614,-3.921,-3.8892,-3.87,-3.9104,-3.9238,-3.9238,-0.4989,-0.4973,-0.4965,-0.489,-0.487,-0.5066,-0.5681,-0.6477,-0.7301,-0.8085,-0.8998,-0.9596,-0.9717,-0.9844,-1.0003,0.0,0.0,0.0,0.0,-1.6305,-1.7536,-1.9312,-2.0776,-2.1907,-2.2685,-2.3442,-2.4129,-2.4743,-2.4584,-2.4478,-2.4445,-2.4266,-2.4228,-2.4284,-2.4461,-2.467,-2.4855,-2.5005,-2.5152,-2.5303,-2.5303,-2.5303,-2.5274,-2.5065,-2.5099,-2.5264,-2.4918,-2.3035,-2.0792,-2.1501,-2.0669,-1.9294,-1.9333,-1.831,-1.6905,-1.6033,-1.5632,0.0,0.0,0.0,0.0,0.0,0.0,0.0,0.0,0.0,-2.0327,-2.0686,-2.2369,-2.3889,-2.4302,-2.5644,-2.7082,-2.8313,-2.8822,-2.9262,-2.988,-3.0565,-3.0688,-2.9826,-2.9792,-3.0098,-3.0689,-3.1797,-3.2511,-3.2511,-3.3411,-3.4142,-3.4517,-3.5463,-3.6159,-3.6538,-3.767,-3.8358,-3.8554,-3.8709,-3.9252,-4.0156,-3.9955,-4.02,-4.0831,-4.0754,-4.065,-4.0568,-4.0723,-4.0761,-4.0723,-4.0727,-4.0658,-4.0543,-4.0543,-4.0123,-3.9604,-4.0258,-4.0489,-4.0489,-0.4916,-0.4907,-0.489,-0.4824,-0.4759,-0.4952,-0.5604,-0.6452,-0.7195,-0.7782,-0.8778,-0.9424,-0.9443,-0.9782,-1.0312,-1.1153,0.0,0.0,-1.6289,-1.7203,-1.8694,-2.1024,-2.1973,-2.2748,-2.337,-2.4237,-2.4629,-2.453,-2.4512,-2.441,-2.4228,-2.4209,-2.4303,-2.4478,-2.467,-2.4855,-2.4986,-2.5173,-2.5274,-2.5303,-2.5303,-2.5303,-2.5303,-2.5264,-2.5274,-2.5111,-2.3601,-2.264,-2.1912,-2.086,-2.0262,-2.0027,-2.0207,-1.9588,-1.865,-1.7786,0.0,-1.64,-1.6131,-1.6898,-1.8141,-1.9763,-1.9668,-2.0332,0.0,0.0,-2.4448,-2.6622,-2.7303,-2.7424,-2.7198,-2.8045,-2.8702,-2.8528,-2.9896,-3.0963,-3.088,-3.0953,-3.1222,-3.1788,-3.2281,-3.2514,-3.2371,-3.3333,-3.3974,-3.3974,-3.4364,-3.4934,-3.5673,-3.6046,-3.6613,-3.7433,-3.8553,-3.9244,-3.9436,-4.0154,-4.0701,-4.1054,-4.0917,-4.0896,-4.0966,-4.085,-4.0771,-4.076,-4.0779,-4.0799,-4.0781,-4.0789,-4.0735,-4.0677,-4.0677,-4.0562,-4.0373,-4.0469,-4.0489,-4.0489,-0.4804,-0.4838,-0.486,-0.4714,-0.4661,-0.5035,-0.6213,-0.6712,-0.7371,-0.8567,-0.9201,-0.9585,-0.9731,-0.9936,-1.0227,-1.0613,-1.1887,-1.358,-1.5752,-1.7057,-1.8636,-2.0613,-2.1782,-2.2453,-2.2611,-2.3824,-2.441,-2.4339,-2.4339,-2.4284,-2.419,-2.419,-2.4303,-2.4512,-2.4716,-2.4864,-2.5022,-2.5214,-2.5303,-2.5303,-2.5303,-2.5303,-2.5303,-2.5303,-2.5303,-2.513,-2.3841,-2.2299,0.0,0.0,-2.0442,-2.0058,-2.0143,-1.9641,-1.8943,-1.8513,-1.8567,0.0,-2.0623,0.0,0.0,0.0,-2.3672,-2.435,-2.6468,-2.6766,-2.6888,-2.7843,-2.8403,-2.8687,-2.8502,-2.9229,-2.9965,0.0,-3.1024,-3.1665,-3.2058,-3.211,-3.2184,-3.2355,-3.2559,-3.2806,-3.3038,-3.3933,-3.4508,-3.4508,-3.5047,-3.5606,-3.6103,-3.7186,-3.8057,-3.8575,-3.9515,-4.0077,-4.0241,-4.0599,-4.0898,-4.1074,-4.103,-4.0962,-4.0873,-4.0916,-4.0962,-4.1019,-4.0956,-4.0915,-4.0925,-4.0914,-4.0863,-4.0746,-4.0728,-4.0677,-4.062,-4.0543,-4.0489,-4.0489,-0.4683,-0.4771,-0.4786,-0.4629,-0.4633,-0.5105,-0.6464,-0.6832,-0.7533,-0.9186,-0.9492,-0.9661,-0.9973,-1.0054,-1.0113,-1.0133,-1.1487,-1.3104,-1.4898,-1.6275,-1.7989,-2.0084,-2.1088,-2.1827,-2.2325,-2.3397,-2.4008,-2.419,-2.419,-2.419,-2.419,-2.419,-2.4339,-2.4575,-2.4731,-2.491,-2.5088,-2.5253,-2.5303,-2.5303,-2.5303,-2.5303,-2.5284,-2.5063,-2.512,-2.5139,-2.3955,-2.1567,0.0,0.0,-1.9632,-1.9238,-1.9278,-1.8988,-1.869,-1.9047,-2.0218,-2.1801,-2.3769,0.0,0.0,-2.5554,-2.6695,-2.7366,-2.7537,-2.8011,-2.8446,-2.8581,-2.9008,-2.9344,-2.9283,-2.9832,0.0,-3.1456,-3.184,-3.2321,-3.3134,-3.3058,-3.2826,-3.2641,-3.2401,-3.253,-3.3199,-3.398,-3.4547,-3.4774,-3.5628,-3.631,-3.6752,-3.8207,-3.9214,-3.9672,-4.0215,-4.0581,-4.0735,-4.0774,-4.0876,-4.0996,-4.1032,-4.0975,-4.0859,-4.0919,-4.103,-4.1132,-4.1046,-4.1025,-4.1055,-4.1055,-4.0982,-4.0851,-4.0804,-4.0754,-4.0696,-4.06,-4.0543,-4.0489,-0.4601,-0.4657,-0.4679,-0.4611,-0.471,-0.5096,-0.5983,-0.6623,-0.7583,-0.9194,-0.9411,-0.9564,-0.9953,-1.0061,-1.0133,-1.0194,-1.0964,-1.217,-1.3928,-1.4888,-1.6799,-1.9953,-2.0088,-2.1048,-2.3105,-2.3201,-2.3561,-2.419,-2.419,-2.419,-2.419,-2.419,-2.441,-2.479,-2.4804,-2.4975,-2.5284,-2.5303,-2.5303,-2.5303,-2.5303,-2.5303,-2.5207,-2.4428,-2.462,-2.5072,-2.3428,0.0,0.0,0.0,-1.7139,-1.7311,-1.7433,-1.7547,0.0,-1.9572,-2.1971,0.0,0.0,0.0,-2.6766,-2.6845,-2.7516,-2.8345,-2.9064,-2.9102,-2.9202,-2.9969,-2.9938,-2.9758,-2.9677,-2.9858,-3.0299,-3.1172,-3.219,-3.316,-3.4045,-3.343,-3.291,-3.2878,-3.2205,-3.2032,0.0,-3.3459,-3.4173,-3.5011,-3.6067,-3.7051,-3.7896,-3.8796,-3.9715,-4.0639,-4.0562,-4.06,-4.0793,-4.0804,-4.0878,-4.0996,-4.113,-4.1131,-4.0977,-4.0858,-4.0891,-4.1016,-4.0996,-4.1074,-4.1191,-4.1191,-4.1113,-4.0992,-4.0986,-4.087,-4.0696,-4.0696,-4.062,-4.0489,-0.4537,-0.458,-0.4633,-0.4609,-0.4631,-0.5012,-0.6013,-0.6647,-0.7569,-0.9185,-0.9469,0.0,0.0,0.0,0.0,0.0,-1.094,-1.2088,-1.3707,-1.4749,-1.6148,-1.803,-1.9452,-2.0416,-2.0875,-2.1883,-2.2728,-2.34,-2.3192,-2.3466,-2.4208,-2.3976,-2.4192,-2.4804,-2.4804,-2.4994,-2.5303,-2.5303,-2.5303,-2.5245,-2.4716,-2.4428,-2.4279,-2.399,-2.3014,-2.1598,0.0,0.0,0.0,0.0,-1.7034,-1.7214,-1.7309,0.0,0.0,-2.035,0.0,0.0,0.0,0.0,-2.7122,-2.8326,-2.8775,-2.9102,-2.9754,-2.9837,-2.9658,-2.9169,-2.8995,-2.8774,-2.8202,-2.8588,-2.9469,-3.0871,-3.2,-3.3187,-3.4607,-3.4194,-3.3757,-3.3757,-3.3019,0.0,0.0,0.0,0.0,-3.5369,-3.6762,-3.7747,-3.8195,-3.9484,-4.0389,-4.0754,-4.0716,-4.0735,-4.0793,-4.0889,-4.0963,-4.1004,-4.0961,-4.097,-4.1001,-4.0828,-4.0827,-4.1005,-4.0994,-4.1074,-4.1191,-4.1191,-4.1172,-4.1113,-4.1035,-4.0966,-4.0889,-4.0793,-4.0716,-4.062,-0.4402,-0.4437,-0.4511,-0.4554,-0.4549,0.0,0.0,0.0,0.0,0.0,0.0,0.0,0.0,0.0,0.0,0.0,0.0,-1.138,-1.235,-1.3066,-1.4307,-1.6235,-1.7417,-1.826,-1.8812,-1.9713,-2.0649,-2.1571,-2.1583,-2.2086,-2.3042,-2.2924,-2.3162,-2.3705,-2.3765,-2.396,-2.4219,-2.4219,-2.4219,-2.4162,-2.3341,-2.2915,-2.2669,-2.2087,-2.1244,0.0,0.0,0.0,0.0,-1.5654,0.0,0.0,0.0,0.0,0.0,0.0,0.0,-2.4582,0.0,-2.7472,-2.8028,-2.9404,-2.9685,-2.9702,-2.9969,-2.972,-2.924,-2.8514,-2.8069,-2.766,-2.7154,-2.7542,-2.8477,-3.0152,-3.133,-3.2638,-3.438,-3.4297,-3.4093,-3.4199,-3.3724,-3.3705,0.0,0.0,0.0,-3.5526,-3.7096,-3.8074,-3.8195,-3.9805,-4.0739,-4.0797,-4.0807,-4.082,-4.0878,-4.0917,-4.0956,-4.1005,-4.0867,-4.0848,-4.0908,-4.0716,-4.0735,-4.0881,-4.0882,-4.0968,-4.1055,-4.1055,-4.1055,-4.1058,-4.1014,-4.0974,-4.0908,-4.0889,-4.0805,-4.0713,-0.4224,-0.4248,-0.433,0.0,0.0,0.0,0.0,0.0,0.0,0.0,0.0,0.0,0.0,0.0,0.0,0.0,0.0,0.0,-1.0102,-1.0093,0.0,-1.4593,-1.4175,-1.4858,-1.6948,-1.6855,-1.7467,-1.8893,-1.9451,-2.0105,-2.0868,-2.1125,-2.1334,-2.1522,-2.1736,-2.1929,-2.2105,-2.2136,-2.2136,-2.2061,-2.1285,-2.084,-2.0483,-1.8969,0.0,0.0,0.0,0.0,0.0,0.0,0.0,0.0,0.0,0.0,0.0,0.0,0.0,-2.6901,-2.7807,-2.8696,-2.9501,-3.0051,-3.019,-3.0102,-2.9712,-2.8839,-2.8072,-2.7922,-2.713,-2.6465,0.0,0.0,-2.7364,-2.8968,-3.0265,-3.1689,-3.3522,-3.3843,-3.3983,0.0,0.0,0.0,0.0,0.0,0.0,-3.5656,0.0,-3.8106,-3.8099,-3.976,-4.0735,-4.0816,-4.0828,-4.0877,-4.0994,-4.0877,-4.0858,-4.0996,-4.0855,-4.0798,-4.0793,-4.0639,-4.062,-4.0712,-4.0796,-4.083,-4.0805,-4.0843,-4.0843,-4.0801,-4.0938,-4.0903,-4.0823,-4.0939,-4.0912,-4.079,0.0,0.0,0.0,0.0,0.0,0.0,0.0,0.0,0.0,0.0,0.0,0.0,0.0,0.0,0.0,0.0,0.0,0.0,0.0,0.0,0.0,0.0,0.0,-1.3712,-1.4428,-1.4987,0.0,0.0,0.0,-1.7806,-1.9061,-1.888,-1.8933,-1.9165,-1.9217,-1.935,-1.9564,-1.9754,-1.9834,-1.9792,0.0,-1.8883,-1.8545,0.0,0.0,0.0,0.0,0.0,0.0,0.0,0.0,0.0,0.0,0.0,-2.2238,0.0,0.0,-2.7017,-2.8492,-2.9534,-3.0194,-3.0204,-3.0125,-2.9779,-2.8745,-2.8297,-2.7549,-2.5595,-2.5001,-2.4389,-2.2991,0.0,0.0,-2.6878,-2.9585,0.0,-3.3318,-3.4238,0.0,0.0,0.0,-3.6548,-3.7439,-3.7618,0.0,0.0,-3.8006,-3.8549,-3.9238,-4.0323,-4.0937,-4.0943,-4.1052,-4.1064,-4.1006,-4.087,-4.082,-4.085,-4.0776,-4.0728,-4.0735,-4.1239,-4.1181,-4.0773,-4.2024,-4.1895,-4.0861,-4.1492,-4.1396,-4.0803,-4.0834,-4.0837,-4.0811,-4.0849,-4.0843,-4.0808,0.0,0.0,0.0,0.0,0.0,0.0,0.0,0.0,0.0,0.0,0.0,0.0,0.0,0.0,0.0,0.0,0.0,0.0,0.0,0.0,0.0,0.0,0.0,-1.1884,-1.2262,-1.2686,0.0,0.0,0.0,0.0,0.0,-1.622,-1.6221,-1.637,-1.6419,-1.6691,-1.7116,-1.726,0.0,0.0,0.0,0.0,0.0,0.0,0.0,0.0,0.0,0.0,0.0,0.0,0.0,-2.1531,-2.2882,-2.357,-2.4222,-2.6025,0.0,-2.8007,-2.892,-2.9709,-3.0226,-3.0045,-2.9572,-2.8868,-2.7715,-2.6894,-2.5763,-2.3584,-2.3144,0.0,0.0,0.0,0.0,0.0,0.0,0.0,-3.2676,-3.4165,-3.5493,0.0,-3.7156,0.0,-3.864,-3.8863,-3.9116,0.0,-3.9136,-3.9129,-3.9627,-4.0511,-4.101,-4.1006,-4.1081,-4.1024,-4.087,-4.0812,-4.0781,-4.0765,-4.0723,-4.0908,-4.1277,-4.1643,-4.1777,-4.1797,0.0,-4.2428,-4.1293,-4.1755,-4.1678,-4.12,-4.0889,-4.0982,-4.128,-4.0931,-4.0791,-4.0823,0.0,0.0,0.0,0.0,0.0,0.0,0.0,0.0,0.0,0.0,0.0,0.0,0.0,0.0,0.0,0.0,0.0,0.0,0.0,0.0,0.0,0.0,0.0,-1.0031,0.0,0.0,0.0,0.0,0.0,0.0,0.0,0.0,0.0,0.0,0.0,0.0,0.0,0.0,0.0,0.0,0.0,0.0,0.0,0.0,0.0,0.0,0.0,0.0,0.0,0.0,-2.155,-2.3388,-2.5143,-2.6213,-2.6997,-2.792,-2.8664,-2.9209,-2.9256,-2.9647,-3.0003,-2.9765,-2.8932,-2.7848,-2.6714,-2.5199,-2.3547,-2.1821,0.0,0.0,-1.9415,0.0,-2.318,-2.4081,0.0,-3.0076,-3.1994,-3.3802,-3.5417,-3.6728,-3.768,-3.8582,-3.9524,-3.9785,-4.0208,-4.0933,-4.0301,-3.9844,-3.977,-4.0557,-4.0994,-4.0977,-4.0953,-4.087,-4.0696,-4.0735,-4.0735,-4.0677,-4.0677,-4.1139,-4.197,-4.197,-4.2374,-4.3104,-4.3335,0.0,-4.1989,-4.2085,-4.2008,-4.1739,-4.1085,-4.1251,-4.1728,-4.1004,-4.0773,-4.0781,0.0,0.0,0.0,0.0,0.0,0.0,0.0,0.0,0.0,0.0,0.0,0.0,0.0,0.0,0.0,0.0,0.0,0.0,0.0,0.0,0.0,0.0,0.0,0.0,0.0,0.0,0.0,0.0,0.0,0.0,0.0,0.0,0.0,0.0,0.0,0.0,0.0,0.0,0.0,0.0,0.0,0.0,0.0,0.0,0.0,0.0,0.0,0.0,0.0,0.0,-2.245,-2.5221,-2.6374,-2.6814,-2.7178,-2.8641,-2.9137,-2.9344,-3.0006,-3.0251,-3.0228,-2.9815,-2.9055,-2.7937,-2.6037,-2.4355,0.0,0.0,0.0,-1.8629,-1.8294,-2.0378,0.0,-2.4122,0.0,0.0,0.0,0.0,-3.5012,0.0,0.0,0.0,0.0,0.0,0.0,0.0,0.0,-4.0721,-4.0602,-4.0855,-4.0941,-4.084,-4.0784,-4.0735,-4.0696,-4.06,-4.0562,-4.0543,-4.0543,-4.0989,-4.1854,-4.2566,-4.297,-4.3181,-4.4547,0.0,-4.2931,-4.3585,-4.3047,-4.1797,-4.1662,-4.1258,-4.0735,-4.06,-4.062,-4.0731,0.0,0.0,0.0,0.0,0.0,0.0,0.0,0.0,0.0,0.0,0.0,0.0,0.0,0.0,0.0,0.0,0.0,0.0,0.0,0.0,0.0,0.0,0.0,0.0,0.0,0.0,0.0,0.0,0.0,0.0,0.0,0.0,0.0,0.0,0.0,0.0,0.0,0.0,0.0,0.0,0.0,0.0,0.0,0.0,0.0,0.0,0.0,0.0,0.0,0.0,-2.1324,-2.4465,-2.6358,-2.6909,-2.7173,-2.8826,-2.924,-2.9382,-3.0179,-3.0299,-3.0109,-2.9782,-2.8683,-2.7156,-2.5225,0.0,0.0,0.0,0.0,-1.7417,-1.6548,0.0,0.0,0.0,0.0,0.0,0.0,0.0,0.0,0.0,0.0,0.0,0.0,0.0,0.0,0.0,0.0,-4.0932,-4.0805,-4.0855,-4.0863,-4.075,-4.0709,-4.0677,-4.06,-4.0543,-4.0489,-4.0489,-4.0489,-4.1181,-4.2489,-4.245,-4.2893,-4.3739,-4.4124,0.0,-4.3124,-4.3528,-4.3201,-4.2431,-4.1989,-4.1546,-4.1123,-4.0662,-4.0543,-4.06,0.0,0.0,0.0,0.0,0.0,0.0,0.0,0.0,0.0,0.0,0.0,0.0,0.0,0.0,0.0,0.0,0.0,0.0,0.0,0.0,0.0,0.0,0.0,0.0,0.0,0.0,0.0,0.0,0.0,0.0,0.0,0.0,0.0,0.0,0.0,0.0,0.0,0.0,0.0,0.0,0.0,0.0,0.0,0.0,0.0,0.0,0.0,0.0,0.0,0.0,-1.9569,-2.2213,-2.4716,-2.6091,-2.7089,-2.8579,-2.9108,-2.9344,-2.9948,-3.0101,-2.9975,-2.9555,-2.8198,-2.645,-2.4432,-2.2159,0.0,0.0,0.0,-1.6459,-1.5402,0.0,0.0,0.0,0.0,0.0,0.0,0.0,0.0,0.0,0.0,0.0,0.0,0.0,0.0,0.0,0.0,0.0,-4.0671,-4.0712,-4.07,-4.0559,-4.0627,-4.062,-4.0489,-4.0489,-4.0489,-4.0489,-4.0489,-4.1316,-4.2797,-4.2104,-4.2624,-4.4008,-4.3374,0.0,0.0,-4.3316,-4.3162,-4.2777,-4.2297,-4.1854,-4.145,-4.0777,-4.0543,-4.0543,0.0,0.0,0.0,0.0,0.0,0.0,0.0,0.0,0.0,0.0,0.0,0.0,0.0,0.0,0.0,0.0,0.0,0.0,0.0,0.0,0.0,0.0,0.0,0.0,0.0,0.0,0.0,0.0,0.0,0.0,0.0,0.0,0.0,0.0,0.0,0.0,0.0,0.0,0.0,0.0,0.0,0.0,0.0,0.0,0.0,0.0,0.0,0.0,0.0,0.0,0.0,-1.8504,-2.0412,-2.367,-2.6971,-2.7855,0.0,0.0,-2.9217,-2.9783,-3.0081,-2.89,-2.7935,-2.6572,-2.3899,0.0,0.0,0.0,-1.614,-1.5345,-1.6043,-1.7058,0.0,0.0,0.0,0.0,0.0,0.0,0.0,0.0,0.0,0.0,0.0,0.0,0.0,0.0,0.0,0.0,-4.0253,-4.0432,-4.0408,-4.0158,-4.0392,-4.0508,-4.0489,-4.0489,-4.0489,-4.0489,-4.0489,-4.0989,-4.1931,-4.1854,-4.2316,-4.3201,-4.3124,0.0,0.0,-4.4025,-4.341,-4.2008,-4.2755,-4.2063,-4.0604,-4.0677,-4.0677,-4.0696,0.0,0.0,0.0,0.0,0.0,0.0,0.0,0.0,0.0,0.0,0.0,0.0,0.0,0.0,0.0,0.0,0.0,0.0,0.0,0.0,0.0,0.0,0.0,0.0,0.0,0.0,0.0,0.0,0.0,0.0,0.0,0.0,0.0,0.0,0.0,0.0,0.0,0.0,0.0,0.0,0.0,0.0,0.0,0.0,0.0,0.0,0.0,0.0,0.0,0.0,0.0,0.0,-1.8393,-2.0672,0.0,0.0,-2.6314,-2.7236,-2.8752,-2.9406,-2.9531,-2.8846,-2.808,-2.6617,-2.3337,0.0,0.0,-1.7085,-1.5841,-1.5259,-1.5638,-1.6406,-1.7792,0.0,-2.134,-2.3415,0.0,0.0,0.0,0.0,0.0,0.0,0.0,0.0,0.0,0.0,0.0,0.0,-3.9848,-4.012,-4.0213,-4.0101,-4.0356,-4.0489,-4.0489,-4.0489,-4.0489,-4.0489,-4.0489,-4.095,-4.1777,-4.1258,-4.1489,-4.2297,-4.1758,0.0,0.0,-4.2797,-4.2566,-4.197,-4.2374,-4.1777,-4.0696,-4.0735,-4.0764,-4.0768,0.0,0.0,0.0,0.0,0.0,0.0,0.0,0.0,0.0,0.0,0.0,0.0,0.0,0.0,0.0,0.0,0.0,0.0,0.0,0.0,0.0,0.0,0.0,0.0,0.0,0.0,0.0,0.0,0.0,0.0,0.0,0.0,0.0,0.0,0.0,0.0,0.0,0.0,0.0,0.0,0.0,0.0,0.0,0.0,0.0,0.0,0.0,0.0,0.0,0.0,0.0,0.0,0.0,0.0,0.0,0.0,-2.424,-2.55,-2.7518,-2.8448,-2.8725,-2.8185,-2.7643,-2.6269,0.0,0.0,-1.9287,-1.6799,-1.5753,-1.5303,-1.5294,-1.5792,-1.6852,-1.8815,-1.9636,-2.1531,-2.5815,0.0,0.0,0.0,0.0,0.0,0.0,0.0,0.0,0.0,0.0,0.0,0.0,-3.9819,-3.9943,-3.9943,-4.0302,-4.0489,-4.0489,-4.0489,-4.0489,-4.0489,-4.0489,-4.0816,-4.1393,-4.0777,-4.0835,-4.1373,-4.0796,0.0,0.0,-4.1928,-4.1913,-4.1685,-4.2008,-4.1589,-4.0803,-4.0838,-4.0823,-4.0813,0.0,0.0,0.0,0.0,0.0,0.0,0.0,0.0,0.0,0.0,0.0,0.0,0.0,0.0,0.0,0.0,0.0,0.0,0.0,0.0,0.0,0.0,0.0,0.0,0.0,0.0,0.0,0.0,0.0,0.0,0.0,0.0,0.0,0.0,0.0,0.0,0.0,0.0,0.0,0.0,0.0,0.0,0.0,0.0,0.0,0.0,0.0,0.0,0.0,0.0,0.0,0.0,0.0,0.0,0.0,0.0,-2.2856,-2.4399,-2.5227,-2.6706,-2.7739,-2.66,-2.6327,-2.5418,0.0,-2.0581,-1.9335,-1.6982,-1.5862,-1.5298,-1.53,-1.5315,-1.6163,-1.8788,-1.9215,-2.0687,-2.4919,0.0,0.0,0.0,0.0,0.0,0.0,0.0,0.0,0.0,0.0,0.0,0.0,-3.9599,-3.9599,-3.9599,-4.0175,-4.0489,-4.0489,-4.0489,-4.0489,-4.0489,-4.0489,-4.0489,-4.0508,-4.0489,-4.0489,0.0,0.0,0.0,0.0,-4.1863,-4.1712,-4.0914,-4.1902,-4.167,-4.0827,-4.0957,-4.0906,-4.0815,0.0,0.0,0.0,0.0,0.0,0.0,0.0,0.0,0.0,0.0,0.0,0.0,0.0,0.0,0.0,0.0,0.0,0.0,0.0,0.0,0.0,0.0,0.0,0.0,0.0,0.0,0.0,0.0,0.0,0.0,0.0,0.0,0.0,0.0,0.0,0.0,0.0,0.0,0.0,0.0,0.0,0.0,0.0,0.0,0.0,0.0,0.0,0.0,0.0,0.0,0.0,0.0,0.0,0.0,0.0,-1.6579,-1.9329,0.0,-2.2581,-2.3634,-2.4274,-2.3276,-2.3477,-2.3017,-1.9594,-1.9076,-1.8624,-1.6183,-1.5483,-1.5319,-1.5352,-1.5379,-1.6228,-1.8847,-1.9276,0.0,0.0,0.0,0.0,0.0,0.0,0.0,0.0,0.0,0.0,0.0,0.0,0.0,0.0,-3.9819,-3.9838,-3.9599,-4.0175,-4.0489,-4.0489,-4.0489,-4.0489,-4.0489,-4.0489,-4.0489,-4.0489,-4.0489,-4.0489,0.0,0.0,0.0,0.0,-4.1212,-4.1229,-4.0989,-4.1397,-4.1345,-4.1066,-4.1019,-4.0976,-4.0942,0.0,0.0,0.0,0.0,0.0,0.0,0.0,0.0,0.0,0.0,0.0,0.0,0.0,0.0,0.0,0.0,0.0,0.0,0.0,0.0,0.0,0.0,0.0,0.0,0.0,0.0,0.0,-0.9666,0.0,0.0,0.0,0.0,0.0,0.0,0.0,0.0,0.0,0.0,0.0,0.0,0.0,0.0,-1.0202,0.0,0.0,0.0,0.0,0.0,0.0,0.0,0.0,0.0,0.0,0.0,0.0,0.0,-1.5805,-1.8376,0.0,-2.1286,-2.1798,-2.1196,-2.1466,-2.1119,-1.833,-1.8138,-1.792,-1.5753,-1.5328,-1.5346,-1.5396,-1.5391,-1.6133,-1.8398,-1.9044,0.0,0.0,0.0,0.0,0.0,0.0,0.0,0.0,0.0,0.0,0.0,0.0,0.0,0.0,-3.9982,-4.0002,-3.9797,-4.0248,-4.0489,-4.0489,-4.0489,-4.0489,-4.0489,-4.0489,-4.0489,-4.0489,-4.0489,-4.0543,0.0,0.0,0.0,0.0,-4.1009,-4.1073,-4.1081,-4.1175,-4.1191,-4.119,-4.1116,-4.1028,-4.0985,0.0,0.0,0.0,0.0,0.0,0.0,0.0,0.0,0.0,0.0,0.0,0.0,0.0,0.0,0.0,0.0,0.0,0.0,0.0,0.0,0.0,0.0,0.0,0.0,0.0,-0.9143,-0.9143,-0.9258,-1.0012,-1.0095,-0.9589,-1.1222,0.0,0.0,0.0,0.0,0.0,0.0,0.0,0.0,0.0,-1.0125,0.0,0.0,0.0,0.0,0.0,0.0,0.0,0.0,0.0,0.0,0.0,0.0,0.0,0.0,0.0,0.0,0.0,-1.9321,-2.0003,-1.9877,-1.9946,-1.9581,-1.7907,-1.7624,0.0,-1.5632,-1.5349,-1.5439,-1.5563,-1.5527,-1.6094,-1.7967,0.0,0.0,0.0,0.0,0.0,0.0,0.0,0.0,0.0,0.0,0.0,0.0,0.0,0.0,0.0,-4.0101,-4.0101,-4.0101,-4.0356,-4.0489,-4.0489,-4.0489,-4.0489,-4.0489,-4.0489,-4.0489,-4.0489,-4.0489,-4.0581,0.0,0.0,0.0,0.0,-4.1144,-4.1191,-4.1191,-4.1191,-4.1191,-4.1191,-4.1191,-4.1098,-4.0985,0.0,0.0,0.0,0.0,0.0,0.0,0.0,0.0,0.0,0.0,0.0,0.0,0.0,0.0,0.0,0.0,0.0,0.0,0.0,0.0,0.0,0.0,0.0,0.0,0.0,-0.8936,-0.888,-0.8912,-0.9704,-1.0048,-0.9989,-1.1262,-1.1316,-1.0384,0.0,0.0,0.0,0.0,0.0,0.0,-0.9949,-0.9986,0.0,0.0,0.0,0.0,-1.0175,-1.0205,0.0,0.0,0.0,0.0,0.0,0.0,0.0,0.0,-1.1699,-1.2329,-1.3794,0.0,-1.6259,-1.5567,-1.6406,-1.7119,0.0,-1.6394,-1.6592,-1.558,0.0,-1.5811,-1.7145,-1.6836,-1.76,0.0,0.0,0.0,0.0,0.0,0.0,0.0,0.0,0.0,0.0,0.0,0.0,0.0,0.0,0.0,0.0,-4.0101,-4.0101,-4.0101,-4.0356,-4.0489,-4.0489,-4.0489,-4.0489,-4.0489,-4.0489,-4.0489,-4.0489,-4.0489,-4.0581,0.0,0.0,0.0,-4.1007,-4.1144,-4.1191,-4.1191,-4.1191,-4.1191,-4.1191,-4.1074,-4.102,-4.0985,0.0,0.0,0.0,0.0,0.0,0.0,0.0,0.0,0.0,0.0,0.0,0.0,0.0,0.0,0.0,0.0,0.0,0.0,0.0,0.0,0.0,0.0,0.0,0.0,0.0,-0.8712,-0.8624,-0.8611,-0.933,-0.9769,-0.9988,-1.1106,-1.1237,0.0,0.0,0.0,0.0,0.0,0.0,0.0,-0.9825,0.0,0.0,0.0,0.0,0.0,-1.0175,-1.0205,0.0,-1.0248,-1.0234,-1.0198,0.0,0.0,0.0,0.0,-1.0848,-1.0944,-1.1412,-1.3628,-1.5692,-1.5257,-1.6096,-1.6943,-1.6532,0.0,0.0,0.0,0.0,-1.5816,-1.7167,0.0,0.0,0.0,0.0,0.0,0.0,0.0,0.0,0.0,0.0,0.0,0.0,0.0,0.0,0.0,0.0,0.0,0.0,-4.0267,-4.0267,-4.0267,-4.0422,-4.0489,-4.0489,-4.0489,-4.0489,-4.0489,-4.0489,-4.0489,-4.0489,-4.0489,-4.06,0.0,0.0,0.0,-4.1104,-4.1177,-4.1191,-4.1191,-4.1191,-4.1191,-4.1191,-4.1113,-4.1081,-4.1088,0.0,0.0,0.0,0.0,0.0,0.0,0.0,0.0,0.0,0.0,0.0,0.0,0.0,0.0,0.0,0.0,0.0,0.0,0.0,0.0,0.0,0.0,0.0,0.0,-0.8745,-0.851,-0.8377,-0.8325,-0.9074,-0.9555,0.0,0.0,-1.1359,0.0,0.0,0.0,0.0,0.0,0.0,0.0,0.0,0.0,0.0,0.0,0.0,0.0,0.0,0.0,0.0,-1.0218,-1.0219,-1.0194,-1.0202,0.0,0.0,0.0,0.0,0.0,-1.0695,-1.3696,-1.6595,-1.6133,-1.688,-1.7714,-1.7644,0.0,0.0,0.0,0.0,0.0,0.0,0.0,0.0,0.0,0.0,0.0,0.0,0.0,0.0,0.0,0.0,0.0,0.0,0.0,0.0,0.0,0.0,0.0,0.0,-4.0431,-4.0489,-4.0489,-4.0489,-4.0489,-4.0489,-4.0489,-4.0489,-4.0489,-4.0489,-4.0489,-4.0489,-4.0489,-4.062,-4.0789,0.0,0.0,-4.1191,-4.1191,-4.1191,-4.1191,-4.1191,-4.1191,-4.1191,-4.1191,-4.1191,-4.1191,0.0,0.0,0.0,0.0,0.0,0.0,0.0,0.0,0.0,0.0,0.0,0.0,0.0,0.0,0.0,0.0,0.0,0.0,0.0,0.0,0.0,0.0,0.0,0.0,0.0,0.0,0.0,0.0,0.0,0.0,-0.9761,-1.1921,-1.2604,-1.1962,0.0,0.0,0.0,0.0,0.0,0.0,0.0,0.0,0.0,0.0,0.0,0.0,0.0,0.0,0.0,-1.0265,-1.0253,-1.0195,-1.0193,0.0,0.0,0.0,0.0,0.0,-1.29,-1.5555,-1.6984,-1.4108,-1.564,-1.7698,-1.7021,0.0,0.0,0.0,0.0,0.0,0.0,0.0,0.0,0.0,0.0,0.0,0.0,0.0,0.0,0.0,0.0,0.0,0.0,0.0,0.0,0.0,0.0,0.0,0.0,-4.0123,-4.0489,-4.0489,-4.0489,-4.0489,-4.0489,-4.0489,-4.0489,-4.0489,-4.0489,-4.0489,-4.0489,-4.0489,-4.062,-4.0789,0.0,-4.0955,-4.1191,-4.1191,-4.1191,-4.1191,-4.1191,-4.1191,-4.1191,-4.1191,-4.1191,-4.1191,0.0,0.0,0.0,0.0,0.0,0.0,0.0,0.0,0.0,0.0,0.0,0.0,0.0,0.0,0.0,0.0,0.0,0.0,0.0,0.0,0.0,0.0,0.0,0.0,0.0,0.0,0.0,0.0,0.0,-0.9105,-0.985,-1.2401,-1.2663,-1.0973,0.0,0.0,0.0,0.0,0.0,-0.9621,0.0,0.0,0.0,0.0,0.0,0.0,0.0,0.0,0.0,0.0,-1.0254,-1.0254,-1.0254,0.0,0.0,0.0,0.0,0.0,-1.1721,-1.3907,-1.5574,-1.4435,-1.7404,-2.039,-1.9591,0.0,0.0,0.0,0.0,0.0,0.0,0.0,0.0,0.0,0.0,0.0,0.0,0.0,0.0,0.0,0.0,0.0,0.0,0.0,0.0,0.0,0.0,0.0,-3.8604,-3.9392,-3.9835,-3.9835,-4.0258,-4.0489,-4.0489,-4.0489,-4.0489,-4.0489,-4.0489,-4.0489,-4.0489,-4.0489,-4.062,-4.0789,0.0,-4.0955,-4.1191,-4.1191,-4.1191,-4.1191,-4.1191,-4.1191,-4.1191,-4.1191,-4.1191,-4.1191,0.0,0.0,0.0,0.0,0.0,0.0,0.0,0.0,0.0,0.0,0.0,0.0,0.0,0.0,0.0,0.0,0.0,0.0,0.0,0.0,0.0,0.0,0.0,0.0,0.0,0.0,-0.838,-0.8464,-0.8288,-0.8943,-1.0376,-1.2111,-1.185,-0.9955,0.0,0.0,0.0,0.0,-0.9722,-0.9733,0.0,0.0,0.0,0.0,0.0,0.0,0.0,0.0,0.0,0.0,0.0,0.0,0.0,0.0,0.0,-1.0293,-1.0307,-1.0438,-1.1022,-1.2768,-1.4648,-1.5662,-1.8838,-2.1718,-2.1701,0.0,0.0,0.0,0.0,0.0,0.0,0.0,0.0,0.0,0.0,0.0,0.0,0.0,0.0,0.0,0.0,0.0,0.0,0.0,0.0,0.0,0.0,0.0,-3.77,-3.8527,-3.8988,-3.8988,-3.9585,-3.9912,-3.9912,-4.0123,-4.0296,-4.0489,-4.0489,-4.0489,-4.0489,-4.0489,-4.06,-4.077,-4.0791,-4.0935,-4.1152,-4.1191,-4.1191,-4.1191,-4.1191,-4.1191,-4.1191,-4.1191,-4.1191,-4.1191,0.0,0.0,0.0,0.0,0.0,0.0,0.0,0.0,0.0,0.0,0.0,0.0,0.0,0.0,0.0,0.0,0.0,0.0,0.0,0.0,0.0,0.0,0.0,0.0,0.0,-0.8813,-0.9096,-0.9217,-0.9924,-1.0753,-1.1653,-1.0524,-1.0037,-1.0082,0.0,0.0,0.0,0.0,-0.9957,-0.981,-1.0013,0.0,0.0,0.0,0.0,0.0,0.0,0.0,0.0,0.0,0.0,0.0,0.0,0.0,-1.0215,-1.0273,-1.0293,-1.082,-1.3183,-1.455,-1.5682,-1.7301,-1.7999,0.0,-2.1175,-2.1645,0.0,-2.3605,0.0,0.0,0.0,0.0,0.0,0.0,0.0,0.0,0.0,0.0,0.0,0.0,0.0,0.0,0.0,0.0,0.0,0.0,0.0,0.0,-3.6796,-3.7623,-3.8084,-3.8084,-3.8142,-3.818,-3.818,-3.8969,-3.9758,-4.0489,-4.0489,-4.0489,-4.0489,-4.0489,-4.0581,-4.0712,-4.0771,-4.0877,-4.1016,-4.1152,-4.1191,-4.1191,-4.1191,-4.1191,-4.1191,-4.1191,-4.1191,-4.1191,0.0,0.0,0.0,0.0,0.0,0.0,0.0,0.0,0.0,0.0,0.0,0.0,0.0,0.0,0.0,0.0,0.0,0.0,0.0,0.0,0.0,0.0,0.0,-0.8249,-0.8518,-0.8366,-0.8591,-0.9247,-0.9431,-0.9883,-1.0608,-1.0077,0.0,0.0,0.0,0.0,0.0,0.0,0.0,-0.9989,-1.0102,-1.016,0.0,0.0,0.0,0.0,0.0,0.0,0.0,0.0,-1.0209,-1.0196,-1.0205,-1.0197,-1.0215,-1.0273,-1.0293,-1.0508,-1.1484,-1.3528,-1.5792,-1.7434,-1.8648,0.0,0.0,-2.3294,-2.4998,-2.5688,0.0,0.0,0.0,0.0,0.0,0.0,0.0,0.0,0.0,0.0,0.0,0.0,0.0,0.0,0.0,0.0,0.0,0.0,0.0,0.0,0.0,-3.6738,-3.7199,-3.7199,-3.7719,-3.8007,-3.8007,-3.8334,-3.8642,-3.895,-3.9988,-4.0489,-4.0489,-4.0489,-4.0581,-4.0696,-4.0764,-4.0879,-4.1016,-4.1133,-4.1191,-4.1191,-4.1191,-4.1191,-4.1191,-4.1191,-4.1191,-4.1191,0.0,0.0,0.0,0.0,0.0,0.0,0.0,0.0,0.0,0.0,0.0,0.0,0.0,0.0,0.0,0.0,0.0,0.0,0.0,0.0,0.0,0.0,0.0,-0.7906,-0.8264,-0.8138,-0.8436,-0.923,-0.9356,-0.9491,-0.9593,0.0,0.0,0.0,0.0,0.0,0.0,0.0,0.0,-1.0141,-1.0172,-1.0195,0.0,0.0,0.0,0.0,0.0,0.0,0.0,0.0,-1.0175,-1.0194,-1.0194,-1.02,-1.0203,-1.0273,-1.0684,-1.1113,-1.1113,-1.3426,-1.6126,-1.7474,0.0,0.0,-2.2134,-2.4389,-2.6422,0.0,0.0,0.0,0.0,0.0,0.0,0.0,0.0,0.0,0.0,0.0,0.0,0.0,0.0,0.0,0.0,0.0,0.0,0.0,0.0,0.0,0.0,-3.6026,-3.6334,-3.6334,-3.6911,-3.7219,-3.7219,-3.7469,-3.7584,-3.7603,-3.9027,-3.9854,-4.0123,-4.0373,-4.0562,-4.0639,-4.0754,-4.0848,-4.0943,-4.1131,-4.1191,-4.1191,-4.1191,-4.1191,-4.1191,-4.1191,-4.1191,-4.1191,0.0,0.0,0.0,0.0,0.0,0.0,0.0,0.0,0.0,0.0,0.0,0.0,0.0,0.0,0.0,0.0,0.0,0.0,0.0,-0.5547,-0.6102,-0.5717,-0.7166,-0.7865,-0.76,-0.8259,-0.8825,-0.9295,-1.0161,-1.0017,-0.892,-0.9716,0.0,0.0,0.0,0.0,0.0,0.0,0.0,0.0,-1.0198,-1.0198,-1.0195,0.0,0.0,0.0,0.0,0.0,0.0,0.0,-1.0133,-1.0194,-1.0194,-1.0214,-1.0212,-1.0287,-1.1523,-1.2891,-1.2891,-1.4766,-1.6896,0.0,0.0,0.0,0.0,-2.4739,-2.5814,0.0,0.0,0.0,0.0,0.0,0.0,0.0,0.0,0.0,0.0,0.0,0.0,0.0,0.0,0.0,0.0,0.0,0.0,0.0,0.0,0.0,0.0,-3.5493,-3.5493,-3.5493,-3.5493,-3.5493,-3.5493,-3.6295,-3.6699,-3.6699,-3.7565,-3.845,-3.9315,-4.0123,-4.0489,-4.0508,-4.0716,-4.081,-4.0816,-4.1082,-4.1191,-4.1191,-4.1191,-4.1191,-4.1191,-4.1191,-4.1191,-4.1191,0.0,0.0,0.0,0.0,0.0,0.0,0.0,0.0,0.0,0.0,0.0,0.0,0.0,0.0,0.0,0.0,0.0,0.0,0.0,0.0,-0.5326,-0.5824,-0.682,-0.7533,-0.7874,0.0,-0.8816,-0.8936,-0.931,-0.9459,0.0,0.0,0.0,-1.01,0.0,0.0,0.0,0.0,0.0,0.0,-1.0194,-1.0198,-1.0198,0.0,0.0,0.0,0.0,0.0,0.0,0.0,0.0,0.0,-1.0194,-1.061,-1.1002,-1.0462,-1.1523,-1.2751,-1.2087,-1.5122,0.0,0.0,0.0,0.0,0.0,0.0,0.0,0.0,0.0,0.0,0.0,0.0,0.0,0.0,0.0,0.0,0.0,0.0,0.0,0.0,0.0,0.0,0.0,0.0,0.0,0.0,0.0,0.0,0.0,-3.5223,-3.5304,-3.5493,-3.5493,-3.5493,-3.5493,-3.5738,-3.5872,-3.5872,-3.6699,-3.7853,-3.9296,-3.9546,-3.995,-4.0508,-4.0716,-4.081,-4.0816,-4.1082,-4.1191,-4.1191,-4.1191,-4.1191,-4.1191,-4.1191,-4.1191,-4.1191,0.0,0.0,0.0,0.0,0.0,0.0,0.0,0.0,0.0,0.0,0.0,-0.3652,0.0,0.0,0.0,0.0,0.0,0.0,0.0,0.0,-0.4787,-0.5317,-0.6267,-0.7386,-0.8647,-0.8833,-0.8985,0.0,0.0,0.0,0.0,0.0,-0.9654,-0.9784,0.0,-0.9877,0.0,0.0,0.0,0.0,-0.9984,-0.9959,-0.9851,0.0,0.0,0.0,0.0,0.0,0.0,0.0,0.0,0.0,-1.0194,0.0,-1.0995,-1.0838,-1.197,-1.3417,-1.3918,0.0,0.0,0.0,0.0,0.0,0.0,0.0,0.0,0.0,0.0,0.0,0.0,0.0,0.0,0.0,0.0,0.0,0.0,0.0,0.0,0.0,0.0,0.0,0.0,0.0,0.0,0.0,0.0,0.0,0.0,-3.4944,-3.5035,-3.519,-3.519,-3.5223,-3.5354,-3.5354,-3.5383,-3.5526,-3.5988,-3.6949,-3.8277,-3.8623,-3.9046,-3.9542,-4.0088,-4.0335,-4.0418,-4.0972,-4.1191,-4.1191,-4.1191,-4.1191,-4.1191,-4.1191,-4.1191,-4.1191,0.0,0.0,-0.3597,-0.3581,0.0,0.0,0.0,0.0,0.0,0.0,-0.3468,-0.3511,0.0,0.0,0.0,-0.3758,0.0,0.0,0.0,0.0,-0.449,-0.449,-0.5684,-0.7379,-0.9581,-0.9306,-0.9295,-0.9599,-0.9358,0.0,0.0,0.0,-0.9362,-0.926,0.0,-0.9563,0.0,0.0,0.0,-0.9325,-0.9659,-0.9588,-0.9352,-0.9745,0.0,0.0,0.0,0.0,0.0,0.0,0.0,0.0,-1.0198,-1.0306,-1.0546,-1.1191,-1.2563,-1.443,0.0,0.0,0.0,0.0,0.0,0.0,0.0,0.0,0.0,0.0,0.0,0.0,0.0,0.0,0.0,0.0,0.0,0.0,0.0,0.0,0.0,0.0,0.0,0.0,0.0,0.0,0.0,0.0,0.0,0.0,0.0,-3.4615,-3.4674,-3.4694,-3.4694,-3.4832,-3.507,-3.5051,-3.5207,-3.546,-3.546,-3.5864,-3.6622,-3.7488,-3.793,-3.806,-3.9053,-3.9555,-3.9766,-4.0703,-4.1133,-4.1191,-4.1191,-4.1191,-4.1191,-4.1191,-4.1191,-4.1191,0.0,0.0,-0.3557,-0.3394,0.0,0.0,0.0,0.0,-0.3103,-0.3414,-0.3408,-0.3387,-0.3452,-0.3357,0.0,-0.3628,-0.3759,0.0,0.0,0.0,-0.4432,-0.4432,-0.5882,-0.746,-0.9117,-0.9323,-0.9466,-0.9599,-0.9534,0.0,0.0,0.0,0.0,-0.8992,0.0,-0.9401,0.0,0.0,0.0,-0.9321,-0.9543,-0.9512,-0.9344,-0.9742,-1.0021,0.0,0.0,0.0,0.0,0.0,0.0,0.0,-1.0191,-1.0688,-1.1144,-1.0621,-1.199,-1.3942,0.0,0.0,0.0,0.0,0.0,0.0,0.0,0.0,0.0,0.0,0.0,0.0,0.0,0.0,0.0,0.0,0.0,0.0,0.0,0.0,0.0,0.0,0.0,0.0,0.0,0.0,0.0,0.0,0.0,0.0,-3.3359,-3.3956,-3.4423,-3.4694,-3.4694,-3.4714,-3.4793,-3.4793,-3.4926,0.0,-3.519,-3.54,-3.5795,-3.6622,-3.7411,-3.8171,-3.8472,-3.8999,-3.9726,-4.0059,-4.0586,-4.1191,-4.1191,-4.1191,-4.1191,-4.1191,-4.1191,-4.1191,0.0,0.0,0.0,0.0,0.0,0.0,0.0,0.0,-0.3118,-0.3201,-0.3266,-0.3322,-0.3396,-0.3403,0.0,0.0,-0.3803,-0.3948,0.0,0.0,0.0,0.0,-0.5826,-0.697,-0.7556,-0.84,-0.8876,-0.8986,0.0,0.0,0.0,0.0,0.0,-0.8902,0.0,-0.9282,0.0,0.0,-0.9573,-0.9229,-0.9466,-0.9437,-0.9288,-0.9694,-0.999,-1.0194,-1.0194,0.0,0.0,0.0,0.0,0.0,0.0,0.0,-1.0859,-1.0758,-1.1759,-1.3325,0.0,0.0,0.0,0.0,0.0,0.0,0.0,0.0,0.0,0.0,0.0,0.0,0.0,0.0,0.0,0.0,0.0,0.0,0.0,0.0,0.0,0.0,0.0,0.0,0.0,0.0,0.0,0.0,0.0,-3.2084,-3.2218,-3.263,-3.3128,-3.3682,-3.3682,-3.3938,-3.4445,-3.4445,-3.4675,-3.5105,-3.5105,-3.5239,-3.5512,-3.593,-3.6411,-3.6944,-3.7445,-3.7967,-3.845,-3.9041,-3.9785,-4.0586,-4.0586,-4.082,-4.1191,-4.1191,-4.1191,-4.1191,0.0,0.0,0.0,0.0,0.0,0.0,0.0,0.0,0.0,-0.292,-0.3094,-0.3248,-0.3293,-0.3419,-0.3592,0.0,0.0,0.0,-0.4179,0.0,0.0,0.0,-0.5625,-0.6319,-0.619,-0.7407,-0.8043,0.0,0.0,0.0,0.0,0.0,0.0,-0.8908,0.0,0.0,0.0,-0.9888,-0.9674,-0.9281,-0.9433,-0.9385,-0.9266,-0.9644,-0.996,-1.0175,-1.0175,-1.0156,-1.0094,-1.0121,0.0,0.0,0.0,0.0,-1.0326,-1.093,-1.1397,-1.2351,0.0,0.0,0.0,0.0,0.0,0.0,0.0,0.0,0.0,0.0,0.0,0.0,0.0,0.0,0.0,0.0,0.0,0.0,0.0,0.0,0.0,0.0,0.0,0.0,0.0,0.0,0.0,0.0,0.0,-3.1182,-3.1182,-3.1311,-3.1715,-3.2375,-3.2394,-3.2815,-3.3719,-3.3844,-3.422,-3.4805,-3.5045,-3.5289,-3.5493,-3.5493,-3.5493,-3.5565,-3.6386,-3.6856,-3.7073,-3.7999,-3.8887,-3.9687,-3.9687,-4.0117,-4.0742,-4.0742,-4.0859,-4.0976,0.0,0.0,0.0,0.0,0.0,0.0,0.0,0.0,0.0,0.0,-0.2928,-0.3037,-0.3273,-0.3425,-0.3536,-0.3636,-0.3749,-0.3891,0.0,0.0,0.0,0.0,-0.5324,-0.5936,-0.6927,-0.7472,-0.7533,0.0,0.0,0.0,0.0,0.0,0.0,-0.891,0.0,0.0,0.0,0.0,-0.9993,-0.9855,-0.9597,-0.9413,-0.9329,-0.9671,-0.9936,-1.0113,-1.0113,-1.0113,-1.0105,-1.0173,-1.0148,0.0,0.0,0.0,0.0,0.0,-1.0277,0.0,0.0,0.0,0.0,0.0,0.0,0.0,0.0,0.0,0.0,0.0,0.0,0.0,0.0,0.0,0.0,0.0,0.0,0.0,0.0,0.0,0.0,0.0,0.0,0.0,0.0,0.0,0.0,0.0,-2.9971,-3.0356,-3.0356,-3.1017,-3.1439,-3.1549,-3.1549,-3.1629,-3.1771,-3.2488,-3.3106,-3.3639,-3.4856,-3.5479,-3.5493,-3.5493,-3.5493,-3.5526,-3.5757,-3.6303,-3.7014,-3.7333,-3.7988,-3.8769,-3.8769,-3.8848,-3.8945,-3.8945,-3.9434,-4.0054,0.0,0.0,0.0,0.0,0.0,0.0,0.0,0.0,0.0,0.0,0.0,-0.2976,-0.3167,-0.3369,-0.3557,-0.3703,-0.3741,0.0,0.0,0.0,0.0,0.0,0.0,-0.4926,-0.5456,-0.6574,-0.6618,0.0,0.0,0.0,0.0,-0.8739,-0.8816,0.0,0.0,0.0,0.0,0.0,-1.0109,-1.0037,-0.9863,-1.0061,-1.0436,-1.01,-1.0359,-1.0826,-1.0294,-1.0097,-1.0082,-0.9971,-0.9922,-0.9934,-0.9963,0.0,0.0,0.0,0.0,0.0,0.0,0.0,0.0,0.0,0.0,0.0,0.0,0.0,0.0,0.0,0.0,0.0,0.0,0.0,0.0,0.0,0.0,0.0,0.0,0.0,0.0,0.0,0.0,0.0,0.0,0.0,0.0,0.0,-2.9347,-2.9549,-2.9549,-2.9861,-3.0265,-3.0705,-3.0723,-3.0944,-3.1384,-3.1751,-3.2405,-3.3412,-3.4168,-3.487,-3.5493,-3.5493,-3.5493,-3.5526,-3.5603,-3.5867,-3.6288,-3.6454,-3.7051,-3.7871,-3.7871,-3.8164,-3.8594,-3.8594,-3.8848,-3.9155,0.0,0.0,0.0,0.0,0.0,0.0,0.0,0.0,0.0,0.0,0.0,-0.3038,-0.3147,0.0,0.0,0.0,-0.375,0.0,0.0,0.0,0.0,0.0,0.0,0.0,-0.4269,-0.5464,0.0,0.0,0.0,0.0,-0.8309,-0.8028,-0.8878,0.0,-1.0831,0.0,0.0,0.0,0.0,-1.0544,-1.043,-1.0664,-1.1103,-1.1105,-1.1128,-1.1128,-1.1038,0.0,0.0,0.0,0.0,0.0,0.0,0.0,0.0,0.0,0.0,0.0,0.0,0.0,0.0,0.0,0.0,0.0,0.0,0.0,0.0,0.0,0.0,0.0,0.0,0.0,0.0,0.0,0.0,0.0,0.0,0.0,0.0,0.0,0.0,0.0,0.0,0.0,0.0,0.0,-2.8994,-2.8994,-2.8994,-2.8994,-2.9292,-2.9879,-2.9898,-3.0173,-3.0779,-3.1059,-3.1782,-3.2994,-3.3327,-3.4052,-3.5072,-3.5133,-3.5295,-3.5493,-3.5584,-3.5628,-3.5682,-3.5802,-3.6261,-3.6886,-3.6886,-3.7296,-3.7862,-3.7862,-3.7999,-3.818,0.0,0.0,0.0,0.0,0.0,0.0,0.0,0.0,0.0,0.0,0.0,-0.328,-0.3285,-0.3475,-0.3605,-0.3612,-0.3781,0.0,0.0,0.0,0.0,0.0,0.0,0.0,0.0,0.0,0.0,0.0,0.0,0.0,-0.6743,-0.7525,-0.979,-1.3238,-1.3943,-1.4514,-1.474,0.0,0.0,-1.179,-1.1533,-1.0953,-1.0533,-1.2973,-1.2347,-1.0467,0.0,0.0,0.0,0.0,0.0,0.0,0.0,0.0,0.0,0.0,0.0,0.0,0.0,0.0,0.0,0.0,0.0,0.0,0.0,0.0,0.0,0.0,0.0,0.0,0.0,0.0,0.0,0.0,0.0,0.0,0.0,0.0,0.0,0.0,0.0,0.0,0.0,0.0,0.0,0.0,-2.8994,-2.8994,-2.8994,-2.8994,-2.9012,-2.9049,-2.9049,-2.9067,-2.9104,-3.0142,-3.1075,-3.188,-3.2405,-3.3077,-3.391,-3.415,-3.4718,-3.5493,-3.5584,-3.5597,-3.5618,-3.5674,-3.5736,-3.5775,-3.5775,-3.5814,-3.5859,-3.5859,-3.6365,-3.7058,0.0,0.0,0.0,0.0,0.0,0.0,0.0,0.0,0.0,0.0,0.0,0.0,0.0,-0.3584,-0.3646,-0.3781,-0.4058,0.0,0.0,0.0,0.0,0.0,0.0,0.0,0.0,0.0,0.0,0.0,0.0,-0.6055,-0.7456,-0.8192,-0.9006,-0.9918,-1.0954,-1.1895,-1.2585,-1.0882,0.0,0.0,-1.0753,-1.0987,-1.1506,-1.2826,-1.4316,-1.5594,0.0,0.0,0.0,0.0,0.0,0.0,0.0,-0.9897,-1.0044,-1.0082,0.0,0.0,0.0,0.0,0.0,0.0,0.0,0.0,0.0,0.0,0.0,0.0,0.0,0.0,0.0,0.0,0.0,0.0,0.0,0.0,0.0,0.0,0.0,0.0,0.0,0.0,0.0,0.0,0.0,0.0,0.0,-2.8994,-2.8994,-2.8994,-2.8994,-2.8994,-2.8994,-2.8994,-2.8994,-2.9388,-3.0064,-3.1038,-3.1222,-3.1916,-3.302,-3.3134,-3.3719,-3.4661,-3.468,-3.5045,-3.5603,-3.5635,-3.5662,-3.5701,-3.5701,-3.5701,-3.5701,-3.5701,-3.5905,-3.6165,0.0,0.0,0.0,-0.29,0.0,-0.2726,-0.2794,-0.282,-0.2978,-0.3351,0.0,0.0,0.0,0.0,-0.3803,-0.4051,-0.4272,-0.4456,-0.4589,0.0,0.0,0.0,0.0,0.0,0.0,0.0,0.0,0.0,0.0,0.0,0.0,-0.8234,-0.8529,-0.7887,-0.845,-0.9633,0.0,0.0,0.0,-1.0583,0.0,0.0,-1.2668,0.0,-1.5968,0.0,0.0,0.0,0.0,0.0,0.0,0.0,0.0,-1.0319,-1.0052,-1.0105,-1.0093,0.0,0.0,0.0,0.0,0.0,0.0,0.0,0.0,0.0,0.0,0.0,0.0,0.0,0.0,0.0,0.0,0.0,0.0,0.0,0.0,0.0,0.0,0.0,0.0,0.0,0.0,0.0,0.0,0.0,0.0,0.0,-2.8187,-2.8187,-2.8338,-2.8594,-2.8847,-2.8994,-2.8994,-2.8994,-2.937,-3.0071,-3.0155,-3.0809,-3.1931,-3.2083,-3.2699,-3.367,-3.3743,-3.4449,-3.5584,-3.5584,-3.5603,-3.5641,-3.5641,-3.5641,-3.5641,-3.5641,-3.5641,-3.5641,-0.2906,-0.2911,-0.2904,-0.2904,-0.2915,-0.2881,-0.2824,-0.3097,-0.3374,-0.3576,0.0,0.0,0.0,0.0,0.0,-0.4407,-0.4449,-0.456,-0.4787,-0.4926,0.0,0.0,0.0,0.0,0.0,0.0,0.0,0.0,0.0,0.0,0.0,0.0,-0.8445,-0.7705,-0.7027,-0.8317,-1.0952,0.0,-1.0348,-1.1316,0.0,-1.2594,-1.3814,0.0,0.0,0.0,-1.9435,-1.8452,0.0,0.0,0.0,0.0,0.0,-1.1262,-1.0152,-1.0194,-1.0171,0.0,0.0,0.0,0.0,0.0,0.0,0.0,0.0,0.0,0.0,0.0,0.0,0.0,0.0,0.0,0.0,0.0,0.0,0.0,0.0,0.0,0.0,0.0,0.0,0.0,0.0,0.0,0.0,0.0,-2.6612,-2.6612,-2.6612,-2.6612,-2.6961,-2.7732,-2.8558,-2.8957,-2.8957,-2.8975,-2.8994,-2.9017,-2.9267,-2.9804,-3.0592,-3.1042,-3.173,-3.2562,-3.2774,-3.382,-3.543,-3.5449,-3.5468,-3.5468,-3.5474,-3.5493,-3.5493,-3.5493,-3.5493,-3.5526,-0.3046,-0.3115,-0.3186,-0.3186,-0.3114,-0.3099,-0.3272,-0.3298,-0.3374,0.0,0.0,0.0,-0.3943,-0.4906,-0.5448,-0.5141,-0.5559,-0.5533,-0.4773,-0.486,-0.4916,-0.4878,-0.4925,0.0,0.0,0.0,0.0,0.0,0.0,0.0,0.0,0.0,0.0,0.0,-0.6785,-0.7724,-0.907,-0.8927,0.0,0.0,-1.0671,-1.1513,0.0,0.0,0.0,0.0,0.0,-1.8484,0.0,0.0,-1.5807,-1.5042,0.0,0.0,-1.0925,-1.031,-1.0493,-1.0774,-1.0244,0.0,0.0,0.0,0.0,0.0,0.0,0.0,0.0,0.0,0.0,0.0,0.0,0.0,0.0,0.0,0.0,0.0,0.0,0.0,0.0,0.0,0.0,0.0,0.0,0.0,0.0,0.0,-2.6612,-2.6612,-2.6612,-2.6612,-2.6704,-2.6924,-2.7714,-2.8136,-2.8136,-2.8723,-2.8994,-2.8994,-2.9085,-2.9314,-2.9749,-2.9869,-3.056,-3.1669,-3.1728,-3.2459,-3.368,-3.4295,-3.4564,-3.4622,-3.5257,-3.5493,-3.5526,-3.5565,-3.5584,-3.5584,-0.3177,-0.3246,-0.3377,-0.3599,-0.3562,-0.3687,-0.417,-0.4025,-0.4016,0.0,0.0,0.0,-0.4887,-0.5748,-0.6119,-0.5617,-0.5955,-0.5797,-0.4852,-0.489,-0.4941,-0.4941,-0.4997,-0.5011,0.0,0.0,0.0,0.0,0.0,0.0,0.0,0.0,0.0,-0.5641,-0.5978,-0.6935,-0.8273,-0.7812,0.0,0.0,-1.0605,0.0,0.0,-1.5696,-1.7683,0.0,0.0,0.0,-1.8389,-1.7587,-1.6883,0.0,0.0,-1.2208,-1.2262,-1.1359,-1.1656,0.0,-1.1315,0.0,0.0,0.0,0.0,0.0,0.0,0.0,0.0,0.0,0.0,0.0,0.0,0.0,0.0,0.0,0.0,0.0,0.0,0.0,0.0,0.0,0.0,0.0,0.0,-2.3706,-2.4122,-2.5113,-2.5172,-2.5234,-2.5382,-2.5834,-2.6057,-2.5892,-2.6805,-2.7229,-2.71,-2.7684,-2.8172,-2.8503,-2.8503,-2.8758,-2.9246,-2.9454,-2.9943,-3.0649,-3.0854,-3.1302,-3.1968,-3.2852,-3.3372,-3.3699,-3.4243,-3.4686,-3.5007,-3.5109,-3.5354,-3.5648,0.0,-0.3306,-0.3463,-0.4003,-0.4124,-0.4424,-0.5228,-0.4999,-0.5066,0.0,-0.5584,-0.5562,-0.6418,-0.6596,-0.649,-0.6069,-0.6023,-0.5745,-0.5086,-0.5018,-0.4995,-0.4993,-0.5049,-0.5066,-0.5014,-0.5072,0.0,0.0,0.0,0.0,0.0,0.0,0.0,-0.5098,-0.4969,-0.6154,-0.8157,-0.7007,0.0,-0.997,-1.144,-1.1963,0.0,0.0,-1.8507,0.0,-1.9031,-1.9237,-1.889,-1.9225,-1.8109,0.0,0.0,-1.4589,-1.406,-1.296,-1.3289,0.0,-1.2991,-1.2819,0.0,0.0,0.0,0.0,-1.6247,-1.5436,0.0,0.0,0.0,0.0,0.0,0.0,0.0,0.0,0.0,0.0,0.0,0.0,0.0,0.0,0.0,0.0,-2.2669,-2.2695,-2.2848,-2.3165,-2.3189,-2.3346,-2.3628,-2.4632,-2.5074,-2.4779,-2.5859,-2.6322,-2.6041,-2.6392,-2.6961,-2.7658,-2.7702,-2.8125,-2.892,-2.9364,-2.9638,-2.9767,-3.0194,-3.0424,-3.0564,-3.1357,-3.2107,-3.2795,-3.2974,-3.35,-3.4186,-3.4301,-3.4817,-3.5441,-0.3306,-0.3306,-0.3465,-0.4,-0.428,-0.4697,-0.5488,-0.5679,-0.5874,-0.6263,-0.622,-0.6559,-0.7631,-0.7682,-0.7567,-0.7415,-0.7081,-0.6587,-0.5913,-0.532,-0.5001,-0.4996,-0.5019,-0.5039,-0.5075,-0.5034,-0.5033,0.0,0.0,0.0,0.0,0.0,0.0,-0.5097,-0.5082,-0.6056,-0.7726,-0.7407,0.0,-1.0927,-1.3094,0.0,-1.5641,-1.79,-1.8808,-1.8904,-1.8939,-1.9044,-1.924,0.0,-1.9838,-1.9665,0.0,0.0,0.0,-1.4137,0.0,-1.5289,-1.4687,-1.484,-1.4953,-1.4169,0.0,0.0,0.0,-1.3349,0.0,0.0,0.0,0.0,0.0,0.0,0.0,0.0,0.0,0.0,0.0,0.0,0.0,0.0,0.0,0.0,-2.2669,-2.2695,-2.2848,-2.3165,-2.3189,-2.3212,-2.3282,-2.3754,-2.3991,-2.3927,-2.504,-2.5601,-2.5541,-2.6243,-2.6686,-2.6833,-2.7002,-2.749,-2.8273,-2.8537,-2.9179,-3.0121,-3.0198,-3.0379,-3.0587,-3.0757,-3.1331,-3.2165,-3.2884,-3.3263,-3.341,-3.3434,-3.3548,-3.3784,-0.3387,-0.3659,-0.4087,-0.4642,-0.5211,-0.5878,-0.6715,-0.6767,-0.6916,-0.7517,-0.76,-0.7819,-0.8392,-0.8447,-0.8336,-0.8084,-0.7897,-0.7327,-0.6222,-0.5867,-0.5498,-0.5019,-0.4995,-0.5024,-0.5058,-0.5019,-0.5038,0.0,0.0,0.0,-0.5099,-0.511,-0.5337,-0.574,-0.574,-0.6678,-0.8242,0.0,-0.9034,-1.0777,-1.2769,0.0,-1.651,-1.8466,-1.9343,-1.9537,-1.943,-1.9734,-2.0084,-1.9307,-1.9738,0.0,0.0,-1.7965,-1.8422,0.0,-1.7092,-1.7679,-1.6469,-1.6346,-1.638,-1.5676,0.0,0.0,0.0,0.0,0.0,0.0,0.0,0.0,0.0,0.0,0.0,0.0,0.0,0.0,0.0,0.0,0.0,0.0,0.0,0.0,-2.1961,-2.2278,-2.2643,-2.2923,-2.3117,-2.3259,-2.3437,-2.3774,-2.3876,-2.3714,-2.4438,-2.4778,-2.4705,-2.5281,-2.5782,-2.6302,-2.6409,-2.6877,-2.7718,-2.7909,-2.8607,-2.9604,-2.9711,-3.0098,-3.0656,-3.0603,-3.0888,-3.1347,-3.1744,-3.2182,-3.255,-3.2555,-3.2826,-3.3251,-0.3536,-0.4111,-0.4722,-0.5182,-0.6058,-0.6942,-0.7649,-0.7703,-0.7939,-0.8723,-0.8825,-0.8843,-0.8883,-0.9024,-0.9049,-0.8896,-0.866,-0.8055,-0.6978,0.0,0.0,-0.5494,-0.53,-0.5217,-0.5224,-0.5079,-0.5023,0.0,0.0,0.0,-0.5099,-0.5101,-0.5561,-0.6403,0.0,0.0,0.0,0.0,0.0,-1.1028,0.0,-1.4098,-1.5905,-1.8393,-1.9335,-1.9392,-1.9826,-2.0474,-2.0895,-1.9476,0.0,-2.025,-1.9195,-1.9583,0.0,0.0,0.0,0.0,0.0,0.0,0.0,0.0,0.0,-1.6189,0.0,0.0,0.0,-1.5687,0.0,0.0,0.0,0.0,0.0,0.0,0.0,0.0,0.0,0.0,0.0,0.0,0.0,0.0,0.0,-2.1523,-2.2064,-2.2737,-2.2653,-2.2874,-2.362,-2.402,-2.4097,-2.3806,-2.4135,-2.4248,-2.4155,-2.4408,-2.4965,-2.5778,-2.5831,-2.6298,-2.7136,-2.7348,-2.7948,-2.8831,-2.9009,-2.959,-3.0451,-3.0383,-3.0486,-3.0678,-3.0611,-3.1026,-3.1655,-3.1643,-3.2076,-3.2702,-0.3759,-0.4353,-0.4844,-0.479,-0.5841,-0.673,-0.683,-0.7862,-0.8706,-0.8874,-0.8897,-0.8977,0.0,0.0,0.0,0.0,0.0,0.0,-0.9432,0.0,-0.73,-0.714,-0.6384,-0.6001,-0.6062,-0.5373,-0.5,-0.5018,0.0,0.0,-0.5097,-0.5108,-0.5561,-0.6395,-0.6395,0.0,0.0,0.0,-1.0613,0.0,-1.4363,-1.428,0.0,-1.6645,-1.7664,-1.7858,-1.9377,-2.0463,-2.1142,0.0,-2.134,-2.1763,0.0,-2.0285,-2.0641,0.0,0.0,0.0,0.0,0.0,0.0,0.0,-1.9086,0.0,0.0,0.0,-1.573,-1.3661,0.0,0.0,0.0,0.0,0.0,0.0,0.0,0.0,0.0,0.0,0.0,0.0,0.0,0.0,0.0,-2.0285,-2.082,-2.2982,-2.1358,-2.1234,-2.3404,-2.4008,-2.4275,-2.4222,-2.4548,-2.4707,-2.4711,-2.4762,-2.4842,-2.503,-2.5215,-2.574,-2.6612,-2.6801,-2.7371,-2.8196,-2.8229,-2.8749,-2.9554,-2.9547,-2.9959,-3.0617,-3.06,-3.0656,-3.0741,-3.0689,-3.0714,-3.091,-0.3952,-0.4914,-0.563,-0.5183,-0.6661,-0.7742,-0.7235,-0.8387,-0.9323,-0.9367,-0.9233,0.0,0.0,0.0,0.0,0.0,0.0,-1.0185,0.0,0.0,-0.7947,-0.7372,-0.6984,-0.6584,-0.6161,-0.5809,-0.5424,-0.4997,-0.5029,0.0,0.0,-0.552,-0.6205,-0.7059,-0.7559,0.0,-1.0313,0.0,0.0,0.0,0.0,0.0,0.0,-1.7357,-1.8971,-1.9163,-1.9882,-2.0666,-2.1226,0.0,-2.0779,0.0,0.0,0.0,0.0,0.0,0.0,0.0,0.0,0.0,0.0,0.0,0.0,0.0,-1.6137,0.0,-1.5684,0.0,0.0,0.0,0.0,0.0,0.0,0.0,0.0,0.0,0.0,0.0,0.0,0.0,0.0,0.0,0.0,0.0,0.0,0.0,-2.064,-2.0733,-2.347,-2.3836,-2.417,-2.4629,-2.4779,-2.4904,-2.4973,-2.4975,-2.5027,-2.5123,-2.522,-2.5473,-2.5854,-2.5954,-2.6484,-2.7359,-2.7346,-2.7835,-2.864,-2.8603,-2.9062,-2.9778,-2.9738,-3.0056,-3.0525,-3.0467,-3.0448,-3.0487,-0.4724,0.0,0.0,0.0,-0.7115,-0.827,-0.8219,-0.9127,-1.0142,-1.1075,0.0,0.0,-0.9703,-1.1868,0.0,0.0,0.0,-1.1661,0.0,0.0,-0.899,-0.8234,-0.7825,0.0,0.0,0.0,-0.6064,-0.5306,-0.5323,-0.5329,0.0,0.0,-0.6817,-0.7921,0.0,-0.9778,-1.1378,0.0,0.0,-1.2773,-1.3561,-1.415,-1.491,-1.8084,-1.9727,-2.0326,-2.0258,-2.0655,-2.1017,-1.9775,-2.0369,0.0,-2.1595,0.0,0.0,0.0,0.0,0.0,-2.048,0.0,0.0,0.0,0.0,0.0,0.0,0.0,0.0,0.0,0.0,0.0,0.0,0.0,0.0,0.0,0.0,0.0,0.0,0.0,0.0,0.0,0.0,0.0,0.0,0.0,0.0,0.0,0.0,-1.9573,-2.2833,-2.3286,-2.3818,-2.4645,-2.4886,-2.5067,-2.5182,-2.5171,-2.5234,-2.5342,-2.5342,-2.5381,-2.5439,-2.5439,-2.5796,-2.6424,-2.6417,-2.6911,-2.7691,-2.7652,-2.8093,-2.8863,-2.9036,-2.9525,-3.014,-3.0333,-3.0398,-3.0398,-0.6436,-0.6672,0.0,0.0,0.0,-0.7651,-0.971,-1.0063,-1.1277,0.0,0.0,0.0,0.0,0.0,0.0,0.0,0.0,-1.3131,-1.2646,0.0,-1.0797,-1.0517,-0.9179,-0.8452,0.0,0.0,-0.6867,-0.6057,-0.6134,-0.6188,0.0,0.0,0.0,0.0,-0.8881,-0.9827,-1.1446,-1.2263,-1.3947,-1.6111,-1.6988,-1.8317,-1.9592,0.0,-1.8697,-2.0369,-2.0174,0.0,0.0,-2.0308,-2.0859,0.0,0.0,0.0,0.0,0.0,0.0,0.0,0.0,0.0,0.0,-1.8652,0.0,0.0,0.0,0.0,-1.7502,0.0,0.0,0.0,0.0,0.0,-1.5895,-1.4251,-1.4015,0.0,0.0,0.0,0.0,0.0,0.0,0.0,0.0,0.0,0.0,0.0,0.0,0.0,-2.1064,-2.2259,-2.3235,-2.4098,-2.4881,-2.5312,-2.539,-2.5395,-2.5434,-2.5486,-2.5486,-2.5486,-2.5505,-2.5505,-2.5486,-2.5438,-2.5447,-2.5909,-2.664,-2.6659,-2.7159,-2.8025,-2.8794,-2.9121,-2.9236,-3.0102,-3.0398,-3.0398,0.0,0.0,0.0,0.0,0.0,-0.9096,-1.0077,-1.0236,0.0,0.0,0.0,0.0,0.0,0.0,-1.4877,0.0,0.0,-1.4045,-1.3837,-1.2012,0.0,0.0,0.0,-0.9286,0.0,0.0,-0.7689,-0.6904,-0.6957,-0.7032,0.0,0.0,0.0,0.0,0.0,-1.0656,0.0,0.0,0.0,0.0,0.0,-1.8207,-1.9693,0.0,0.0,-2.0125,-2.0069,-2.003,0.0,-1.9981,-2.0547,-2.1376,-2.1952,-2.2411,-2.2784,-2.3014,-2.3009,-2.2797,0.0,0.0,-2.3042,-2.016,0.0,0.0,0.0,0.0,0.0,0.0,0.0,0.0,0.0,0.0,-1.6244,-1.5056,-1.4371,-1.341,0.0,0.0,0.0,0.0,0.0,0.0,0.0,0.0,0.0,0.0,-1.6437,0.0,0.0,-2.1884,-2.3132,-2.4006,-2.4943,-2.5415,-2.5396,-2.5413,-2.5393,-2.537,-2.537,-2.537,-2.537,-2.537,-2.537,-2.5322,-2.5322,-2.5495,-2.5726,-2.5726,-2.6255,-2.7063,-2.7332,-2.8121,-2.9198,-3.0083,-3.0398,-3.0398,-0.9229,0.0,0.0,0.0,0.0,0.0,0.0,0.0,0.0,0.0,-1.2068,0.0,-1.3379,0.0,-1.6318,0.0,-1.6057,-1.5205,-1.4119,-1.3033,0.0,-1.2038,-1.1193,0.0,0.0,0.0,-0.8926,-0.8199,-0.7978,-0.79,0.0,0.0,0.0,0.0,0.0,0.0,0.0,0.0,-1.4475,0.0,0.0,-1.8535,0.0,0.0,-1.989,-1.9903,0.0,-1.9771,-1.979,-1.979,-2.0569,-2.1613,-2.2193,-2.2866,-2.3488,-2.3708,-2.3705,-2.349,-2.2838,-2.328,0.0,-2.1211,-2.0663,0.0,-1.7534,0.0,0.0,0.0,0.0,0.0,0.0,0.0,-1.7161,-1.5922,-1.4761,-1.3319,0.0,0.0,0.0,0.0,0.0,0.0,0.0,0.0,-1.4312,-1.5695,-1.5209,0.0,0.0,0.0,-2.2334,-2.3535,-2.4784,-2.5409,-2.537,-2.537,-2.5341,-2.5303,-2.5303,-2.5303,-2.5303,-2.5303,-2.5303,-2.5303,-2.5303,-2.5303,-2.5303,-2.5303,-2.563,-2.6178,-2.6486,-2.7255,-2.8352,-2.9506,-3.014,-3.0398,0.0,0.0,0.0,0.0,-1.0265,0.0,0.0,0.0,-1.0189,0.0,-1.5666,-1.9305,-1.9305,-1.9259,-1.9243,-1.9243,-1.8338,0.0,-1.375,-1.4602,0.0,0.0,-1.2618,-1.2419,-1.1908,0.0,0.0,0.0,0.0,0.0,0.0,0.0,0.0,0.0,-1.0194,0.0,-1.2897,-1.4545,-1.6055,-1.7471,-1.8767,-1.9413,-1.9569,-1.9555,-1.9643,-1.9707,-1.9405,-1.9504,-1.9755,-1.9755,-2.0885,-2.2292,-2.2292,-2.3436,-2.4605,-2.3799,-2.412,-2.4417,-2.2741,-2.2891,-2.3181,-2.174,-2.1308,0.0,0.0,0.0,-2.0154,0.0,0.0,0.0,0.0,0.0,0.0,-1.6785,-1.509,-1.3144,0.0,0.0,0.0,0.0,0.0,0.0,0.0,0.0,-1.2331,-1.4598,-1.3365,0.0,0.0,0.0,-2.0861,-2.2669,-2.4361,-2.5264,-2.5303,-2.5303,-2.5303,-2.5303,-2.5303,-2.5303,-2.5303,-2.5303,-2.5303,-2.5303,-2.5303,-2.5303,-2.5303,-2.5303,-2.5303,-2.538,-2.6217,-2.6563,-2.6794,-2.8467,-2.964,-3.0398,-1.0213,-1.0273,-1.0282,0.0,-1.0291,-1.0246,0.0,0.0,0.0,0.0,-1.8315,-1.9305,-1.9305,-1.8626,-1.8191,-1.8191,-1.7954,0.0,0.0,0.0,0.0,-1.4663,-1.3853,-1.338,-1.3296,-1.2079,0.0,-1.0386,0.0,0.0,-0.9692,0.0,0.0,0.0,0.0,0.0,-1.28,-1.3876,-1.5837,-1.8267,-1.8994,-1.9246,0.0,0.0,-1.8961,-1.8945,-1.9139,-1.9222,-1.9212,-1.9212,-2.0423,-2.1932,-2.1932,-2.3159,-2.4538,-2.4316,-2.4316,-2.4332,-2.3886,-2.3737,-2.3541,-2.2761,-2.2092,-2.1403,0.0,0.0,0.0,0.0,0.0,0.0,0.0,0.0,0.0,-1.6863,-1.508,-1.3752,0.0,0.0,0.0,0.0,0.0,0.0,0.0,-1.2275,-1.2896,-1.2817,-1.3528,0.0,0.0,0.0,-1.9869,-2.1627,-2.3467,-2.4697,-2.5284,-2.5303,-2.5303,-2.5303,-2.5303,-2.5303,-2.5303,-2.5303,-2.5303,-2.5303,-2.5303,-2.5303,-2.5303,-2.5303,-2.5303,-2.5322,-2.5553,-2.6024,-2.6794,-2.8467,-2.964,-3.0398,-1.0096,0.0,0.0,-1.2192,0.0,0.0,-1.0344,0.0,0.0,-1.8629,-1.9305,0.0,-1.8699,-1.8149,-1.7549,-1.6977,-1.6926,0.0,-1.6374,0.0,0.0,-1.5538,-1.506,-1.4536,-1.3983,-1.3037,0.0,-1.118,0.0,0.0,-1.0034,0.0,0.0,0.0,0.0,-1.1128,0.0,-1.4653,-1.6535,-1.8335,-1.8926,0.0,0.0,-1.8735,-1.8586,-1.8452,-1.8681,-1.8789,-1.8896,-1.9363,-2.0463,-2.1716,-2.219,-2.3144,-2.4155,-2.4155,-2.3987,-2.3817,-2.3817,-2.3678,-2.349,-2.3271,-2.2883,-2.2298,-2.1339,-2.1625,-2.1983,0.0,-2.2119,-2.2595,0.0,0.0,0.0,0.0,0.0,0.0,0.0,0.0,0.0,0.0,0.0,0.0,-1.0019,-1.1393,-1.2325,-1.2123,-1.2939,0.0,0.0,0.0,0.0,-2.133,-2.315,-2.4485,-2.5284,-2.5303,-2.5303,-2.5303,-2.5303,-2.5303,-2.5303,-2.5303,-2.5303,-2.5303,-2.5303,-2.5303,-2.5303,-2.5303,-2.5303,-2.5303,-2.5303,-2.5832,-2.6717,-2.7659,-2.8775,-2.989,0.0,0.0,0.0,0.0,0.0,0.0,0.0,-1.3402,0.0,-1.8353,0.0,-1.8341,-1.7854,-1.7635,-1.7076,-1.5898,0.0,-1.5799,-1.5799,-1.5799,-1.5783,-1.5717,-1.6052,-1.567,-1.4499,-1.4001,0.0,0.0,0.0,-1.0584,-1.0046,0.0,0.0,0.0,0.0,0.0,0.0,-1.5957,-1.7494,-1.7983,-1.8673,-1.8789,-1.8547,-1.8547,-1.8391,-1.8163,-1.8266,-1.845,-1.8833,-1.9774,-2.0694,-2.1637,-2.2573,-2.322,-2.3631,-2.3631,-2.3392,-2.3141,-2.3141,-2.3093,-2.3124,-2.3338,-2.3386,-2.307,-2.1822,-2.1733,-2.1906,-2.192,-2.1662,-2.2003,-2.4025,0.0,0.0,0.0,0.0,0.0,0.0,0.0,0.0,0.0,0.0,0.0,0.0,-1.0733,-1.1364,-1.1902,-1.1948,0.0,0.0,0.0,0.0,-2.1111,-2.2859,-2.4197,-2.5139,-2.5245,-2.5303,-2.5303,-2.5303,-2.5303,-2.5303,-2.5303,-2.5303,-2.5303,-2.5303,-2.5303,-2.5303,-2.5303,-2.5303,-2.5303,-2.5303,-2.5774,-2.6447,-2.6563,-2.7525,-2.8909,0.0,0.0,0.0,0.0,0.0,-1.5037,-1.6251,-1.7588,-1.7711,-1.5619,-1.4805,-1.5294,-1.7562,-1.6809,-1.6052,-1.5827,-1.5799,0.0,0.0,0.0,0.0,-1.5768,-1.6163,-1.6208,-1.5852,-1.4718,-1.3513,0.0,-1.1247,-1.0376,-0.9687,-0.9859,0.0,0.0,0.0,0.0,-1.3277,-1.5753,0.0,-1.7637,-1.8378,-1.8508,-1.827,-1.827,-1.8103,-1.7946,-1.8557,-1.8967,-1.9208,-1.9373,-2.0547,-2.1923,-2.2109,-2.27,-2.33,-2.33,-2.3045,-2.2797,-2.2797,-2.2616,-2.2517,-2.278,-2.2838,-2.2825,-2.2845,-2.2905,-2.298,-2.3141,-2.3326,-2.3229,-2.2399,0.0,0.0,0.0,0.0,0.0,0.0,0.0,0.0,0.0,0.0,0.0,0.0,0.0,-1.1691,0.0,0.0,0.0,0.0,0.0,0.0,0.0,-2.1081,0.0,0.0,0.0,-2.5303,-2.5303,-2.5303,-2.5303,-2.5303,-2.5303,-2.5303,-2.5303,-2.5303,-2.5303,-2.5303,-2.5303,-2.5303,-2.5303,-2.5303,-2.538,-2.561,-2.6332,-2.6794,-2.7255,0.0,0.0,0.0,0.0,0.0,0.0,0.0,-1.8214,0.0,-1.6413,-1.5296,-1.5177,-1.663,-1.6191,-1.5799,-1.5799,-1.5799,-1.5799,-1.5799,-1.5799,-1.5799,-1.5799,-1.6005,0.0,-1.5703,-1.5227,-1.4012,-1.2038,-1.1517,-1.0606,-0.9346,-0.9587,-0.9769,-0.9925,0.0,-1.1782,0.0,0.0,0.0,-1.731,-1.8078,-1.8229,-1.7992,-1.7992,-1.8143,-1.842,-1.8775,-1.9343,-1.9993,-2.036,-2.1074,-2.1896,-2.2447,-2.277,-2.2947,-2.2947,-2.273,-2.25,-2.25,-2.2415,-2.2321,-2.2463,-2.25,-2.2527,-2.2712,-2.284,-2.2979,-2.3112,-2.3459,-2.3601,-2.3088,-2.1618,0.0,0.0,0.0,0.0,0.0,0.0,0.0,0.0,0.0,0.0,0.0,0.0,0.0,0.0,0.0,0.0,0.0,0.0,-1.5769,0.0,0.0,0.0,-2.4072,0.0,-2.5303,-2.5303,-2.5303,-2.5303,-2.5303,-2.5303,-2.5303,-2.5303,-2.5303,-2.5303,-2.5303,-2.5303,-2.5303,-2.5303,-2.5303,-2.5303,-2.5341,-2.5774,-2.6217,-2.6774,0.0,-1.3022,0.0,0.0,-1.369,0.0,-1.7037,-1.7368,-1.7368,-1.7368,-1.6474,-1.5799,-1.5799,-1.5799,-1.5799,-1.5799,-1.5799,-1.5639,-1.5255,-1.558,-1.5799,-1.5799,-1.5799,-1.5695,-1.5458,-1.5534,-1.4456,0.0,-1.1893,-1.0908,-0.9254,-0.9349,-0.9552,-0.9916,0.0,0.0,0.0,0.0,-1.6622,-1.6999,-1.7654,-1.7862,-1.7799,-1.7799,-1.825,-1.891,-1.9052,-1.965,-2.0484,-2.1228,-2.1464,-2.1644,-2.2563,-2.2678,-2.2485,-2.2582,-2.2463,-2.231,-2.231,-2.231,-2.231,-2.231,-2.231,-2.231,-2.231,-2.2463,-2.2625,-2.266,-2.2982,-2.3437,-2.4077,-2.291,0.0,0.0,0.0,0.0,0.0,0.0,0.0,0.0,0.0,0.0,0.0,0.0,0.0,0.0,0.0,0.0,-1.2315,0.0,0.0,0.0,0.0,-2.1931,-2.3448,0.0,-2.5274,-2.5243,-2.5274,-2.5303,-2.5303,-2.5303,-2.5303,-2.5303,-2.5303,-2.5303,-2.5303,-2.5303,-2.5303,-2.5303,-2.5253,-2.5243,-2.5224,-2.5192,-2.5623,-2.6324,0.0,0.0,0.0,0.0,0.0,0.0,-1.5938,-1.5983,-1.5983,-1.5983,-1.5885,-1.5799,-1.5799,-1.5799,-1.5799,-1.5799,-1.5799,-1.5134,-1.3547,-1.4907,-1.5799,-1.5799,-1.5799,-1.5924,-1.6177,-1.5562,-1.4655,0.0,0.0,-1.1038,-0.9727,-0.9267,-0.9504,-1.0444,-1.2775,0.0,0.0,-1.5792,-1.6603,-1.6821,-1.691,-1.7277,-1.7786,-1.7786,-1.8219,-1.8895,-1.9581,-1.9855,-2.0063,-2.0796,-2.1068,-2.1147,-2.1609,-2.1715,-2.1807,-2.222,-2.2338,-2.231,-2.231,-2.231,-2.231,-2.231,-2.231,-2.231,-2.231,-2.2338,-2.2349,-2.2366,-2.2382,-2.2761,-2.3971,-2.4056,-2.1937,0.0,0.0,0.0,0.0,0.0,0.0,0.0,0.0,0.0,0.0,0.0,0.0,0.0,0.0,0.0,0.0,0.0,0.0,-1.6289,-1.8887,-2.0594,-2.1365,-2.4002,-2.5214,-2.5034,-2.5214,-2.5303,-2.5303,-2.5303,-2.5303,-2.5303,-2.5303,-2.5303,-2.5303,-2.5303,-2.5303,-2.5274,-2.5099,-2.5022,-2.501,-2.4896,-2.4884,-2.4993,0.0,0.0,0.0,0.0,0.0,0.0,0.0,-1.5799,-1.6368,-1.7957,-1.6773,-1.5799,-1.5799,-1.5799,-1.5799,-1.5799,-1.5799,-1.5074,-1.3288,-1.4814,-1.5799,-1.5799,-1.5799,-1.5856,-1.6011,-1.5725,-1.4947,0.0,0.0,0.0,-1.0573,-1.0445,-1.0843,-1.171,-1.3125,-1.4013,-1.4535,-1.6012,-1.6919,-1.7433,-1.7848,-1.8155,-1.841,-1.841,-1.884,-1.9493,-1.9779,-2.002,-2.0189,-2.0471,-2.0764,-2.1055,-2.146,-2.1582,-2.1688,-2.2163,-2.231,-2.231,-2.231,-2.231,-2.231,-2.231,-2.231,-2.231,-2.231,-2.231,-2.2175,-2.1735,-2.171,-2.1657,-2.1319,-2.2868,-2.2913,-1.8979,0.0,0.0,0.0,0.0,0.0,0.0,0.0,0.0,0.0,0.0,0.0,0.0,0.0,-1.0246,-1.1502,-1.2044,0.0,-1.5316,0.0,-2.0297,-2.1091,-2.3682,-2.4962,-2.4877,-2.4962,-2.5006,-2.5006,-2.5006,-2.5006,-2.5006,-2.5006,-2.5006,-2.5006,-2.5006,-2.5006,-2.4987,-2.4923,-2.4877,-2.4864,-2.4832,-2.4804,-2.479,-1.6803,0.0,-1.6953,0.0,-1.6953,-1.6698,-1.5918,-1.5799,-1.6458,-1.8298,-1.7627,-1.6653,-1.5888,-1.5799,-1.5799,-1.5799,-1.5799,-1.5605,-1.5133,-1.6256,-1.66,-1.5814,-1.6064,0.0,-1.5814,-1.5799,-1.5244,-1.4094,-1.3421,0.0,-1.1692,-1.1859,-1.2249,-1.2852,-1.4015,-1.4724,-1.5135,-1.6554,-1.7393,-1.7809,-1.828,-1.8592,-1.8764,-1.8764,-1.9233,-1.9844,-1.9844,-1.996,-2.0124,-2.0124,-2.033,-2.0698,-2.1102,-2.1228,-2.1321,-2.1928,-2.2106,-2.2106,-2.2254,-2.231,-2.231,-2.231,-2.231,-2.231,-2.231,-2.2141,-2.1718,-2.0814,-2.0484,-2.0043,-1.9034,-2.1002,-2.2243,-2.0684,0.0,0.0,0.0,0.0,0.0,0.0,0.0,-1.4072,-1.3502,0.0,0.0,0.0,0.0,-1.1053,-1.17,-1.2277,0.0,0.0,0.0,0.0,-2.0907,-2.3498,-2.4775,-2.4716,-2.4775,-2.4804,-2.4804,-2.4804,-2.4804,-2.4804,-2.4804,-2.4804,-2.4804,-2.4804,-2.4804,-2.479,-2.4731,-2.4716,-2.47,-2.4639,-2.4623,-2.4591,-1.9171,-1.963,-1.963,-1.963,-1.963,-1.8796,-1.6188,-1.5799,-1.5814,-1.5844,-1.8077,-1.8691,-1.6083,-1.5799,-1.5799,-1.5799,-1.5799,-1.6908,-1.9465,-1.9657,-1.8508,0.0,0.0,-1.6675,-1.5814,-1.5799,-1.5469,-1.4782,0.0,0.0,-1.3092,-1.3349,-1.3478,-1.3573,-1.5701,-1.6454,-1.6166,-1.7575,-1.8005,-1.7715,-1.7715,-1.8119,-1.8687,-1.8687,-1.9126,-1.9711,-1.9711,-1.9711,-1.9726,-1.9726,-1.9711,-1.9782,-2.0193,-2.0314,-2.0483,-2.1352,-2.1628,-2.1718,-2.2163,-2.231,-2.231,-2.231,-2.231,-2.231,-2.231,-2.1735,-2.0848,-1.9583,-1.8529,-1.7842,-1.7824,-1.8663,-1.9344,-1.9315,0.0,0.0,0.0,0.0,0.0,0.0,-1.429,-1.3629,-1.4414,0.0,0.0,0.0,0.0,-1.3262,-1.3262,0.0,0.0,-1.5649,-1.9016,0.0,-2.0519,-2.3352,-2.47,-2.4512,-2.47,-2.4804,-2.4804,-2.4804,-2.4804,-2.4804,-2.4804,-2.4804,-2.4804,-2.4804,-2.4804,-2.4775,-2.4575,-2.4512,-2.4478,-2.4284,-2.4209,-2.4209,-1.9525,-1.969,-1.969,-1.969,-1.969,-1.9405,-1.8602,-1.7216,-1.6294,-1.6294,-1.701,-1.7183,-1.6373,-1.7591,-1.8482,0.0,-1.6833,-1.6923,0.0,-1.971,-1.9333,-1.8497,-1.7593,-1.7103,-1.7101,-1.709,-1.6774,-1.6099,0.0,0.0,-1.4257,-1.4359,-1.4856,-1.5725,-1.6391,-1.6864,-1.7256,-1.8163,-1.8474,-1.8433,-1.8882,-1.9181,-1.9375,-1.9375,-1.9495,-1.969,-1.969,-1.969,-1.969,-1.969,-1.969,-1.9711,-1.9839,-2.0296,-2.0894,-2.143,-2.1823,-2.2106,-2.2254,-2.231,-2.231,-2.231,-2.231,-2.231,-2.231,-2.1312,-2.0187,-1.9437,-1.8491,-1.7815,-1.7786,-1.8055,-1.8274,-1.8287,-1.8856,0.0,-1.7388,0.0,0.0,0.0,-1.4678,-1.416,0.0,-1.3954,0.0,0.0,0.0,0.0,0.0,0.0,0.0,0.0,-1.8609,0.0,-2.0503,-2.3083,-2.4357,-2.4303,-2.4357,-2.4393,-2.4393,-2.4393,-2.4393,-2.4393,-2.4393,-2.4393,-2.4393,-2.4393,-2.4393,-2.4393,-2.4321,-2.4303,-2.4284,-2.4228,-2.419,-2.419,-1.8496,-1.8496,-1.8496,-1.8496,-1.8496,-1.8496,-1.8496,-1.7353,-1.6522,-1.6522,-1.6522,-1.6522,-1.6522,-1.7706,0.0,-1.9639,-1.8227,-1.7972,-1.957,-1.969,-1.969,-1.969,-1.8667,-1.7982,-1.7728,-1.7696,0.0,-1.7079,-1.6697,-1.6293,-1.5889,-1.5889,-1.6293,-1.71,-1.7339,-1.7667,-1.81,-1.8792,-1.9076,-1.9106,-1.9525,-1.969,-1.969,-1.969,-1.969,-1.969,-1.969,-1.969,-1.969,-1.969,-1.969,-1.969,-1.969,-2.0311,-2.1055,-2.1306,-2.1568,-2.1886,-2.2209,-2.231,-2.231,-2.231,-2.231,-2.2243,-2.1955,-2.0923,-1.9824,-1.9286,-1.8417,-1.7783,-1.78,-1.7787,-1.7924,-1.8288,-1.8896,-1.8857,-1.7584,0.0,0.0,0.0,0.0,0.0,0.0,-1.4963,-1.5163,0.0,0.0,0.0,0.0,0.0,-1.5747,-1.5857,-1.9198,-2.0996,-2.0996,-2.3125,-2.419,-2.419,-2.419,-2.419,-2.419,-2.419,-2.419,-2.419,-2.419,-2.419,-2.419,-2.4074,-2.4016,-2.3996,-2.3858,-2.3816,-2.3816,-2.3816,-2.3896,-2.4016,-1.6522,-1.6522,-1.6522,-1.6522,-1.6522,-1.6522,-1.6522,-1.6522,-1.6522,-1.6522,-1.6522,-1.6522,-1.6522,-1.6637,-1.7463,-1.9332,0.0,0.0,-1.969,-1.969,-1.969,-1.969,-1.969,-1.9131,-1.7856,-1.7842,-1.7811,-1.7792,-1.7736,-1.7697,-1.7712,-1.7712,-1.7727,-1.7787,-1.8433,-1.8732,-1.8807,-1.9435,-1.969,-1.969,-1.969,-1.969,-1.969,-1.969,-1.969,-1.969,-1.969,-1.969,-1.969,-1.969,-1.969,-1.969,-1.969,-2.0243,-2.0926,-2.0991,-2.1023,-2.1229,-2.202,-2.2237,-2.2209,-2.2237,-2.2282,-2.2124,-2.1414,-2.0619,-1.9799,-1.9113,-1.8352,-1.7811,-1.7811,-1.7811,-1.8117,-1.9047,-1.9248,-1.8681,-1.6908,-1.5125,0.0,0.0,0.0,0.0,-1.507,-1.5969,-1.683,0.0,0.0,0.0,0.0,0.0,-1.656,-1.8133,-2.0537,-2.1839,-2.1894,-2.3419,-2.419,-2.419,-2.419,-2.419,-2.419,-2.419,-2.419,-2.419,-2.419,-2.419,-2.4151,-2.3816,-2.3692,-2.3631,-2.3323,-2.3189,-2.3189,-2.3189,-2.3392,-2.3671,0.0,0.0,-1.6522,-1.6522,-1.6522,-1.6522,-1.6522,-1.6522,-1.6522,-1.6522,-1.6522,-1.6522,-1.6522,-1.7947,-1.8496,-1.7353,-1.8727,-1.969,-1.969,-1.969,-1.969,-1.969,-1.969,-1.9564,-1.9227,-1.9227,-1.8977,-1.8452,-1.7956,-1.7691,-1.7711,-1.7711,-1.797,-1.8478,-1.8627,-1.8986,-1.9465,-1.9615,-1.969,-1.969,-1.969,-1.969,-1.969,-1.969,-1.969,-1.969,-1.969,-1.969,-1.969,-1.969,-1.969,-1.969,-1.969,-1.9854,-2.0139,-2.0797,-2.1213,-2.1491,-2.1718,-2.1538,-2.1385,-2.1705,-2.2032,-2.226,-2.209,-2.0964,-1.9951,-1.9765,-1.8701,-1.7811,-1.7811,-1.7811,-1.7881,-1.813,-1.8816,-1.811,-1.4705,-1.4781,0.0,0.0,-1.546,-1.592,-1.592,-1.6675,-1.6745,0.0,0.0,0.0,-1.6887,-1.7098,-1.7788,-1.8977,-2.0829,-2.2079,-2.2721,-2.3694,-2.419,-2.419,-2.419,-2.419,-2.419,-2.419,-2.419,-2.419,-2.419,-2.4036,-2.3816,-2.3735,-2.3544,-2.3323,-2.3212,-2.3189,-2.3189,-2.3189,-2.3236,-2.3323,-1.6522,-1.6522,-1.6522,-1.6522,-1.6522,-1.6522,-1.6522,-1.6522,-1.6522,-1.6522,-1.6522,-1.6522,-1.6522,-1.7544,-1.8185,-1.7987,-1.9043,-1.969,-1.969,-1.969,-1.969,-1.969,-1.969,-1.969,-1.969,-1.969,-1.9513,-1.9161,-1.8798,-1.8589,-1.8609,-1.8609,-1.8793,-1.9151,-1.9151,-1.9346,-1.969,-1.969,-1.969,-1.969,-1.969,-1.969,-1.969,-1.969,-1.969,-1.969,-1.969,-1.969,-1.969,-1.969,-1.969,-1.969,-1.969,-1.9854,-2.007,-2.055,-2.0846,-2.1054,-2.1275,-2.115,-2.1103,-2.1491,-2.1794,-2.2032,-2.2237,-2.1397,-2.0433,-2.0085,-1.9087,-1.82,-1.7862,-1.7811,-1.7881,-1.813,-1.8432,-1.7958,-1.6042,-1.5871,-1.5853,-1.561,-1.6077,-1.6421,-1.6421,-1.723,-1.7392,-1.6534,-1.7381,0.0,-1.7653,-1.8064,-1.8612,-1.9271,-2.0939,-2.2006,-2.2446,-2.3602,-2.419,-2.419,-2.419,-2.419,-2.419,-2.419,-2.4132,-2.3976,-2.3976,-2.3774,-2.3459,-2.3323,-2.3141,-2.2972,-2.2832,-2.2798,-2.2798,-2.2798,-2.2883,-2.2954,-1.6522,-1.6522,-1.6522,-1.6522,-1.6522,-1.6522,-1.6522,-1.6522,-1.6522,-1.6522,-1.6522,-1.6522,-1.6522,-1.6522,-1.7229,-1.9043,-1.953,-1.969,-1.969,-1.969,-1.969,-1.969,-1.969,-1.969,-1.969,-1.969,-1.969,-1.969,-1.969,-1.969,-1.969,-1.969,-1.969,-1.969,-1.969,-1.969,-1.969,-1.969,-1.969,-1.969,-1.969,-1.969,-1.969,-1.969,-1.969,-1.969,-1.969,-1.969,-1.969,-1.969,-1.969,-1.969,-1.969,-1.9929,-2.0227,-2.0227,-2.0227,-2.0314,-2.0764,-2.0959,-2.1086,-2.143,-2.1628,-2.1794,-2.2209,-2.1735,-2.0976,-2.0176,-1.9406,-1.8674,-1.7946,-1.7811,-1.7881,-1.8111,-1.7775,-1.7613,-1.8003,0.0,-1.6487,-1.6382,-1.6655,-1.6868,-1.6868,-1.7637,-1.8125,-1.8125,-1.8391,-1.8659,-1.8931,-1.8931,-1.9034,-1.9243,-2.0761,-2.1677,-2.1916,-2.3381,-2.4151,-2.419,-2.419,-2.419,-2.419,-2.4151,-2.3976,-2.3692,-2.3649,-2.3437,-2.3093,-2.2822,-2.2686,-2.2625,-2.2388,-2.231,-2.231,-2.231,-2.2436,-2.2643,-1.6522,-1.6522,-1.6522,-1.6522,-1.6522,-1.6522,-1.6522,-1.6522,-1.6522,-1.6522,-1.6522,-1.6522,-1.6522,-1.6522,-1.6637,-1.6951,-1.865,-1.969,-1.969,-1.969,-1.969,-1.969,-1.969,-1.969,-1.969,-1.969,-1.969,-1.969,-1.969,-1.969,-1.969,-1.969,-1.969,-1.969,-1.969,-1.969,-1.969,-1.969,-1.969,-1.969,-1.969,-1.969,-1.969,-1.969,-1.969,-1.969,-1.969,-1.969,-1.969,-1.969,-1.969,-1.969,-1.969,-1.9747,-1.9782,-1.9782,-1.9782,-1.9874,-2.028,-2.0698,-2.0991,-2.1086,-2.1645,-2.2209,-2.2282,-2.1735,-2.0983,-2.0162,-1.9401,-1.8674,-1.7946,-1.7811,-1.7427,-1.6257,-1.5994,-1.5819,-1.5532,0.0,-1.7329,-1.6706,-1.7224,-1.7642,-1.7642,-1.7788,-1.7878,-1.7878,-1.8103,-1.8371,-1.8659,-1.866,-1.8789,-1.9035,-1.9956,-2.1097,-2.2457,-2.3343,-2.3917,-2.419,-2.419,-2.419,-2.419,-2.3917,-2.3753,-2.3692,-2.3392,-2.3093,-2.2772,-2.2721,-2.2563,-2.2377,-2.231,-2.231,-2.231,-2.231,-2.2338,-2.236,-1.6522,-1.6522,-1.6522,-1.6522,-1.6522,-1.6522,-1.6522,-1.6522,-1.6522,-1.6522,-1.6522,-1.6522,-1.6522,-1.6522,-1.6522,-1.6522,-1.7435,-1.7987,-1.7987,-1.9043,-1.969,-1.969,-1.969,-1.969,-1.969,-1.969,-1.969,-1.969,-1.969,-1.969,-1.969,-1.969,-1.969,-1.969,-1.969,-1.969,-1.969,-1.969,-1.969,-1.969,-1.969,-1.969,-1.969,-1.969,-1.969,-1.969,-1.969,-1.969,-1.969,-1.969,-1.969,-1.969,-1.969,-1.969,-1.969,-1.969,-1.969,-1.9747,-1.9945,-2.0139,-2.0345,-2.0565,-2.0926,-2.1287,-2.1528,-2.133,-2.0776,-1.9652,-1.9131,-1.8614,-1.7702,-1.7689,-1.7501,-1.6567,-1.6398,-1.6237,-1.5763,-1.6613,-1.72,-1.7042,-1.7309,-1.7595,-1.7789,-1.7811,-1.7811,-1.7811,-1.7905,-1.8103,-1.8371,-1.8391,-1.8508,-1.877,-1.9558,-2.0739,-2.2335,-2.2672,-2.3109,-2.3671,-2.3671,-2.3671,-2.3671,-2.35,-2.3346,-2.3141,-2.2996,-2.2764,-2.2473,-2.2473,-2.2398,-2.231,-2.231,-2.231,-2.231,-2.231,-2.231,-2.231,-1.6522,-1.6522,-1.6522,-1.6522,-1.6522,-1.6522,-1.6522,-1.6522,-1.6522,-1.6522,-1.6522,-1.6522,-1.6522,-1.6522,-1.6522,-1.6522,-1.6522,-1.6522,-1.6522,-1.8496,-1.969,-1.969,-1.9227,-1.9176,-1.9675,-1.9513,-1.9513,-1.969,-1.969,-1.969,-1.969,-1.969,-1.969,-1.969,-1.969,-1.969,-1.969,-1.969,-1.969,-1.969,-1.969,-1.969,-1.969,-1.969,-1.969,-1.969,-1.969,-1.969,-1.969,-1.969,-1.969,-1.969,-1.969,-1.969,-1.969,-1.969,-1.969,-1.969,-1.969,-1.9782,-1.9909,-2.0212,-2.0382,-2.0572,-2.0921,-2.0868,-2.0414,-1.9174,-1.8776,-1.8366,-1.7379,-1.7396,-1.7403,-1.6848,0.0,-1.6857,-1.6306,-1.6561,-1.6926,-1.7272,-1.7296,-1.7415,-1.7766,-1.7811,-1.7811,-1.7811,-1.7878,-1.7992,-1.8187,-1.8187,-1.827,-1.841,-1.9248,-2.0259,-2.1463,-2.1812,-2.2311,-2.2964,-2.3118,-2.3189,-2.3189,-2.3117,-2.2947,-2.2695,-2.2634,-2.2473,-2.231,-2.231,-2.231,-2.231,-2.231,-2.231,-2.231,-2.231,-2.231,-2.231,-1.6522,-1.6522,-1.6522,-1.6522,-1.6522,-1.6522,-1.6522,-1.6522,-1.6522,-1.6522,-1.6522,-1.6522,-1.6522,-1.6522,-1.6522,-1.6522,-1.6522,-1.6522,-1.6522,-1.8496,-1.969,-1.969,-1.7791,-1.7684,-1.966,-1.9051,-1.9,-1.969,-1.969,-1.969,-1.969,-1.969,-1.969,-1.969,-1.969,-1.969,-1.969,-1.969,-1.969,-1.969,-1.969,-1.969,-1.969,-1.969,-1.969,-1.969,-1.969,-1.969,-1.969,-1.969,-1.969,-1.969,-1.969,-1.969,-1.969,-1.969,-1.969,-1.969,-1.969,-1.9965,-2.0246,-2.028,-2.0616,-2.0959,-2.0975,-2.0525,-1.9837,-1.9068,-1.8423,-1.7749,-1.6985,-1.6857,-1.6632,-1.5927,0.0,0.0,-1.5847,-1.6358,-1.6926,-1.7272,-1.7296,-1.7415,-1.7766,-1.7811,-1.7811,-1.7811,-1.8035,-1.8166,-1.8187,-1.8187,-1.81,-1.7878,-1.8827,-1.9412,-1.9599,-2.0947,-2.182,-2.2189,-2.2876,-2.3189,-2.3189,-2.2873,-2.2721,-2.2695,-2.2453,-2.2338,-2.231,-2.231,-2.231,-2.231,-2.231,-2.231,-2.231,-2.231,-2.231,-2.231,-1.6522,-1.6522,-1.6522,-1.6522,-1.6522,-1.6522,-1.6522,-1.6522,-1.6522,-1.6522,-1.6522,-1.6522,-1.6522,-1.6522,-1.6522,-1.6522,-1.6522,-1.6522,-1.6522,-1.7271,-1.7706,-1.7706,-1.6929,-1.6863,-1.7693,-1.8427,-1.8914,-1.9182,-1.956,-1.969,-1.969,-1.969,-1.969,-1.969,-1.969,-1.969,-1.969,-1.969,-1.969,-1.969,-1.969,-1.969,-1.969,-1.969,-1.969,-1.969,-1.969,-1.969,-1.969,-1.969,-1.969,-1.969,-1.969,-1.969,-1.969,-1.969,-1.969,-1.969,-1.969,-1.9803,-1.9945,-1.9945,-2.007,-2.0174,-2.0174,-2.0023,-1.9518,-1.8393,-1.796,-1.7498,-1.6651,-1.6474,-1.6396,-1.6129,0.0,-1.6327,-1.5837,-1.6184,-1.6607,-1.6952,-1.7175,-1.7415,-1.7766,-1.7811,-1.7811,-1.7811,-1.7883,-1.7949,-1.7949,-1.7949,-1.7922,-1.7811,-1.8177,-1.8603,-1.9087,-1.9651,-2.0213,-2.0815,-2.1591,-2.1953,-2.197,-2.2295,-2.2436,-2.2453,-2.2349,-2.231,-2.231,-2.231,-2.231,-2.231,-2.231,-2.231,-2.231,-2.231,-2.231,-2.231,-1.6522,-1.6522,-1.6522,-1.6522,-1.6522,-1.6522,-1.6522,-1.6522,-1.6522,-1.6522,-1.6522,-1.6522,-1.6522,-1.6522,-1.6522,-1.6522,-1.6522,-1.6522,-1.6522,-1.6522,-1.6522,-1.6522,-1.6522,-1.6522,-1.6522,-1.7793,-1.8602,-1.8803,-1.9398,-1.9603,-1.9442,-1.9603,-1.969,-1.969,-1.969,-1.969,-1.969,-1.969,-1.9603,-1.9442,-1.9442,-1.9442,-1.9442,-1.9442,-1.9566,-1.969,-1.969,-1.969,-1.969,-1.969,-1.969,-1.969,-1.969,-1.969,-1.969,-1.969,-1.969,-1.969,-1.969,-1.969,-1.969,-1.969,-1.969,-1.969,-1.969,-1.9525,-1.9066,-1.7936,-1.7524,-1.7134,-1.6294,-1.6136,-1.6136,-1.6136,-1.6219,-1.6219,-1.5983,-1.6246,-1.6581,-1.6869,-1.7101,-1.7399,-1.7749,-1.7811,-1.7811,-1.7811,-1.7811,-1.7811,-1.7811,-1.7811,-1.7811,-1.7811,-1.7811,-1.8048,-1.8555,-1.8775,-1.9147,-1.9647,-2.045,-2.0822,-2.0839,-2.1363,-2.1735,-2.1955,-2.1955,-2.209,-2.231,-2.231,-2.231,-2.231,-2.231,-2.231,-2.231,-2.231,-2.231,-2.231,-1.6466,-1.6466,-1.6479,-1.6522,-1.6522,-1.6522,-1.6522,-1.6522,-1.6522,-1.6522,-1.6522,-1.6522,-1.6522,-1.6522,-1.6522,-1.6522,-1.6522,-1.6522,-1.6522,-1.6522,-1.6522,-1.6522,-1.6522,-1.6522,-1.6522,-1.7235,-1.794,-1.8574,-1.9332,-1.9406,-1.8893,-1.9442,-1.969,-1.969,-1.969,-1.969,-1.969,-1.969,-1.9369,-1.8893,-1.8893,-1.8893,-1.8893,-1.8893,-1.9244,-1.969,-1.969,-1.969,-1.969,-1.969,-1.969,-1.969,-1.969,-1.969,-1.969,-1.969,-1.969,-1.969,-1.969,-1.969,-1.969,-1.969,-1.969,-1.969,-1.969,-1.9181,-1.8523,-1.7832,-1.7174,-1.6517,-1.5918,-1.5799,-1.5799,-1.5799,-1.6095,-1.6301,-1.6301,-1.6581,-1.6885,-1.7068,-1.71,-1.7292,-1.7749,-1.7811,-1.7811,-1.7789,-1.7789,-1.7811,-1.7811,-1.7811,-1.7811,-1.7811,-1.7811,-1.7811,-1.7811,-1.8538,-1.8894,-1.8894,-1.963,-1.9985,-1.9985,-2.0002,-2.045,-2.1204,-2.1204,-2.1617,-2.2293,-2.231,-2.231,-2.231,-2.231,-2.231,-2.231,-2.231,-2.231,-2.231,-1.3978,-1.3978,-1.4525,-1.6194,-1.6522,-1.6522,-1.6522,-1.6522,-1.6522,-1.6522,-1.6522,-1.6522,-1.6522,-1.6522,-1.6522,-1.6522,-1.6522,-1.6522,-1.6522,-1.6522,-1.6522,-1.6522,-1.6522,-1.6522,-1.6522,-1.6714,-1.7177,-1.7907,-1.8145,-1.8458,-1.8893,-1.9043,-1.9132,-1.9132,-1.9132,-1.893,-1.8574,-1.8574,-1.8496,-1.838,-1.8727,-1.8893,-1.893,-1.9332,-1.9566,-1.969,-1.969,-1.969,-1.969,-1.969,-1.969,-1.9639,-1.9244,-1.9132,-1.9132,-1.9132,-1.9406,-1.9603,-1.9244,-1.9406,-1.969,-1.969,-1.969,-1.969,-1.969,-1.954,-1.9076,-1.7921,-1.7533,-1.7055,-1.6008,-1.5799,-1.5799,-1.5799,-1.587,-1.6039,-1.6274,-1.6382,-1.6596,-1.7048,-1.7101,-1.7271,-1.7743,-1.7805,-1.7811,-1.7806,-1.7799,-1.7803,-1.7789,-1.7811,-1.7811,-1.7811,-1.7811,-1.7811,-1.7811,-1.8031,-1.8132,-1.8149,-1.8877,-1.9232,-1.9249,-1.9748,-2.012,-2.0399,-2.094,-2.1312,-2.1566,-2.209,-2.231,-2.231,-2.231,-2.231,-2.231,-2.231,-2.231,-2.231,-1.2881,-1.2881,-1.3344,-1.4835,-1.5888,-1.6522,-1.6522,-1.6522,-1.6522,-1.6522,-1.6522,-1.6522,-1.6522,-1.6522,-1.6522,-1.6522,-1.6522,-1.6522,-1.6522,-1.6522,-1.6522,-1.6522,-1.6522,-1.6522,-1.6522,-1.6909,-1.7146,-1.7146,-1.7463,-1.7706,-1.7947,-1.838,-1.8574,-1.8574,-1.8574,-1.8419,-1.8106,-1.8106,-1.7987,-1.7827,-1.838,-1.8574,-1.865,-1.9169,-1.953,-1.969,-1.9442,-1.9369,-1.9369,-1.9132,-1.908,-1.9006,-1.8688,-1.8574,-1.8574,-1.8574,-1.8817,-1.9006,-1.865,-1.8817,-1.9132,-1.9332,-1.953,-1.969,-1.969,-1.969,-1.9316,-1.7999,-1.7697,-1.7326,-1.6038,-1.5799,-1.5799,-1.5799,-1.5898,-1.6067,-1.6274,-1.6468,-1.6702,-1.6953,-1.7214,-1.7502,-1.7774,-1.7797,-1.759,-1.7052,-1.7248,-1.7444,-1.7612,-1.7479,-1.7472,-1.7595,-1.7479,-1.7455,-1.7595,-1.7595,-1.7681,-1.7811,-1.8251,-1.8454,-1.8488,-1.892,-1.9275,-1.9579,-1.9933,-2.025,-2.0579,-2.1005,-2.1357,-2.1625,-2.1798,-2.204,-2.231,-2.231,-2.231,-2.231,-1.2881,-1.2881,-1.2881,-1.2881,-1.4892,-1.6522,-1.6522,-1.6522,-1.6522,-1.6522,-1.6522,-1.6522,-1.6522,-1.6522,-1.6522,-1.6522,-1.6522,-1.6522,-1.6522,-1.6522,-1.6522,-1.6522,-1.6522,-1.6479,-1.638,-1.7422,-1.7463,-1.6522,-1.7146,-1.7188,-1.6595,-1.7571,-1.804,-1.8027,-1.8027,-1.7987,-1.7947,-1.7947,-1.7706,-1.7353,-1.7867,-1.8106,-1.8185,-1.8688,-1.9169,-1.9479,-1.9006,-1.8817,-1.8727,-1.8263,-1.8066,-1.8027,-1.8027,-1.8027,-1.8027,-1.8027,-1.8066,-1.8106,-1.8027,-1.8066,-1.8224,-1.8688,-1.9244,-1.9639,-1.969,-1.969,-1.9331,-1.8041,-1.7727,-1.7341,-1.6113,-1.5844,-1.5799,-1.5799,-1.6067,-1.6274,-1.6301,-1.6691,-1.6933,-1.6779,-1.7271,-1.7601,-1.7601,-1.7601,-1.7107,-1.5879,-1.6364,-1.686,-1.7248,-1.6952,-1.6942,-1.7248,-1.6968,-1.6942,-1.7248,-1.7272,-1.7455,-1.7811,-1.7811,-1.7789,-1.7766,-1.7766,-1.8097,-1.8697,-1.8452,-1.8736,-1.9355,-1.9421,-1.986,-2.0499,-2.0854,-2.145,-2.2079,-2.2079,-2.2158,-2.2237,-1.2881,-1.2881,-1.2881,-1.2881,-1.4892,-1.6522,-1.6522,-1.6522,-1.6522,-1.6522,-1.6522,-1.6522,-1.6522,-1.6522,-1.6522,-1.6522,-1.6522,-1.6522,-1.6522,-1.6522,-1.6522,-1.6522,-1.6522,-1.6207,-1.5579,-1.6398,-1.671,-1.6522,-1.668,-1.6879,-1.7118,-1.7356,-1.7455,-1.7463,-1.7463,-1.7229,-1.6837,-1.6837,-1.7034,-1.7353,-1.7867,-1.8106,-1.8185,-1.8688,-1.8688,-1.8419,-1.8341,-1.8263,-1.8263,-1.8145,-1.7827,-1.7463,-1.7463,-1.7463,-1.7463,-1.7463,-1.7787,-1.8027,-1.7585,-1.7787,-1.8145,-1.8263,-1.8688,-1.9169,-1.9603,-1.969,-1.945,-1.8657,-1.8089,-1.7458,-1.6652,-1.6114,-1.5799,-1.5799,-1.5856,-1.6011,-1.6274,-1.6166,-1.6182,-1.6441,-1.6336,-1.6231,-1.6231,-1.6231,-1.6118,-1.5822,-1.5936,-1.6275,-1.6876,-1.6841,-1.6841,-1.6917,-1.6841,-1.6841,-1.6917,-1.6917,-1.7216,-1.7811,-1.7811,-1.7658,-1.7415,-1.7415,-1.7354,-1.7261,-1.7785,-1.8082,-1.8286,-1.8864,-1.9216,-1.9362,-1.9446,-1.9902,-2.0494,-2.0494,-2.1032,-2.1794,-1.2881,-1.2881,-1.3248,-1.4433,-1.4698,-1.4789,-1.4789,-1.5744,-1.6522,-1.6522,-1.6522,-1.6522,-1.6522,-1.6522,-1.6522,-1.6522,-1.6522,-1.6522,-1.6522,-1.6522,-1.6522,-1.6522,-1.6522,-1.6151,-1.5478,-1.5876,-1.6194,-1.6522,-1.6522,-1.6637,-1.6921,-1.6935,-1.6923,-1.6909,-1.6909,-1.6752,-1.6522,-1.6522,-1.668,-1.6951,-1.7504,-1.7706,-1.7787,-1.8302,-1.8341,-1.8066,-1.7827,-1.7544,-1.7353,-1.7353,-1.7146,-1.6909,-1.6909,-1.6909,-1.6909,-1.6909,-1.7105,-1.7271,-1.6993,-1.7105,-1.7394,-1.7666,-1.7947,-1.8419,-1.9442,-1.9479,-1.9141,-1.8458,-1.7626,-1.6819,-1.6153,-1.5566,-1.5165,-1.5165,-1.5165,-1.524,-1.5433,-1.5388,-1.5447,-1.5654,-1.5756,-1.5796,-1.5803,-1.5788,-1.5798,-1.5786,-1.5811,-1.5955,-1.6291,-1.632,-1.6409,-1.6554,-1.6409,-1.6394,-1.6554,-1.6554,-1.6815,-1.7313,-1.7313,-1.724,-1.7052,-1.7052,-1.6952,-1.6805,-1.704,-1.7144,-1.716,-1.7535,-1.794,-1.8254,-1.8423,-1.8885,-1.9511,-1.9511,-2.0097,-2.0912,-1.2881,-1.3248,-1.4165,-1.6151,-1.4835,-1.3525,-1.3525,-1.5197,-1.6522,-1.6522,-1.6522,-1.6522,-1.6522,-1.6107,-1.5976,-1.6151,-1.6151,-1.6151,-1.6324,-1.6337,-1.638,-1.6522,-1.6522,-1.6238,-1.5632,-1.572,-1.5964,-1.6337,-1.6343,-1.6386,-1.6522,-1.6522,-1.6522,-1.6522,-1.6522,-1.6522,-1.6522,-1.6522,-1.6552,-1.668,-1.7105,-1.7312,-1.7353,-1.7787,-1.7907,-1.7787,-1.7312,-1.6879,-1.6522,-1.6522,-1.6522,-1.6522,-1.6522,-1.6522,-1.6522,-1.6522,-1.6522,-1.6522,-1.6522,-1.6522,-1.6637,-1.7146,-1.7312,-1.7666,-1.9095,-1.908,-1.8622,-1.8033,-1.7048,-1.6145,-1.5579,-1.4938,-1.4501,-1.4501,-1.4501,-1.4501,-1.4501,-1.4739,-1.4886,-1.4826,-1.5301,-1.5712,-1.5785,-1.58,-1.5786,-1.5799,-1.5799,-1.5809,-1.5808,-1.5807,-1.5926,-1.6219,-1.5926,-1.5926,-1.6219,-1.6219,-1.634,-1.6633,-1.6633,-1.6659,-1.6712,-1.6712,-1.6686,-1.6607,-1.6355,-1.6219,-1.6219,-1.6219,-1.657,-1.7135,-1.7444,-1.7968,-1.8646,-1.8831,-1.9263,-1.9824,-1.2881,-1.4571,-1.6107,-1.6423,-1.6238,-1.602,-1.602,-1.6293,-1.6522,-1.6522,-1.6522,-1.6522,-1.6522,-1.4663,-1.3789,-1.4835,-1.4652,-1.4778,-1.5676,-1.572,-1.5952,-1.6479,-1.6522,-1.6238,-1.5632,-1.6095,-1.6139,-1.572,-1.5726,-1.6009,-1.6522,-1.6522,-1.6522,-1.6522,-1.6522,-1.6522,-1.6522,-1.6522,-1.6752,-1.7188,-1.7271,-1.7312,-1.7312,-1.7394,-1.7105,-1.671,-1.6637,-1.6552,-1.6522,-1.6522,-1.6522,-1.6522,-1.6522,-1.6522,-1.6522,-1.6522,-1.6522,-1.6522,-1.6522,-1.6522,-1.6637,-1.7146,-1.7312,-1.7463,-1.8185,-1.8263,-1.8196,-1.8074,-1.7121,-1.6269,-1.62,-1.5261,-1.4501,-1.4501,-1.4501,-1.4501,-1.4501,-1.4739,-1.4812,-1.4574,-1.483,-1.5246,-1.5756,-1.5802,-1.5817,-1.5785,-1.5799,-1.5784,-1.5811,-1.5784,-1.5827,-1.5885,-1.5827,-1.5827,-1.5885,-1.5885,-1.587,-1.5926,-1.5926,-1.6095,-1.6382,-1.6382,-1.6219,-1.5926,-1.5885,-1.5885,-1.5885,-1.5885,-1.593,-1.6005,-1.6063,-1.6456,-1.7137,-1.8114,-1.8546,-1.8684,-1.2881,-1.3752,-1.4926,-1.625,-1.6522,-1.6522,-1.6522,-1.6522,-1.6522,-1.6522,-1.6522,-1.6522,-1.6522,-1.434,-1.3113,-1.3658,-1.392,-1.4376,-1.505,-1.5096,-1.5242,-1.5466,-1.5478,-1.5377,-1.5096,-1.5377,-1.5511,-1.5588,-1.5954,-1.6237,-1.6522,-1.6522,-1.6522,-1.6522,-1.6522,-1.6522,-1.6522,-1.6522,-1.6637,-1.6837,-1.6837,-1.6837,-1.6837,-1.6837,-1.671,-1.6479,-1.6139,-1.6008,-1.5964,-1.5611,-1.5478,-1.5478,-1.5478,-1.5478,-1.5478,-1.5478,-1.5478,-1.5478,-1.5478,-1.5478,-1.5555,-1.5796,-1.5828,-1.5915,-1.6151,-1.6194,-1.6494,-1.745,-1.6757,-1.5865,-1.5575,-1.4839,-1.4183,-1.3821,-1.3769,-1.3769,-1.3769,-1.3888,-1.3914,-1.3794,-1.3885,-1.442,-1.5679,-1.581,-1.5794,-1.5814,-1.5799,-1.5799,-1.5799,-1.5787,-1.5788,-1.5788,-1.5815,-1.5799,-1.5799,-1.5799,-1.5799,-1.5799,-1.5799,-1.5885,-1.6011,-1.6011,-1.5926,-1.5799,-1.5799,-1.5799,-1.5799,-1.5799,-1.5799,-1.5799,-1.5799,-1.5978,-1.6338,-1.7407,-1.7803,-1.7909]}]]